[[{"header":{"parameterUnit":"m.s-1","parameterCategory":1,"la1":30.6,"la2":29.2853,"lo1":-89.7004,"lo2":-87.6739,"dy":0.0162,"dx":0.0183,"nx":112,"ny":82,"refTime":"2026-03-07T12:00:00:Z","depth":0,"parameterNumber":2,"parameterNumberName":"U-component_of_WINDS"},"data":[0.0,0.0,0.0,0.0,0.0,0.0,0.0,0.0,0.0,0.0,0.0,0.0,0.0,0.0,0.0,0.0,0.0,0.0,0.0,0.0,0.0,0.0,0.0,0.0,0.0,0.0,0.0,0.0,0.0,0.0,0.0,0.0,0.0,0.0,0.0,0.0,0.0,0.0,0.0,0.0,0.0,0.0,0.0,0.0,0.0,0.0,0.0,0.0,0.0,0.0,0.0,0.0,0.0,0.0,0.0,0.0,0.0,0.0,0.0,0.0,0.0,0.0,0.0,0.0,0.0,0.0,0.0,0.0,0.0,0.0,0.0,0.0,0.0,0.0,0.0,0.0,0.0,0.0,0.0,0.0,0.0,0.0,0.0,0.0,0.0,0.0,0.0,0.0,0.0,0.0,-0.2456,-0.3143,-0.2684,-0.2418,-0.2423,-0.2406,-0.3111,-0.4629,0.0,0.0,0.0,0.0,0.0,0.0,0.0,0.0,0.0,0.0,0.0,0.0,0.0,0.0,0.0,0.0,0.0,0.0,0.0,0.0,0.0,0.0,0.0,0.0,0.0,0.0,0.0,0.0,0.0,0.0,0.0,0.0,0.0,0.0,0.0,0.0,0.0,0.0,0.0,0.0,0.0,0.0,0.0,0.0,0.0,0.0,0.0,0.0,0.0,0.0,0.0,0.0,0.0,0.0,0.0,0.0,0.0,0.0,0.0,0.0,0.0,0.0,0.0,0.0,0.0,0.0,0.0,0.0,0.0,0.0,0.0,0.0,0.0,0.0,0.0,0.0,0.0,0.0,0.0,0.0,0.0,0.0,0.0,0.0,0.0,0.0,0.0,0.0,0.0,0.0,0.0,0.0,0.0,0.0,0.0,0.0,0.0,0.0,0.0,0.0,0.0,0.0,0.0,0.0,-0.3495,-0.2518,-0.2488,-0.2395,-0.2421,-0.2331,-0.273,-0.3707,0.0,0.0,0.0,0.0,0.0,0.0,0.0,0.0,0.0,0.0,0.0,0.0,0.0,0.0,0.0,0.0,0.0,0.0,0.0,0.0,0.0,0.0,0.0,0.0,0.0,0.0,0.0,0.0,0.0,0.0,0.0,0.0,0.0,0.0,0.0,0.0,0.0,0.0,0.0,0.0,0.0,0.0,0.0,0.0,0.0,0.0,0.0,0.0,0.0,0.0,0.0,0.0,0.0,0.0,0.0,0.0,0.0,0.0,0.0,0.0,0.0,0.0,0.0,0.0,0.0,0.0,0.0,0.0,0.0,0.0,0.0,0.0,0.0,0.0,0.0,0.0,0.0,0.0,0.0,0.0,0.0,0.0,0.0,0.0,0.0,0.0,0.0,0.0,0.0,0.0,0.0,0.0,0.0,0.0,0.0,0.0,0.0,0.0,0.0,0.0,0.0,0.0,0.0,-0.3945,-0.3451,-0.2442,-0.236,-0.2384,-0.2398,-0.2334,-0.2613,-0.3598,-0.2902,0.0,0.0,0.0,0.0,0.0,0.0,0.0,0.0,0.0,0.0,0.0,0.0,0.0,0.0,0.0,0.0,0.0,0.0,0.0,0.0,0.0,0.0,0.0,0.0,0.0,0.0,0.0,0.0,0.0,0.0,0.0,0.0,0.0,0.0,0.0,0.0,0.0,0.0,0.0,0.0,0.0,0.0,0.0,0.0,0.0,0.0,0.0,0.0,0.0,0.0,0.0,0.0,0.0,0.0,0.0,0.0,0.0,0.0,0.0,0.0,0.0,0.0,0.0,0.0,0.0,0.0,0.0,0.0,0.0,0.0,0.0,0.0,0.0,0.0,0.0,0.0,0.0,0.0,0.0,0.0,0.0,0.0,0.0,0.0,0.0,0.0,0.0,0.0,0.0,0.0,0.0,0.0,0.0,0.0,0.0,0.0,0.0,0.0,0.0,0.0,0.0,0.0,-0.3233,-0.2897,-0.232,-0.2358,-0.2371,-0.2378,-0.2311,-0.259,-0.3453,-0.2802,0.0,0.0,0.0,0.0,0.0,0.0,0.0,0.0,0.0,0.0,0.0,0.0,0.0,0.0,0.0,0.0,0.0,0.0,0.0,0.0,0.0,0.0,0.0,0.0,0.0,0.0,0.0,0.0,0.0,0.0,0.0,0.0,0.0,0.0,0.0,0.0,0.0,0.0,0.0,0.0,0.0,0.0,0.0,0.0,0.0,0.0,0.0,0.0,0.0,0.0,0.0,0.0,0.0,0.0,0.0,0.0,0.0,0.0,0.0,0.0,0.0,0.0,0.0,0.0,0.0,0.0,0.0,0.0,0.0,0.0,0.0,0.0,0.0,0.0,0.0,0.0,0.0,0.0,0.0,0.0,0.0,0.0,0.0,0.0,0.0,0.0,0.0,0.0,0.0,0.0,0.0,0.0,0.0,0.0,0.0,0.0,0.0,0.0,0.0,0.0,0.0,0.0,-0.3192,-0.2373,-0.2361,-0.2352,-0.2348,-0.2376,-0.2196,-0.2549,-0.3386,-0.389,0.0,0.0,0.0,0.0,0.0,0.0,0.0,0.0,0.0,0.0,0.0,0.0,0.0,0.0,0.0,0.0,0.0,0.0,0.0,0.0,0.0,0.0,0.0,0.0,0.0,0.0,0.0,0.0,0.0,0.0,0.0,0.0,0.0,0.0,0.0,0.0,0.0,0.0,0.0,0.0,0.0,0.0,0.0,0.0,0.0,0.0,0.0,0.0,0.0,0.0,0.0,0.0,0.0,0.0,0.0,0.0,0.0,0.0,0.0,0.0,0.0,0.0,0.0,0.0,0.0,0.0,0.0,0.0,0.0,0.0,0.0,0.0,0.0,0.0,0.0,0.0,0.0,0.0,0.0,0.0,0.0,0.0,0.0,0.0,0.0,0.0,0.0,0.0,0.0,0.0,0.0,0.0,0.0,0.0,0.0,0.0,0.0,0.0,0.0,0.0,0.0,0.0,-0.3621,-0.2853,-0.2333,-0.2339,-0.2337,-0.2349,-0.2262,-0.226,-0.2426,0.0,0.0,0.0,0.0,0.0,0.0,0.0,0.0,0.0,0.0,0.0,0.0,0.0,0.0,0.0,0.0,0.0,0.0,0.0,0.0,0.0,0.0,0.0,0.0,0.0,0.0,0.0,0.0,0.0,0.0,0.0,0.0,0.0,0.0,0.0,0.0,0.0,0.0,0.0,0.0,0.0,0.0,0.0,0.0,0.0,0.0,0.0,0.0,0.0,0.0,0.0,0.0,0.0,0.0,0.0,0.0,0.0,0.0,0.0,0.0,0.0,0.0,0.0,0.0,0.0,0.0,0.0,0.0,0.0,0.0,0.0,0.0,0.0,0.0,0.0,0.0,0.0,0.0,0.0,0.0,0.0,0.0,0.0,0.0,0.0,0.0,0.0,0.0,0.0,0.0,0.0,0.0,0.0,0.0,0.0,0.0,0.0,0.0,0.0,0.0,0.0,0.0,-0.5232,-0.4014,-0.3141,-0.3091,-0.2672,-0.2384,-0.2403,-0.2326,-0.2317,-0.2325,0.0,0.0,0.0,0.0,0.0,0.0,0.0,0.0,0.0,0.0,0.0,0.0,0.0,0.0,0.0,0.0,0.0,0.0,0.0,0.0,0.0,0.0,0.0,0.0,0.0,0.0,0.0,0.0,0.0,0.0,0.0,0.0,0.0,0.0,0.0,0.0,0.0,0.0,0.0,0.0,0.0,0.0,0.0,0.0,0.0,0.0,0.0,0.0,0.0,0.0,0.0,0.0,0.0,0.0,0.0,0.0,0.0,0.0,0.0,0.0,0.0,0.0,0.0,0.0,0.0,0.0,0.0,0.0,0.0,0.0,0.0,0.0,0.0,0.0,0.0,0.0,0.0,0.0,0.0,0.0,0.0,0.0,0.0,0.0,0.0,0.0,0.0,0.0,0.0,0.0,0.0,0.0,0.0,0.0,0.0,0.0,0.0,0.0,0.0,0.0,0.0,0.0,-0.6849,-0.4185,-0.2878,-0.4588,-0.3392,-0.2495,-0.2555,-0.2368,-0.2575,0.0,0.0,0.0,0.0,0.0,0.0,0.0,0.0,0.0,0.0,0.0,0.0,0.0,0.0,0.0,0.0,0.0,0.0,0.0,0.0,0.0,0.0,0.0,0.0,0.0,0.0,0.0,0.0,0.0,0.0,0.0,0.0,0.0,0.0,0.0,0.0,0.0,0.0,0.0,0.0,0.0,0.0,0.0,0.0,0.0,0.0,0.0,0.0,0.0,0.0,0.0,0.0,0.0,0.0,0.0,0.0,0.0,0.0,0.0,0.0,0.0,0.0,0.0,0.0,0.0,0.0,0.0,0.0,0.0,0.0,0.0,0.0,0.0,0.0,0.0,0.0,0.0,0.0,0.0,0.0,0.0,0.0,0.0,0.0,0.0,0.0,0.0,0.0,0.0,0.0,0.0,0.0,0.0,0.0,0.0,0.0,0.0,0.0,0.0,0.0,0.0,0.0,0.0,-0.5354,-0.3751,-0.2596,-0.3186,-0.2882,-0.2562,-0.256,-0.2444,-0.2399,-0.2365,0.0,0.0,0.0,0.0,0.0,0.0,0.0,0.0,0.0,0.0,0.0,0.0,0.0,0.0,0.0,0.0,0.0,0.0,0.0,0.0,0.0,0.0,0.0,0.0,0.0,0.0,0.0,0.0,0.0,0.0,0.0,0.0,0.0,0.0,0.0,0.0,0.0,0.0,0.0,0.0,0.0,0.0,0.0,0.0,0.0,0.0,0.0,0.0,0.0,0.0,0.0,0.0,0.0,0.0,0.0,0.0,0.0,0.0,0.0,0.0,0.0,0.0,0.0,0.0,0.0,0.0,0.0,0.0,0.0,0.0,0.0,0.0,0.0,0.0,0.0,0.0,0.0,0.0,0.0,0.0,0.0,0.0,0.0,0.0,0.0,0.0,0.0,0.0,0.0,0.0,0.0,0.0,0.0,0.0,0.0,0.0,0.0,0.0,0.0,0.0,0.0,0.0,-0.5582,-0.3845,-0.2831,-0.3465,-0.2987,-0.2654,-0.2649,-0.2566,-0.2379,-0.2067,0.0,0.0,0.0,0.0,0.0,0.0,0.0,0.0,0.0,0.0,0.0,0.0,0.0,0.0,0.0,0.0,0.0,0.0,0.0,0.0,0.0,0.0,0.0,0.0,0.0,0.0,0.0,0.0,0.0,0.0,0.0,0.0,0.0,0.0,0.0,0.0,0.0,0.0,0.0,0.0,0.0,0.0,0.0,0.0,0.0,0.0,0.0,0.0,0.0,0.0,0.0,0.0,0.0,0.0,0.0,0.0,0.0,0.0,0.0,0.0,0.0,0.0,0.0,0.0,0.0,0.0,0.0,0.0,0.0,0.0,0.0,0.0,0.0,0.0,0.0,0.0,0.0,0.0,0.0,0.0,0.0,0.0,0.0,0.0,0.0,0.0,0.0,0.0,0.0,0.0,0.0,0.0,0.0,0.0,0.0,0.0,0.0,0.0,0.0,0.0,0.0,0.0,-0.6487,-0.4302,-0.3195,-0.4774,-0.3608,-0.2759,-0.2781,-0.2699,-0.2508,-0.2184,0.0,0.0,0.0,0.0,0.0,0.0,0.0,0.0,0.0,0.0,0.0,0.0,0.0,0.0,0.0,0.0,0.0,0.0,0.0,0.0,0.0,0.0,0.0,0.0,0.0,0.0,0.0,0.0,0.0,0.0,0.0,0.0,0.0,0.0,0.0,0.0,0.0,0.0,0.0,0.0,0.0,0.0,0.0,0.0,0.0,0.0,0.0,0.0,0.0,0.0,0.0,0.0,0.0,0.0,0.0,0.0,0.0,0.0,0.0,0.0,0.9215,0.0,0.0,0.0,0.0,0.0,0.0,0.0,0.0,0.0,0.0,0.0,0.0,0.0,0.0,0.0,0.0,0.0,0.0,0.0,0.0,0.0,0.0,0.0,0.0,0.0,0.0,0.0,0.0,0.0,0.0,0.0,0.0,0.0,0.0,0.0,0.0,0.0,0.0,0.0,0.0,0.0,-0.4177,-0.3336,-0.2865,-0.336,-0.3023,-0.2829,-0.2787,-0.2699,-0.2526,-0.2244,-0.2878,0.0,0.0,0.0,0.0,0.0,0.0,0.0,0.0,0.0,0.0,0.0,0.0,0.0,0.0,0.0,0.0,0.0,0.0,0.0,0.0,0.0,0.0,0.0,0.0,0.0,0.0,0.0,0.0,0.0,0.0,0.0,0.0,0.0,0.0,0.0,0.0,0.0,0.0,0.0,0.0,0.0,0.0,0.0,0.0,0.0,0.0,0.0,0.0,0.0,0.0,0.0,0.0,0.0,0.0,0.0,0.0,0.0,0.0,0.0,0.0,0.8676,0.0,0.0,0.0,0.0,0.0,0.0,0.0,0.0,0.0,0.0,0.0,0.0,0.0,0.0,0.0,0.0,0.0,0.0,0.0,0.0,0.0,0.0,0.0,0.0,0.0,0.0,0.0,0.0,0.0,0.0,0.0,0.0,0.0,0.0,0.0,0.0,0.0,0.0,0.0,0.0,-0.4147,-0.3403,-0.2739,-0.2861,-0.2874,-0.2849,-0.2788,-0.2727,-0.2587,-0.2346,-0.2927,0.0,0.0,0.0,0.0,0.0,0.0,0.0,0.0,0.0,0.0,0.0,0.0,0.0,0.0,0.0,0.0,0.0,0.0,0.0,0.0,0.0,0.0,0.0,0.0,0.0,0.0,0.0,0.0,0.0,0.0,0.0,0.0,0.0,0.0,0.0,0.0,0.0,0.0,0.0,0.0,0.0,0.0,0.0,0.0,0.0,0.0,0.0,0.0,0.0,0.0,0.0,0.0,0.0,1.3105,1.3397,1.3763,1.4021,1.4095,1.398,1.2219,1.1076,1.0241,0.7549,0.0,0.0,0.0,0.0,0.0,0.0,0.0,0.0,0.0,0.0,0.0,0.0,0.0,0.0,0.0,0.0,0.0,0.0,0.0,0.0,0.0,0.0,0.0,0.0,-0.1985,-0.2252,0.0,0.0,0.0,0.0,0.0,0.0,0.0,0.0,0.0,0.0,0.0,0.0,-0.451,-0.3593,-0.2744,-0.2861,-0.2874,-0.2849,-0.2788,-0.2755,-0.2819,-0.2604,-0.2989,-0.3532,0.0,0.0,0.0,0.0,0.0,0.0,0.0,0.0,0.0,0.0,0.0,0.0,0.0,0.0,0.0,0.0,0.0,0.0,0.0,0.0,0.0,0.0,0.0,0.0,0.0,0.0,0.0,0.0,0.0,0.0,0.0,0.0,2.0252,1.9851,0.0,0.0,0.0,0.0,0.0,0.0,0.0,0.0,0.0,0.0,0.0,0.0,0.0,1.2303,1.2824,1.3892,1.4367,1.4455,1.5499,1.6022,1.6083,1.6123,1.6273,1.6497,1.6038,0.0,1.1236,1.123,0.0,0.0,0.0,0.0,0.0,0.0,0.0,0.0,0.0,0.0,0.0,0.0,0.0,0.0,0.0,0.0,0.0,0.0,0.0,0.0,0.0,0.0,-0.2875,-0.2668,-0.2691,-0.2527,0.0,-0.211,-0.1844,-0.1725,-0.1628,0.0,0.0,0.0,0.0,0.0,0.0,0.0,-0.2566,-0.2719,-0.2769,-0.2864,-0.2874,-0.2849,-0.2788,-0.3099,-0.3171,-0.298,-0.3421,-0.3639,-0.3899,-0.4444,0.0,0.0,0.0,0.0,0.0,0.0,0.0,0.0,0.0,0.0,0.0,0.0,0.0,0.0,0.0,0.0,0.0,0.0,0.0,0.0,0.0,0.0,0.0,0.0,0.0,0.0,0.0,0.0,0.0,1.9575,2.0169,1.9118,1.8764,1.7695,0.0,0.0,0.0,0.0,0.0,0.0,0.0,0.0,0.0,1.5762,1.4288,1.4323,1.6025,1.5737,1.5866,1.6123,1.6646,1.6992,1.7154,1.7066,1.7188,1.7467,1.7317,1.628,1.4724,1.3205,1.1014,0.8688,0.0,0.0,0.0,0.0,0.111,0.0282,-0.0,-0.0,0.0,-0.0,0.0,0.0,0.0,0.0,0.0,0.0,0.0,0.0,0.0,0.0,-0.3003,-0.2914,-0.293,-0.274,-0.2683,-0.2469,-0.2221,0.0,-0.1895,-0.1772,-0.1534,0.0,0.0,0.0,0.0,-0.2395,-0.3205,-0.2886,-0.274,-0.2815,-0.2838,-0.2823,-0.2763,-0.3107,-0.3392,-0.3244,-0.3713,-0.4001,-0.4147,-0.4769,-0.5514,0.0,0.0,0.0,0.0,0.0,0.0,0.0,0.0,0.0,0.0,0.0,0.0,0.0,0.0,0.0,0.0,0.0,0.0,0.0,0.0,0.0,0.0,0.0,0.0,0.0,0.0,0.0,0.0,1.9749,2.0537,1.909,1.9658,1.9224,0.0,0.0,0.0,0.0,0.0,0.0,1.6071,1.414,1.4347,1.7274,1.5838,1.606,1.8351,1.7228,1.6958,1.7365,1.729,1.7433,1.7758,1.7561,1.7602,1.7806,1.7704,1.7602,1.7412,1.4851,1.2818,1.0806,0.9196,0.6078,0.2465,0.248,0.1721,0.0639,0.0174,-0.0,-0.0,-0.0,0.0,-0.0,-0.0,0.0,0.0,0.0,0.0,-0.0856,-0.1428,-0.2324,-0.2917,-0.2893,-0.2905,-0.2876,-0.2846,-0.2727,-0.2544,0.0,-0.2169,-0.2045,-0.1768,0.0,0.0,0.0,0.0,-0.2524,-0.3439,-0.3059,-0.2713,-0.2766,-0.2792,-0.2787,-0.2742,-0.3267,-0.358,-0.3481,-0.4152,-0.4502,-0.4433,-0.506,-0.5964,-0.702,0.0,0.0,0.0,0.0,0.0,0.0,0.0,0.0,0.0,0.0,0.0,0.0,0.0,0.0,0.0,0.0,0.0,0.0,0.0,0.0,0.0,0.0,0.0,0.0,0.0,0.0,0.0,0.0,0.0,2.097,2.1824,0.0,0.0,0.0,0.0,1.5649,1.6582,1.7173,1.6787,1.5709,1.6335,1.8932,1.7487,1.6795,1.7346,1.7297,1.7528,1.7826,1.7541,1.7629,1.8057,1.7772,1.765,1.7663,1.765,1.7487,1.7175,1.6646,1.386,0.9859,0.9279,0.65,0.2842,0.2815,0.2632,0.2469,0.0548,-0.0,-0.0,-0.0,-0.0,-0.0,-0.0,-0.0,0.0,0.0,-0.1376,-0.2727,-0.1685,-0.2271,-0.3059,-0.2943,-0.2936,-0.2906,-0.2878,-0.2774,-0.2649,0.0,-0.2399,-0.2278,-0.2147,0.0,-0.2099,-0.2257,-0.2217,-0.2338,-0.2488,-0.2616,-0.2705,-0.2736,-0.2742,-0.2742,-0.2737,-0.3558,-0.4021,-0.3811,-0.4739,-0.5136,-0.5016,-0.513,-0.5973,-0.7712,-0.7288,0.0,0.0,0.0,0.0,0.0,0.0,0.0,0.0,0.0,0.0,0.0,0.0,0.0,0.0,0.0,0.0,0.0,0.0,0.0,0.0,0.0,0.0,0.0,0.0,0.0,0.0,0.0,0.0,2.128,2.3476,0.0,2.175,2.208,2.1498,1.9416,1.9552,1.9284,1.8134,1.6861,1.6646,1.8049,1.7429,1.7426,1.7623,1.7684,1.7704,1.7717,1.7616,1.7602,1.767,1.765,1.765,1.765,1.765,1.7589,1.746,1.71,1.499,1.1929,1.1432,0.8688,0.513,0.5304,0.4006,0.1932,0.1939,0.117,-0.0,-0.0,-0.0,-0.0,-0.0,-0.0,-0.0,-0.0,-0.151,-0.2933,-0.2699,-0.2752,-0.3155,-0.301,-0.2981,-0.2942,-0.2932,-0.2851,-0.2762,-0.2699,-0.2542,-0.2383,-0.2263,-0.2264,-0.226,-0.2193,-0.2311,-0.2432,-0.2504,-0.2585,-0.2638,-0.2649,-0.2668,-0.268,-0.3015,-0.3694,-0.4017,-0.4303,-0.4875,-0.5125,-0.5082,-0.5024,-0.6126,-0.8413,-0.7951,-0.8141,0.0,0.0,0.0,0.0,0.0,0.0,0.0,0.0,0.0,0.0,0.0,0.0,0.0,0.0,0.0,0.0,0.0,0.0,0.0,0.0,0.0,0.0,0.0,0.0,0.0,0.0,2.3909,2.2469,2.5016,2.6044,2.4021,2.3986,2.3243,2.1474,2.0872,1.9826,1.8074,1.7341,1.7134,1.7487,1.765,1.7738,1.7792,1.7792,1.7717,1.7568,1.7521,1.7467,1.7419,1.7473,1.7494,1.7494,1.6621,1.6372,1.6099,1.5265,1.3343,1.1037,1.1691,0.9097,0.5198,0.5597,0.4031,0.2037,0.2018,0.1214,-0.0,-0.0,-0.0,-0.0,-0.0,-0.0,-0.0,-0.0,-0.1257,-0.2727,-0.2999,-0.3022,-0.3026,-0.3047,-0.3006,-0.2961,-0.2961,-0.2891,-0.2819,-0.2789,-0.2671,-0.2537,-0.2417,-0.2436,-0.2428,-0.2308,-0.2401,-0.2488,-0.2497,-0.2551,-0.2587,-0.2587,-0.2768,-0.2954,-0.3307,-0.3777,-0.4256,-0.4602,-0.4772,-0.5,-0.5022,-0.5239,-0.6346,-0.8625,-0.8688,-0.9225,-1.0087,0.0,0.0,0.0,0.0,0.0,0.0,0.0,0.0,0.0,0.0,0.0,0.0,0.0,0.0,0.0,0.0,0.0,0.0,0.0,0.0,0.0,0.0,0.0,2.0502,2.2838,2.4685,2.4721,2.6375,2.7208,2.6246,2.48,2.3221,2.1763,2.0371,1.864,1.6761,1.7188,1.75,1.765,1.7792,1.7792,1.765,1.765,1.7561,1.7412,1.7263,1.727,1.7399,1.7256,1.7188,1.6969,1.4833,1.3689,1.3364,1.1042,0.8925,0.7011,0.9259,0.7307,0.3322,0.3322,0.3116,0.2905,0.0823,-0.0,-0.0,-0.0,-0.0,-0.0,-0.0,-0.0,-0.0,-0.0,-0.0753,-0.1696,-0.2854,-0.3052,-0.3052,-0.3052,-0.3006,-0.2962,-0.2961,-0.2893,-0.2822,-0.2789,-0.2784,-0.2746,-0.2624,-0.2627,-0.2607,-0.2489,-0.2497,0.0,-0.2474,-0.2522,-0.2557,-0.2557,-0.3034,-0.3224,-0.3297,-0.3961,-0.4383,-0.4533,-0.4765,-0.4785,-0.4842,-0.576,-0.6906,-0.8318,-0.9757,-1.0404,-1.0433,0.0,0.0,0.0,0.0,0.0,0.0,0.0,0.0,0.0,0.0,0.0,0.0,0.0,0.0,0.0,0.0,0.0,0.0,0.0,0.0,0.0,2.1044,2.293,2.1934,2.4541,2.676,2.6846,2.8427,2.8824,2.6992,2.6341,2.4568,2.0849,2.0356,1.9369,1.7229,1.746,1.765,1.7792,1.7738,1.7684,1.765,1.7541,1.7405,1.7256,1.7209,1.7161,1.7107,1.7161,1.6273,1.4481,1.3935,1.2838,1.1042,1.0407,0.8925,0.7013,0.8058,0.6328,0.3354,0.3354,0.2296,0.0831,0.0209,-0.0,-0.0,-0.0,-0.0,-0.0,-0.0,-0.1167,-0.1938,-0.0385,-0.1344,-0.2685,-0.3055,-0.3052,-0.3052,-0.3052,-0.3022,-0.2988,-0.2966,-0.2924,-0.2871,-0.2797,-0.2801,-0.2777,-0.2656,-0.2623,-0.2596,-0.2542,-0.2542,0.0,-0.2506,-0.2517,-0.2518,-0.2496,-0.2961,-0.3294,-0.366,-0.4061,-0.4492,-0.4693,-0.4739,-0.4809,-0.4782,-0.6123,-0.7945,-1.0203,-1.1024,-1.1224,0.0,0.0,0.0,0.0,0.0,0.0,0.0,0.0,0.0,0.0,0.0,0.0,0.0,0.0,0.0,0.0,0.0,0.0,0.0,0.0,0.0,0.0,2.3978,2.5527,2.5083,2.6864,2.8457,2.8874,2.9912,2.9765,2.76,2.6348,2.4096,2.0496,1.9555,1.8426,1.7317,1.7412,1.7528,1.767,1.7595,1.7521,1.746,1.7372,1.6816,1.5605,1.5605,1.5139,1.4224,1.4292,1.3434,0.0,1.1312,1.0028,0.871,0.7653,0.6594,0.0,0.0,0.0,0.0,0.0,0.1054,-0.0,-0.0,-0.0,-0.0,-0.0,-0.0,-0.0,-0.0,-0.0788,-0.1765,-0.1365,-0.1936,-0.2502,-0.3088,-0.3071,-0.3055,-0.3069,-0.3039,-0.2998,-0.2968,-0.2928,-0.2875,-0.2799,-0.2787,0.0,-0.268,-0.2662,-0.2637,-0.257,-0.2581,-0.2581,-0.2538,-0.2714,-0.2883,-0.2863,-0.3512,-0.3845,-0.4172,-0.4405,0.0,0.0,0.0,-0.4962,-0.5521,-0.6729,0.0,0.0,0.0,0.0,0.0,0.0,0.0,0.0,-1.2135,-1.2269,0.0,0.0,0.0,0.0,0.0,0.0,0.0,0.0,0.0,0.0,0.0,0.0,0.0,0.0,0.0,0.0,2.7122,2.8477,2.9128,2.9405,2.9839,3.0527,3.0658,2.9758,2.7639,2.5101,2.2598,2.0144,1.8049,1.706,1.7182,0.0,0.0,0.0,0.0,1.7331,1.7195,1.7175,1.6035,1.4002,1.3791,1.252,1.0619,1.0407,0.9984,0.9772,0.7653,0.6592,0.6169,0.4261,0.3412,0.3411,0.6387,0.4896,0.1492,0.0426,-0.0,-0.0,-0.0,0.0,0.0,-0.0,-0.0,-0.0,-0.0,-0.0,-0.0589,-0.2553,-0.252,-0.1918,-0.2928,-0.3095,-0.3059,-0.3086,-0.3051,-0.3003,-0.2973,-0.2926,-0.287,-0.2806,-0.2772,-0.2742,-0.2703,-0.2717,-0.2697,-0.259,-0.2619,-0.2634,-0.2743,-0.3111,-0.348,-0.3476,0.0,0.0,-0.4633,-0.4806,-0.4978,-0.4883,-0.4706,-0.5203,-0.6548,-0.7592,-0.8944,-1.0503,-1.1788,-1.3012,-1.417,-1.4332,-1.4837,-1.5512,-1.3395,-1.3032,0.0,0.0,0.0,0.0,0.0,0.0,0.0,0.0,0.0,0.0,0.0,0.0,0.0,0.0,0.0,2.4948,2.7059,2.8837,2.9815,3.0395,3.0672,3.0612,2.9328,2.7674,2.5322,2.2992,2.0537,1.8181,1.7429,1.7161,1.7188,1.7311,1.7392,1.7419,1.7304,1.7222,1.7195,1.708,1.6795,1.6341,0.0,0.0,1.2942,1.1042,0.9137,0.7441,0.7016,0.5744,0.4048,0.3624,0.2772,0.2131,0.3623,0.2557,0.0213,-0.0,-0.0,-0.0,-0.0,-0.0,-0.0,-0.0,-0.0,-0.0,-0.0,-0.0594,0.0,-0.275,-0.2922,-0.2899,-0.3103,-0.308,-0.3054,-0.3059,-0.3052,-0.3035,-0.3005,-0.2988,-0.2957,-0.2872,-0.2852,-0.2822,-0.2743,-0.2714,-0.2694,-0.2671,-0.301,-0.3182,-0.3169,-0.3679,-0.4011,-0.3976,-0.4475,-0.4641,-0.4631,-0.4806,-0.5033,-0.5057,-0.4891,-0.5487,-0.6966,-0.8395,-0.9804,-1.147,-1.3074,-1.4006,-1.4256,-1.4983,-1.5369,-1.5523,-1.5143,-1.5092,0.0,0.0,0.0,0.0,0.0,0.0,0.0,0.0,0.0,0.0,0.0,2.3739,2.4496,0.0,2.5803,2.7599,2.8429,2.9344,3.0286,3.0745,3.0522,2.9331,2.8379,2.658,2.2965,2.1585,1.9843,1.7518,1.7168,1.7121,1.7188,1.7195,1.7202,1.7202,1.7127,1.7087,1.7087,1.7019,1.5914,1.3586,1.252,1.0614,0.8501,0.7231,0.6172,0.5109,0.5109,0.4474,0.3412,0.3412,0.2985,0.2558,0.3198,0.1919,-0.0,-0.0,-0.0,-0.0,-0.0,-0.0,-0.0,-0.0,-0.0,-0.0,-0.0,-0.0993,-0.2359,-0.2964,-0.3122,-0.3082,-0.3112,-0.3086,-0.3056,-0.3071,-0.3063,-0.304,-0.2994,-0.2996,-0.298,-0.2891,-0.2874,-0.2855,-0.2793,-0.2758,-0.2904,-0.3058,-0.3254,-0.3614,-0.3767,-0.4297,-0.4476,-0.4622,-0.4984,-0.5148,-0.5092,-0.5042,-0.5079,-0.5109,-0.4946,-0.528,-0.6141,-0.8364,-1.0025,-1.099,-1.3319,-1.4877,-1.5176,-1.572,-1.6019,-1.635,-1.6496,-1.649,0.0,0.0,0.0,0.0,0.0,0.0,0.0,2.54,2.6167,2.7013,2.6648,2.6881,2.8819,2.7535,2.7206,2.9886,2.9859,2.9707,3.0564,3.0865,2.9932,2.7386,2.7176,2.5639,2.1011,2.0353,1.9296,1.7401,1.706,1.7032,1.7148,1.7039,1.6978,1.6978,1.6978,1.6978,1.6978,1.6978,1.4856,1.083,1.0407,0.8077,0.4048,0.3624,0.3412,0.3411,0.3405,0.3407,0.3411,0.298,0.2981,0.3412,0.2985,0.1705,-0.0,-0.0,-0.0,-0.0,-0.0,-0.0,-0.0,-0.0,-0.0207,-0.0614,-0.0608,-0.1795,-0.3149,-0.3179,-0.3131,-0.3082,-0.3137,-0.3107,-0.3067,-0.3092,-0.3074,-0.3039,-0.299,-0.2994,-0.2986,-0.2913,-0.2896,-0.2882,-0.2851,-0.2825,-0.2969,-0.327,-0.3484,-0.3685,-0.4177,-0.473,-0.5107,-0.5107,-0.5501,-0.5662,-0.5553,-0.5343,-0.5202,-0.5166,-0.5041,-0.5117,-0.5411,-0.8166,-1.0059,-1.0491,-1.3737,-1.5713,-1.6381,-1.6537,-1.6925,-1.7376,-1.7662,-1.7568,2.4877,2.227,2.2711,2.4491,2.5006,2.5977,0.0,3.0977,3.1606,3.2658,3.289,3.2692,3.1282,3.0177,2.9327,2.9188,2.9212,2.9767,3.0805,3.0974,2.9515,2.5279,2.4827,2.3713,2.0799,1.866,1.7401,1.7195,1.706,1.6985,1.7005,1.6992,1.6978,1.6978,1.6978,1.6978,1.6978,1.6978,1.5704,1.3153,1.1253,0.8925,0.6379,0.4261,0.3412,0.3411,0.3384,0.3386,0.3196,0.1269,0.1482,0.3198,0.1066,0.0213,-0.0,-0.0,-0.0,-0.0,-0.0,-0.0,-0.0,-0.0,-0.1247,-0.2864,-0.2837,-0.2992,-0.3149,-0.3179,-0.3161,-0.3141,-0.3174,-0.3138,-0.3093,-0.3097,-0.3074,-0.3051,-0.3043,-0.3024,-0.3003,-0.2994,-0.2971,-0.2942,-0.2912,-0.2904,-0.2872,-0.2965,-0.3651,-0.4177,-0.4173,-0.5046,-0.557,-0.557,-0.5575,-0.5553,-0.5491,-0.5551,-0.5523,-0.5365,-0.5387,-0.5382,-0.5327,-0.8783,-1.065,-1.0937,-1.4803,-1.6901,-1.7229,-1.79,-1.8393,-1.8366,-1.8707,-1.8494,2.9212,2.6554,2.5984,2.8853,2.983,3.0652,3.3254,3.4316,3.5121,3.6242,3.5002,3.3695,3.3176,3.1142,2.9282,0.0,2.9562,2.99,3.066,3.0636,2.8872,2.4487,2.4022,2.2526,1.8738,1.7608,1.6971,1.706,1.7012,1.6978,1.6978,1.6978,1.6978,1.6978,1.6978,1.6978,1.6978,1.6978,1.5277,1.1676,1.0619,0.8289,0.4685,0.3837,0.3401,0.3384,0.3354,0.3348,0.336,0.2301,0.1674,0.126,0.042,-0.0,-0.0,-0.0,-0.0,-0.0,-0.0,-0.0,-0.0,-0.0,-0.0628,-0.1661,-0.2865,-0.323,-0.3194,-0.319,-0.3167,-0.3145,-0.3159,-0.3142,-0.3125,-0.3125,-0.31,-0.3074,-0.3056,-0.3041,-0.3028,-0.301,-0.2996,-0.2984,-0.2971,-0.2954,-0.3107,-0.3228,-0.3913,-0.4419,-0.4915,-0.5438,-0.56,-0.5564,-0.5591,-0.5602,-0.5578,-0.5621,-0.5602,-0.5493,-0.548,-0.5972,-0.7124,-0.9473,-1.1379,-1.2702,-1.5601,-1.7289,-1.7423,-1.8094,-1.8542,-1.8597,-1.8843,-1.873,3.0897,2.9583,2.9613,3.2506,3.3961,3.4881,3.6285,3.7107,3.7827,3.8768,3.6221,3.3905,3.4187,3.1284,2.8958,2.9489,2.9586,2.9815,3.0503,2.9903,2.7806,2.4041,2.2978,2.0858,1.7134,1.6707,1.6748,1.6904,1.6917,1.6937,1.6978,1.6978,1.6978,1.6978,1.6978,1.6978,1.6978,1.6341,1.4007,1.0196,0.956,0.7231,0.3411,0.3403,0.3388,0.3365,0.3326,0.3315,0.3324,0.2693,0.1451,-0.0,-0.0,-0.0,-0.0,-0.0,-0.0,-0.0,-0.0,-0.0,-0.0,-0.0,-0.0211,-0.084,-0.228,-0.3076,-0.3251,-0.3221,-0.3197,-0.3178,-0.317,-0.3161,-0.3156,-0.3156,-0.3131,-0.3101,-0.3071,-0.3058,-0.3046,-0.3024,-0.3013,-0.301,-0.3018,-0.3181,-0.3337,-0.3864,-0.4191,-0.4859,-0.5486,-0.5635,-0.5608,-0.5564,-0.5613,-0.5651,-0.5651,-0.5651,-0.5638,-0.561,-0.5556,-0.6381,-0.8264,-1.0144,-1.1874,-1.3824,-1.622,-1.7526,-1.7724,-1.828,-1.8708,-1.8843,-1.891,-1.8947,2.78,2.9768,3.2364,3.4208,3.6281,3.7929,3.9077,3.9642,4.0036,4.0429,3.7091,3.411,3.4124,3.0996,2.8403,2.8946,2.9031,2.9405,3.0455,2.8495,2.585,2.3605,2.1235,1.8853,0.0,1.6361,1.6592,1.6748,1.6754,1.6822,1.6971,1.6978,1.6978,1.6978,1.6978,1.6978,1.6978,1.485,1.252,1.0196,0.7865,0.5744,0.3411,0.3381,0.3367,0.3363,0.3306,0.3298,0.3322,0.1029,-0.0,-0.0,-0.0,-0.0,-0.0,-0.0,-0.0,-0.0,-0.0,-0.0,-0.0,-0.0,-0.0847,-0.1683,-0.1682,-0.2506,-0.3311,-0.3281,-0.3272,-0.3265,-0.3235,-0.3208,-0.3187,-0.3187,-0.3164,-0.3133,-0.3103,-0.3073,-0.3052,-0.3051,-0.3026,-0.3016,-0.3046,-0.3405,-0.3945,-0.4316,-0.4837,-0.512,-0.4967,-0.5425,-0.5561,-0.5559,-0.5613,-0.5651,-0.5651,-0.5651,-0.5676,-0.573,-0.5679,-0.6523,-0.8277,-1.0199,-1.2056,-1.3653,-1.639,-1.7935,-1.7926,-1.8965,-1.9477,-1.9288,-1.9477,-1.9354,3.1357,3.3646,3.6124,3.7508,3.8873,3.9864,4.0755,4.0857,4.0755,4.0618,3.6562,3.288,3.288,2.9375,2.6918,2.7811,2.8403,2.9127,3.0202,2.7894,2.5387,2.3168,2.0738,0.0,0.0,0.0,0.0,1.6714,1.6748,1.6815,1.6971,1.6978,1.6978,1.6978,1.6978,1.6341,1.485,1.4002,1.1671,0.7865,0.5534,0.4036,0.3381,0.335,0.3326,0.3306,0.3266,0.2441,0.1019,0.0407,-0.0,-0.0,-0.0,-0.0,-0.0,-0.0,-0.0,-0.0,-0.0,-0.0,-0.0213,-0.1706,-0.2553,-0.2756,-0.2741,-0.3149,-0.3344,-0.3314,-0.3291,-0.3273,-0.3264,-0.3238,-0.3216,-0.3216,-0.3194,-0.317,-0.316,-0.3118,-0.3082,-0.3082,-0.3074,-0.3262,-0.3655,-0.3841,-0.4206,-0.4936,-0.5394,-0.5657,-0.5599,-0.5538,-0.5681,-0.5681,-0.5733,-0.5771,-0.5771,-0.5771,-0.6317,-0.7599,-0.6812,-0.8014,-1.2073,-1.1823,-1.2979,-1.5714,-1.7145,-1.7935,-1.7935,-1.8854,-1.9429,-1.9495,-1.9429,-1.9392,3.4174,3.648,3.8812,4.0094,4.084,4.1388,4.2142,4.1816,4.1217,4.0686,3.5907,3.1821,3.1598,2.7682,2.5059,2.6604,2.7208,2.7864,2.8684,2.6431,2.3736,2.156,1.9245,1.7143,0.0,0.0,0.0,1.6469,1.6612,1.6734,1.689,1.6951,1.6978,1.6978,1.6978,1.5914,1.3575,1.2731,1.0192,0.5534,0.4048,0.3396,0.3366,0.2918,0.3099,0.3277,0.2435,0.1212,-0.0,-0.0,-0.0,-0.0,-0.0,-0.0,-0.0,-0.0,-0.0,-0.0,-0.0,-0.0635,-0.1492,-0.2985,-0.3412,-0.3408,-0.3388,-0.3382,-0.3377,-0.3345,-0.3324,-0.3306,-0.3295,-0.3269,-0.3246,-0.3246,-0.3224,-0.3201,-0.319,-0.3157,-0.3127,-0.3116,-0.3298,-0.3487,-0.3887,-0.4277,-0.4645,-0.554,-0.5813,-0.5918,-0.5899,-0.5845,-0.5807,-0.5807,-0.5842,-0.5864,-0.5864,-0.5845,-0.6565,-0.8588,-0.7967,-0.9532,-1.4169,-1.3369,-1.4183,-1.7115,-1.7863,-1.8145,-1.8488,-1.9247,-1.9618,-1.9599,-1.9543,-1.9514,3.6224,3.8289,4.0765,4.2056,4.2399,4.2553,4.3255,4.2484,4.1423,4.0601,3.5521,3.1003,3.0186,0.0,2.2971,2.5325,2.5602,2.5701,2.6245,2.3816,2.1403,1.9088,1.684,1.5425,1.5411,1.5425,0.0,1.6049,0.0,1.6578,1.6741,1.6897,1.6978,1.6978,1.6978,1.5914,1.3364,1.1042,0.765,0.3407,0.3411,0.3395,0.3363,0.2293,0.2274,0.3075,0.1015,-0.0,-0.0,-0.0,-0.0,-0.0,-0.0,-0.0,-0.0,-0.0,-0.0,-0.0,-0.0209,-0.148,-0.341,-0.3411,-0.3412,-0.3412,-0.3412,-0.3412,-0.3405,-0.3377,-0.3367,-0.336,-0.333,-0.33,-0.3277,-0.3276,-0.3254,-0.3225,-0.3197,-0.3189,-0.318,-0.315,-0.351,-0.3885,-0.3919,-0.4906,-0.5656,-0.6117,-0.6098,-0.6076,-0.6016,-0.5959,-0.5924,-0.5927,-0.5924,-0.5924,-0.5932,-0.5872,-0.6772,-0.886,-0.8965,-1.0715,-1.4502,-1.4496,-1.5676,-1.7822,-1.8339,-1.8689,-1.9388,-1.9934,-2.0006,-1.9637,-1.9826,-1.9722,4.109,4.3103,4.509,4.5112,4.435,4.3529,4.3426,4.209,4.005,3.7375,3.2427,2.7939,2.5838,2.3209,2.1957,2.3768,2.5506,0.0,2.6114,2.3846,2.1411,1.9287,1.7113,1.5655,1.5432,1.5608,0.0,0.0,1.6259,1.6476,1.6734,1.6897,1.6978,1.6978,1.6978,1.5066,1.1042,0.7019,0.4444,0.3344,0.339,0.3384,0.3333,0.3139,0.2296,0.0828,0.0206,-0.0,-0.0,-0.0,-0.0,-0.0,-0.0,-0.0,-0.0,-0.0,-0.0,-0.0205,-0.1854,-0.2918,-0.3382,-0.3404,-0.3412,-0.3412,-0.3412,-0.3412,-0.341,-0.3403,-0.3384,-0.3365,-0.3356,-0.3332,-0.3303,-0.3281,-0.3269,-0.3255,-0.3225,-0.3202,-0.3186,-0.3178,-0.3962,-0.4737,-0.5109,-0.5725,-0.6093,-0.6123,-0.6098,-0.606,-0.5959,-0.5932,-0.594,-0.5987,-0.5951,-0.5959,-0.6046,-0.5959,-0.7395,-1.0986,-1.0161,-1.1743,-1.6664,-1.5636,-1.6092,-1.8017,-1.8409,-1.8689,-1.9388,-1.9793,-2.0015,-2.0053,-1.9968,-2.0034,4.3484,4.4937,4.6193,4.583,4.4721,4.3375,4.1988,3.9847,3.7146,3.335,2.8656,2.4625,2.2939,2.1147,2.0521,0.0,0.0,0.0,2.4328,2.3062,2.1199,1.8192,1.6629,1.5791,1.5622,1.5757,1.5947,0.0,1.632,1.6503,1.6734,1.6897,1.6978,1.6978,1.6124,1.3343,0.8661,0.5101,0.3388,0.3341,0.3389,0.3386,0.3341,0.3359,0.2094,-0.0,0.0,-0.0,-0.0,-0.0,-0.0,-0.0,-0.0,-0.0,-0.0,-0.0,-0.0,-0.041,-0.247,-0.3329,-0.3369,-0.3386,-0.3401,-0.3412,-0.3412,-0.3412,-0.3412,-0.3412,-0.34,-0.3386,-0.3386,-0.3363,-0.3337,-0.332,-0.3306,-0.3287,-0.3257,-0.3238,-0.342,-0.3791,-0.4596,-0.5393,-0.574,-0.6172,-0.6349,-0.6164,-0.6136,-0.6085,-0.594,-0.5924,-0.5935,-0.597,-0.5943,-0.5959,-0.6052,-0.5976,-0.7607,-1.1578,-1.1161,-1.2788,-1.7579,-1.6938,-1.7104,-1.8457,-1.881,-1.9071,-1.9606,-2.0149,-2.0289,-2.0214,-2.01,-2.0129,4.4635,4.5443,4.5925,4.5873,4.4522,4.269,3.9754,3.6895,3.3525,2.8927,2.4705,2.1449,2.0629,1.9312,1.9193,2.1921,0.0,2.3799,2.2163,2.1845,2.0315,1.6468,1.5886,1.5886,1.5886,1.59,1.6035,1.632,1.6469,1.6612,1.6741,1.6897,1.6768,1.6551,1.4429,1.1199,0.6924,0.4447,0.339,0.336,0.3392,0.3392,0.3366,0.3159,0.1889,-0.0,0.0,0.0,-0.0,-0.0,-0.0,-0.0,-0.0,-0.0,-0.0,-0.0,-0.0,-0.0205,-0.2486,-0.3134,-0.3367,-0.3371,-0.339,-0.3412,-0.3412,-0.3412,-0.3412,-0.3412,-0.3412,-0.3412,-0.3412,-0.3392,-0.3371,-0.3367,-0.3345,-0.3318,-0.3288,-0.3279,-0.3668,-0.4612,-0.5224,-0.5836,-0.6382,-0.642,-0.6401,-0.6226,-0.6202,-0.6142,-0.5978,-0.5937,-0.5927,-0.5935,-0.5921,-0.5937,-0.6008,-0.5951,-0.7593,-1.1557,-1.1938,-1.3795,-1.7692,-1.7884,-1.8149,-1.8888,-1.928,-1.9559,-2.0116,-2.0482,-2.0639,-2.0261,-2.0233,-2.0138,4.6838,4.6663,4.6663,4.6351,4.492,4.2362,3.8191,3.5064,3.1501,2.4878,2.1612,1.9467,1.8361,1.8227,1.9301,2.2404,2.2921,2.2599,2.2011,2.0492,1.8614,0.0,1.6042,1.6042,1.6042,1.6157,0.0,0.0,0.0,1.672,1.6748,1.6897,1.6131,1.4212,1.1887,0.9518,0.6924,0.4631,0.3359,0.3329,0.3359,0.3371,0.3157,0.1484,0.0425,-0.0,-0.0,0.0,-0.0,-0.0,-0.0,-0.0,-0.0,-0.0,-0.0,-0.0,-0.0,-0.0207,-0.1452,-0.2505,-0.337,-0.3396,-0.3408,-0.3412,-0.3412,-0.3412,-0.3412,-0.3412,-0.3412,-0.3412,-0.3412,-0.3408,-0.3397,-0.3373,-0.3362,-0.3351,-0.332,-0.3705,-0.4091,-0.4689,-0.5271,-0.5836,-0.6382,-0.642,-0.6417,-0.6284,-0.6264,-0.6234,-0.6153,-0.6014,-0.5943,-0.5992,-0.5907,-0.5894,-0.6003,-0.591,-0.7513,-1.163,-1.1819,-1.3651,-1.7507,-1.7689,-1.7952,-1.8693,-1.921,-1.9559,-2.0116,-2.0482,-2.0715,-2.0478,-2.0308,-2.0299,4.6941,4.6941,4.6786,4.6216,4.4429,4.1374,3.5427,0.0,0.0,2.0557,1.7741,1.6266,1.5211,1.5919,0.0,1.8738,1.9543,1.9895,1.9554,1.871,1.7726,1.6192,1.6083,1.611,1.6191,1.6266,1.6402,1.6625,0.0,1.6788,1.6863,1.6937,1.5493,1.1887,1.083,0.8464,0.5041,0.4014,0.3163,0.2508,0.3165,0.2754,0.1483,0.0425,-0.0,-0.0,-0.0,0.0,-0.0,-0.0,-0.0,-0.0,-0.0,-0.0,-0.0,-0.0,-0.0827,-0.1672,-0.1672,-0.2523,-0.3393,-0.3407,-0.3412,-0.3412,-0.3412,-0.3412,-0.3412,-0.3412,-0.3412,-0.3412,-0.3412,-0.3412,-0.3408,-0.3393,-0.3366,-0.3339,-0.3324,-0.3901,-0.4479,-0.4906,-0.5485,-0.6248,-0.6422,-0.6442,-0.6431,-0.6341,-0.6327,-0.6305,-0.6243,-0.6161,-0.6096,-0.606,-0.5978,-0.5976,-0.6096,-0.5995,-0.7631,-1.1684,-1.2009,-1.3864,-1.7869,-1.8157,-1.861,-1.9082,-1.9736,-2.0241,-2.0426,-2.0983,-2.1064,-2.0866,-2.0762,-2.0771,4.6354,4.6594,4.644,4.5532,4.3597,3.9982,3.2806,2.849,2.4003,1.6959,1.4422,1.3286,1.2866,1.3739,1.4687,0.0,1.6284,1.6992,1.7254,1.6912,1.656,1.6089,1.6062,0.0,1.6293,1.6341,0.0,1.6727,0.0,0.0,1.6971,1.6551,1.4429,1.0407,0.9772,0.7417,0.3377,0.3393,0.2969,0.1899,0.2545,0.1702,-0.0,-0.0,-0.0,-0.0,-0.0,0.0,0.0,-0.0,-0.0,-0.0,-0.0,-0.0,-0.0,-0.0618,-0.1873,-0.3375,-0.2321,-0.2755,-0.3412,-0.3412,-0.3412,-0.3412,-0.3412,-0.3412,-0.3412,-0.3412,-0.3412,-0.3412,-0.3412,-0.3412,-0.341,-0.3404,-0.336,-0.3321,-0.3321,-0.4098,-0.487,-0.4904,-0.5688,-0.6461,-0.6461,-0.6461,-0.6444,-0.6398,-0.639,-0.6373,-0.6324,-0.6319,-0.6281,-0.6185,-0.6101,-0.6087,-0.618,-0.6093,-0.7767,-1.1889,-1.2194,-1.4077,-1.8198,-1.8827,-1.9091,-1.942,-2.0422,-2.0718,-2.0718,-2.1283,-2.1367,-2.1168,-2.1168,-2.1168,4.5293,4.6012,4.5943,4.4505,4.2433,3.8703,3.1077,0.0,2.2871,1.5588,1.2882,1.2122,1.2715,1.2697,0.0,0.0,0.0,1.4843,1.6875,1.5719,1.5018,1.5764,0.0,0.0,1.6293,1.6429,1.6571,1.6734,0.0,0.0,1.6978,1.506,1.2731,1.0196,0.8289,0.5955,0.3408,0.3382,0.3384,0.3194,0.1268,0.0211,-0.0,-0.0,-0.0,-0.0,-0.0,0.0,0.0,-0.0,-0.0,-0.0,-0.0,-0.0,-0.021,-0.2309,-0.3168,-0.3408,-0.3194,-0.341,-0.3412,-0.3412,-0.3412,-0.3412,-0.3412,-0.3412,-0.3412,-0.3412,-0.3412,-0.3412,-0.3412,-0.3412,-0.3405,-0.3377,-0.3345,-0.3321,-0.3321,-0.4117,-0.4906,-0.4911,-0.5688,-0.6461,-0.6461,-0.6461,-0.6461,-0.6452,-0.6452,-0.645,-0.6444,-0.6444,-0.6442,-0.6428,-0.6275,-0.6177,-0.6188,-0.6128,-0.7795,-1.1778,-1.2145,-1.4034,-1.8014,-1.8752,-1.9031,-1.9217,-2.035,-2.0718,-2.0718,-2.1283,-2.1367,-2.1168,-2.1168,-2.1168,4.5019,4.6097,4.6149,4.4419,4.1672,3.7516,3.0426,2.5787,2.1146,1.4908,1.2517,1.142,1.1283,1.066,1.0454,0.0,0.0,0.0,1.3364,1.3099,1.337,1.4991,1.5391,0.0,0.0,0.0,1.6625,0.0,0.0,0.0,1.6978,1.6131,1.4007,1.0407,0.9349,0.7019,0.3412,0.2762,0.2762,0.3412,0.1062,-0.0,-0.0,-0.0,-0.0,-0.0,-0.0,0.0,0.0,-0.0,-0.0,-0.0,-0.0,-0.0,-0.021,-0.1052,-0.2117,-0.3412,-0.3412,-0.3412,-0.3412,-0.3412,-0.3412,-0.3412,-0.3412,-0.3412,-0.3412,-0.3412,-0.3412,-0.3412,-0.3412,-0.3412,-0.3404,-0.3374,-0.3343,-0.3321,-0.3321,-0.4103,-0.488,-0.4906,-0.5688,-0.6461,-0.6461,-0.6461,-0.6461,-0.6461,-0.6461,-0.6461,-0.6461,-0.6461,-0.6461,-0.6461,-0.6363,-0.6313,-0.6349,-0.6297,-0.8029,-1.2374,-1.2504,-1.4435,-1.8624,-1.9496,-2.0098,-2.0087,-2.1256,-2.177,-2.1457,-2.1839,-2.1801,-2.1726,-2.1603,-2.1612,4.4299,4.5721,4.5858,4.4094,4.0574,3.5874,2.9821,2.4525,1.9496,1.4564,1.2104,1.0763,1.021,0.9131,0.8411,0.0,0.0,0.9157,1.0941,1.1477,1.2311,1.4014,0.0,1.5079,0.0,1.6422,1.6748,0.0,0.0,0.0,1.6978,1.6978,1.4856,1.0407,0.956,0.7231,0.3412,0.2558,0.2345,0.2345,0.1492,0.0639,-0.0,-0.0,-0.0,-0.0,-0.0,0.0,0.0,-0.0,-0.0,-0.0,-0.0,-0.0,-0.0,-0.0423,-0.1485,-0.2985,-0.3199,-0.3412,-0.3412,-0.3412,-0.3412,-0.3412,-0.3412,-0.3412,-0.3412,-0.3412,-0.3412,-0.3412,-0.3412,-0.3405,-0.3393,-0.3371,-0.3343,-0.3321,-0.3528,-0.4315,-0.4892,-0.5113,-0.5905,-0.6482,-0.6463,-0.6461,-0.6461,-0.6461,-0.6461,-0.6461,-0.6461,-0.6477,-0.6488,-0.6488,-0.645,-0.6433,-0.6461,-0.6422,-0.8207,-1.2658,-1.2776,-1.4749,-1.905,-2.0115,-2.0498,-2.0817,-2.1612,-2.2098,-2.2094,-2.2094,-2.2056,-2.2,-2.1858,-2.1867,4.2775,4.4556,4.4762,4.3255,3.8836,3.3565,2.9086,2.3473,1.8129,1.4328,1.1561,0.9923,0.9923,0.8512,0.7468,0.7767,0.0,0.0,1.0575,1.1362,1.2115,0.0,0.0,1.4,1.4903,1.6191,0.0,0.0,0.0,0.0,1.6978,1.6978,1.4856,1.0407,0.8077,0.5747,0.3412,0.3412,0.2345,-0.0,0.2345,0.2132,-0.0,-0.0,-0.0,0.0,0.0,0.0,0.0,-0.0,-0.0,-0.0,-0.0,-0.0,-0.0213,-0.1279,-0.1705,-0.1919,-0.2985,-0.3412,-0.3412,-0.3412,-0.3412,-0.3412,-0.3412,-0.3412,-0.3412,-0.3412,-0.3412,-0.3412,-0.3412,-0.3389,-0.3367,-0.3366,-0.3343,-0.3528,-0.4152,-0.4565,-0.517,-0.5535,-0.6142,-0.6531,-0.6472,-0.6461,-0.6461,-0.6461,-0.6461,-0.6461,-0.6461,-0.6512,-0.6551,-0.6551,-0.6551,-0.6526,-0.6466,-0.6461,-0.8263,-1.2663,-1.2857,-1.4856,-1.9058,-1.984,-2.0235,-2.0826,-2.1415,-2.1707,-2.2094,-2.2094,-2.199,-2.1792,-2.1792,-2.1792,3.6542,3.7825,3.765,3.5925,3.2201,2.8232,2.4862,2.0657,1.651,1.3274,1.1107,0.9662,0.9061,0.7974,0.7516,0.8431,0.8818,0.0,0.0,0.0,0.0,1.2569,1.4129,1.5425,0.0,0.0,0.0,0.0,0.0,0.0,1.6978,1.6978,1.4856,1.0407,0.956,0.7231,0.3412,0.3412,0.2345,-0.0,0.0639,0.0639,-0.0,-0.0,-0.0,0.0,0.0,0.0,0.0,-0.0,-0.0,-0.0,-0.0,-0.0,-0.0213,-0.2132,-0.2772,-0.2985,-0.3199,-0.3412,-0.3412,-0.3412,-0.3412,-0.3412,-0.3412,-0.3412,-0.3412,-0.3412,-0.3412,-0.3412,-0.3412,-0.3405,-0.3397,-0.3397,-0.3374,-0.3562,-0.3982,-0.4586,-0.5183,-0.5581,-0.6198,-0.6602,-0.6583,-0.6581,-0.6581,-0.6581,-0.6548,-0.6523,-0.6523,-0.654,-0.6537,-0.6496,-0.6526,-0.6545,-0.6526,-0.6485,-0.8263,-1.2663,-1.2863,-1.4856,-1.9058,-1.9928,-2.0498,-2.0817,-2.1475,-2.1891,-2.1886,-2.2028,-2.1915,-2.1574,-2.1726,-2.1716,3.1969,3.3364,3.3289,3.1437,2.8029,2.4652,2.2384,1.8454,1.4619,1.2494,1.0662,0.9235,0.8632,0.7805,0.7475,0.8228,0.8723,0.0,0.0,0.0,0.0,1.2651,0.0,0.0,0.0,0.0,0.0,0.0,0.0,0.0,1.6978,1.6978,1.5277,1.1676,1.0619,0.8501,0.5113,0.3623,0.2345,0.1279,0.0426,-0.0,-0.0,-0.0,-0.0,0.0,0.0,0.0,0.0,-0.0,-0.0,-0.0,-0.0,-0.0426,-0.1492,-0.2345,-0.2985,-0.3412,-0.3412,-0.3412,-0.3412,-0.3412,-0.3412,-0.3412,-0.3412,-0.3412,-0.3412,-0.3412,-0.3412,-0.3412,-0.3412,-0.3412,-0.3412,-0.3412,-0.3397,-0.3595,-0.444,-0.4841,-0.5234,-0.6051,-0.6462,-0.6662,-0.664,-0.6635,-0.6635,-0.6635,-0.6605,-0.6583,-0.6583,-0.6602,-0.6605,-0.6564,-0.6594,-0.6619,-0.6619,-0.6521,-0.8263,-1.2663,-1.2814,-1.48,-1.9058,-1.986,-2.0402,-2.072,-2.1375,-2.176,-2.1669,-2.1792,-2.1763,-2.1593,-2.1641,-2.1603,0.0,3.0518,3.0607,2.8881,2.5432,2.2201,2.1046,1.6712,0.0,1.2113,1.0126,0.8464,0.84,0.7908,0.74,0.7482,0.8459,0.0,0.0,1.0412,0.0,0.0,1.3987,0.0,0.0,0.0,0.0,0.0,0.0,0.0,1.6978,1.6978,1.6124,1.4002,1.1676,0.956,0.7656,0.3834,0.2345,0.3198,0.1066,-0.0,-0.0,-0.0,-0.0,0.0,0.0,0.0,0.0,-0.0,-0.0,-0.0,-0.0213,-0.1492,-0.3199,-0.2132,-0.2558,-0.3412,-0.3412,-0.3412,-0.3412,-0.3412,-0.3412,-0.3412,-0.3412,-0.3412,-0.3412,-0.3412,-0.3412,-0.3412,-0.3412,-0.3412,-0.3412,-0.3412,-0.3412,-0.3837,-0.4902,-0.5115,-0.5528,-0.6534,-0.6733,-0.6717,-0.666,-0.6649,-0.6649,-0.6649,-0.6646,-0.6643,-0.6643,-0.6692,-0.6725,-0.6719,-0.6725,-0.6725,-0.6719,-0.6564,-0.8273,-1.2474,-1.2754,-1.4521,-1.8853,-1.9648,-2.013,-2.0544,-2.1099,-2.1293,-2.1518,-2.1499,-2.1593,-2.1782,-2.1584,-2.148,2.0293,0.0,2.227,2.0473,1.8664,1.7161,0.0,1.4483,1.2299,1.1261,0.9687,0.8359,0.7908,0.7611,0.7672,0.8587,0.0,0.0,0.9985,0.0,0.0,1.4841,1.5418,1.594,0.0,0.0,0.0,0.0,0.0,1.6978,0.0,1.6978,1.6768,1.6131,1.358,0.9553,0.4464,0.3408,0.2345,0.0853,0.0213,-0.0,-0.0,-0.0,-0.0,0.0,0.0,0.0,-0.0,-0.0,-0.0,-0.0213,-0.1919,-0.2985,-0.3412,-0.3198,-0.3198,-0.3412,-0.3412,-0.3412,-0.3412,-0.3412,-0.3412,-0.3412,-0.3412,-0.3412,-0.3412,-0.3412,-0.3412,-0.3412,-0.3412,-0.3412,-0.3412,-0.3412,-0.3837,-0.4261,-0.4902,-0.5541,-0.5964,-0.6586,-0.6796,-0.6793,-0.6777,-0.6774,-0.6774,-0.6774,-0.6736,-0.6706,-0.6706,-0.6717,-0.6709,-0.6662,-0.6698,-0.6709,-0.6662,-0.6581,-0.7744,-1.0978,-1.2284,-1.4229,-1.7261,-1.9134,-2.0193,-2.0544,-2.121,-2.1536,-2.1943,-2.1792,-2.1745,-2.1792,-2.1735,-2.1546,1.7008,1.7728,1.8517,1.6806,1.6088,1.5443,1.4523,1.2931,1.1321,1.0086,0.882,0.7745,0.754,0.7482,0.7733,0.8513,0.9191,0.0,0.0,0.0,1.3627,1.5513,1.594,0.0,0.0,0.0,0.0,0.0,0.0,0.0,0.0,1.691,1.691,1.6978,1.5234,1.1629,0.6578,0.3829,0.1704,-0.0,-0.0,-0.0,-0.0,-0.0,-0.0,0.0,0.0,0.0,-0.0,-0.0,-0.0,-0.0213,-0.2558,-0.3412,-0.3412,-0.3412,-0.3412,-0.3412,-0.3412,-0.3403,-0.3389,-0.3374,-0.338,-0.3388,-0.3374,-0.3389,-0.3412,-0.3412,-0.3412,-0.3412,-0.3412,-0.3412,-0.3412,-0.3412,-0.3837,-0.4474,-0.4902,-0.5543,-0.6182,-0.6605,-0.6818,-0.6818,-0.6818,-0.6818,-0.6818,-0.6818,-0.679,-0.6769,-0.6769,-0.6769,-0.6755,-0.6722,-0.6749,-0.6755,-0.6722,-0.6665,-0.7648,-1.0065,-1.1949,-1.3884,-1.6357,-1.9021,-2.0588,-2.1183,-2.1358,-2.1489,-2.1801,-2.1697,-2.1697,-2.1792,-2.1688,-2.1527,1.6252,1.6777,1.7365,1.5741,1.5575,1.5315,1.3591,1.197,1.0362,0.9192,0.8027,0.7272,0.7475,0.7631,0.7862,0.0,0.0,0.0,1.2698,1.3241,1.4048,1.575,0.0,0.0,0.0,0.0,0.0,0.0,0.0,0.0,0.0,1.6788,1.6775,1.6701,1.5983,1.407,1.0748,0.5936,0.234,-0.0,-0.0,-0.0,-0.0,-0.0,-0.0,0.0,0.0,0.0,-0.0,-0.0,-0.0,-0.0213,-0.2345,-0.3199,-0.3412,-0.3412,-0.3412,-0.3411,-0.3407,-0.3385,-0.3355,-0.3329,-0.3339,-0.3355,-0.3329,-0.336,-0.3405,-0.3405,-0.3408,-0.3412,-0.3412,-0.3412,-0.3412,-0.3412,-0.3837,-0.4474,-0.4902,-0.5541,-0.6182,-0.6818,-0.6818,-0.6818,-0.6818,-0.6818,-0.6818,-0.6818,-0.6818,-0.6818,-0.6818,-0.6818,-0.6818,-0.6818,-0.6818,-0.6818,-0.6818,-0.6771,-0.7555,-0.915,-1.1411,-1.3913,-1.6599,-1.9134,-2.1036,-2.1792,-2.1414,-2.131,-2.1518,-2.1518,-2.1612,-2.1792,-2.1631,-2.1527,1.6225,1.6305,1.6209,1.4835,1.4714,1.4501,1.3149,1.1874,1.0612,0.9543,0.837,0.7651,0.8058,0.8248,0.8608,0.0,0.0,1.2108,0.0,0.0,1.4977,0.0,0.0,0.0,0.0,0.0,0.0,0.0,0.0,0.0,0.0,1.6571,1.6366,1.5982,1.5346,1.4464,1.3338,1.2216,0.7878,-0.0,-0.0,-0.0,-0.0,-0.0,-0.0,0.0,0.0,-0.0,-0.0,-0.0,-0.0,-0.0213,-0.1492,-0.2558,-0.3412,-0.3412,-0.3412,-0.3408,-0.3382,-0.3354,-0.3328,-0.3322,-0.3324,-0.3326,-0.3322,-0.3345,-0.3373,-0.3373,-0.3392,-0.3412,-0.3412,-0.3412,-0.3412,-0.3412,-0.4263,-0.4902,-0.5115,-0.5967,-0.6605,-0.6818,-0.6818,-0.6818,-0.6818,-0.6818,-0.6818,-0.6818,-0.6818,-0.6818,-0.6818,-0.6818,-0.6818,-0.6818,-0.6818,-0.6818,-0.6818,-0.6809,-0.7011,-0.7211,-1.0741,-1.4931,-1.9656,-2.0182,-2.0843,-2.1792,-2.1546,-2.1527,-2.1745,-2.1745,-2.1763,-2.1792,-2.1934,-2.1811,1.5008,1.5108,1.5234,1.5354,1.5692,1.5553,1.369,1.283,1.1885,1.0015,0.9139,0.8728,0.8419,0.0,0.9754,1.1056,0.0,1.301,1.4326,1.478,1.5337,0.0,0.0,0.0,0.0,0.0,0.0,0.0,0.0,0.0,0.0,0.0,1.6239,1.5712,1.5023,1.4578,1.3973,1.3487,1.1249,0.7283,0.2289,-0.0,-0.0,-0.0,-0.0,-0.0,0.0,-0.0,-0.0,-0.0,-0.0639,-0.1919,-0.1706,-0.2345,-0.3412,-0.3412,-0.3401,-0.3382,-0.3352,-0.3322,-0.3294,-0.3277,-0.3283,-0.3294,-0.3277,-0.3315,-0.3363,-0.3347,-0.3375,-0.3412,-0.3412,-0.3412,-0.3411,-0.3837,-0.4476,-0.5115,-0.5543,-0.6179,-0.6818,-0.6818,-0.6818,-0.6818,-0.6818,-0.6818,-0.6818,-0.6818,-0.6818,-0.6818,-0.6818,-0.6818,-0.6818,-0.6818,-0.6818,-0.6818,-0.6818,-0.6818,-0.7859,-1.0126,-1.2023,-1.5278,-2.0672,-2.0659,-2.0888,-2.1952,-2.1754,-2.1688,-2.1792,-2.1792,-2.1792,-2.1792,-2.1886,-2.183,1.4315,1.428,1.4775,1.5994,1.6513,1.6386,1.4987,1.4137,1.3062,1.1078,1.0298,0.964,0.0,0.9788,0.0,1.2332,1.3139,1.3858,1.4618,1.5079,0.0,0.0,0.0,0.0,0.0,0.0,0.0,0.0,0.0,0.0,0.0,0.0,1.5903,1.5405,1.4892,1.425,1.3683,1.3189,1.2999,1.3096,0.633,0.205,-0.0,-0.0,-0.0,-0.0,-0.0,-0.0,-0.0,-0.0639,-0.1919,-0.3412,-0.2345,-0.2558,-0.3411,-0.3404,-0.3382,-0.3351,-0.3321,-0.3291,-0.3261,-0.3238,-0.3246,-0.3261,-0.3238,-0.3284,-0.3341,-0.3325,-0.3359,-0.3403,-0.341,-0.3412,-0.3624,-0.4261,-0.4687,-0.5328,-0.5969,-0.6395,-0.6818,-0.6818,-0.6818,-0.6818,-0.6818,-0.6818,-0.6818,-0.6818,-0.6818,-0.6818,-0.6818,-0.6818,-0.6818,-0.6818,-0.6818,-0.6818,-0.6818,-0.6818,-0.8484,-1.2395,-1.29,-1.543,-2.0325,-2.0637,-2.1244,-2.216,-2.1962,-2.1858,-2.1858,-2.1858,-2.1858,-2.1867,-2.1905,-2.1905,1.4969,1.5017,1.5246,1.6079,1.5946,1.6005,1.7337,1.534,1.3314,1.344,1.1553,1.0074,1.012,1.1118,1.2094,1.2623,1.3912,0.0,0.0,0.0,0.0,0.0,0.0,0.0,0.0,0.0,0.0,0.0,0.0,0.0,0.0,0.0,0.0,1.4707,1.4495,1.3982,1.2591,1.258,1.2551,1.2684,1.2272,0.7967,-0.0,-0.0,-0.0,-0.0,-0.0,-0.0,-0.0211,-0.2338,-0.3199,-0.3412,-0.3412,-0.3412,-0.3408,-0.338,-0.3351,-0.332,-0.329,-0.3258,-0.3232,-0.3231,-0.3231,-0.3232,-0.3231,-0.3254,-0.3287,-0.3314,-0.3344,-0.3377,-0.3404,-0.3412,-0.3624,-0.4261,-0.4687,-0.5328,-0.5969,-0.6395,-0.6818,-0.6818,-0.6818,-0.6818,-0.6818,-0.6818,-0.6818,-0.6818,-0.6818,-0.6818,-0.6818,-0.6818,-0.6818,-0.6818,-0.6818,-0.6818,-0.6818,-0.6818,-0.7871,-1.0187,-1.2604,-1.5526,-1.8706,-2.0682,-2.1983,-2.2368,-2.217,-2.2066,-2.2066,-2.2066,-2.2066,-2.2075,-2.2264,-2.2245,1.4025,1.4481,1.5246,1.6863,1.654,1.632,1.8175,1.6542,1.49,1.5666,1.3915,1.2182,1.1646,0.0,1.2718,1.3444,0.0,0.0,0.0,0.0,0.0,0.0,0.0,0.0,0.0,0.0,0.0,0.0,0.0,0.0,0.0,0.0,0.0,1.4476,1.4476,1.3994,1.2645,1.2569,1.2569,1.2438,1.2524,1.1026,0.7897,0.5311,0.39,0.3904,0.1245,-0.0833,-0.2085,-0.2949,-0.2961,-0.2327,-0.3191,-0.3412,-0.3411,-0.3399,-0.3363,-0.332,-0.3307,-0.3272,-0.323,-0.323,-0.323,-0.323,-0.323,-0.3251,-0.3281,-0.3313,-0.3343,-0.3373,-0.3404,-0.3624,-0.405,-0.4689,-0.5328,-0.5756,-0.6395,-0.6605,-0.6818,-0.6818,-0.6818,-0.6818,-0.6818,-0.6818,-0.6818,-0.6818,-0.6818,-0.6818,-0.6818,-0.6818,-0.6818,-0.6818,-0.6818,-0.6818,-0.6818,-0.6818,-0.7665,-0.9572,-1.241,-1.5409,-1.8186,-2.0627,-2.2075,-2.2595,-2.2387,-2.2274,-2.2274,-2.2274,-2.2274,-2.2274,-2.2359,-2.2349,1.3601,1.4112,1.5028,1.6899,1.6796,1.6754,1.8834,1.7285,1.578,1.7511,1.5537,1.3253,1.2505,1.2678,0.0,0.0,0.0,0.0,0.0,0.0,0.0,0.0,0.0,0.0,0.0,0.0,0.0,0.0,0.0,0.0,0.0,0.0,0.0,0.0,1.4235,1.3761,1.2651,1.2536,1.2455,1.2411,1.2471,1.2602,1.2808,0.971,0.8539,0.8343,0.5339,0.1442,-0.289,-0.2919,-0.2516,-0.2316,-0.3188,-0.3412,-0.341,-0.339,-0.3356,-0.3318,-0.3299,-0.3265,-0.323,-0.323,-0.323,-0.323,-0.323,-0.3245,-0.3268,-0.3298,-0.3329,-0.3359,-0.3601,-0.3829,-0.4263,-0.4902,-0.5328,-0.5969,-0.6605,-0.6818,-0.6818,-0.6818,-0.6818,-0.6812,-0.6793,-0.679,-0.679,-0.679,-0.679,-0.6796,-0.6815,-0.6818,-0.6818,-0.6818,-0.6818,-0.6818,-0.6818,-0.6818,-0.7456,-0.873,-1.2235,-1.5295,-1.796,-2.0815,-2.245,-2.2718,-2.2567,-2.2453,-2.2387,-2.2387,-2.2387,-2.2387,-2.2387,-2.2387,1.3963,1.4124,1.463,1.597,1.6312,1.6939,1.9333,1.739,1.5804,1.9112,1.6251,1.2881,1.2569,1.3003,1.3505,1.3797,1.4855,0.0,0.0,0.0,0.0,0.0,0.0,0.0,0.0,0.0,0.0,0.0,0.0,0.0,0.0,0.0,0.0,0.0,1.3761,1.3239,1.2536,1.2417,1.2417,1.2531,1.2411,1.2428,1.2574,1.2808,1.2922,1.295,1.2866,0.7359,-0.1432,-0.1444,-0.2292,-0.3369,-0.34,-0.3411,-0.3404,-0.3344,-0.3321,-0.3311,-0.3251,-0.3231,-0.323,-0.323,-0.323,-0.323,-0.323,-0.323,-0.3236,-0.3266,-0.3298,-0.3536,-0.3989,-0.3812,-0.3624,-0.4902,-0.5115,-0.5328,-0.6605,-0.6818,-0.6818,-0.6818,-0.6818,-0.6799,-0.6739,-0.6728,-0.6728,-0.6728,-0.6728,-0.6749,-0.6809,-0.6818,-0.6818,-0.6818,-0.6818,-0.6818,-0.6818,-0.6818,-0.703,-0.7665,-1.1882,-1.54,-1.7348,-2.1268,-2.3143,-2.2727,-2.2708,-2.2605,-2.2387,-2.2387,-2.2387,-2.2387,-2.2387,-2.2387,1.3636,1.4648,1.6079,1.7587,1.826,1.9086,2.0994,1.8698,1.6325,1.6583,1.5077,1.381,1.3498,1.3682,0.0,1.4129,1.4991,0.0,0.0,0.0,0.0,0.0,0.0,0.0,0.0,0.0,0.0,0.0,0.0,0.0,0.0,0.0,0.0,0.0,1.3563,1.3239,1.2536,1.2417,1.2373,1.2411,1.2455,1.2591,1.2792,1.2776,1.2819,1.2906,1.2346,1.013,0.6682,0.3272,0.1032,-0.0,-0.1262,-0.1683,-0.1883,-0.2932,-0.3326,-0.3287,-0.3268,-0.3247,-0.323,-0.323,-0.323,-0.323,-0.323,-0.323,-0.3236,-0.3266,-0.3283,-0.3508,-0.3982,-0.4006,-0.4232,-0.5534,-0.5756,-0.5969,-0.6605,-0.6818,-0.6818,-0.6818,-0.6818,-0.6812,-0.6793,-0.679,-0.679,-0.679,-0.679,-0.6799,-0.6815,-0.6818,-0.6818,-0.6818,-0.6779,-0.6771,-0.6815,-0.6779,-0.7173,-0.8223,-1.239,-1.5332,-1.6439,-2.0505,-2.2794,-2.2926,-2.2784,-2.2605,-2.2387,-2.2387,-2.2387,-2.2387,-2.2387,-2.2387,1.4536,1.5851,1.7479,1.9072,2.0239,2.0946,2.1382,1.9265,1.6829,1.5466,1.476,1.4346,1.4224,1.4224,0.0,1.4529,0.0,0.0,0.0,0.0,0.0,0.0,0.0,0.0,0.0,0.0,0.0,0.0,0.0,0.0,0.0,0.0,0.0,0.0,1.3291,1.297,1.2466,1.2341,1.2308,1.2357,1.2428,1.2585,1.2814,1.2786,1.2819,1.2884,1.1848,1.0609,0.8979,0.5441,0.3254,0.2051,0.0829,0.0416,0.0207,-0.1663,-0.248,-0.2455,-0.3057,-0.3246,-0.323,-0.323,-0.323,-0.323,-0.323,-0.323,-0.3234,-0.3253,-0.3266,-0.3489,-0.4358,-0.4383,-0.441,-0.574,-0.5969,-0.6182,-0.6605,-0.6799,-0.6782,-0.6782,-0.6782,-0.6774,-0.6749,-0.6766,-0.6782,-0.6782,-0.6801,-0.6818,-0.6818,-0.6796,-0.6782,-0.6782,-0.6749,-0.673,-0.6744,-0.6733,-0.7136,-0.7944,-1.2068,-1.5014,-1.5989,-2.0488,-2.2831,-2.302,-2.2888,-2.2727,-2.2519,-2.2434,-2.2387,-2.2387,-2.2387,-2.2387,1.6018,1.731,1.8782,2.0412,2.1602,2.2168,2.0918,1.9001,1.7042,1.5528,1.4855,1.4618,1.4753,1.4665,1.4672,0.0,0.0,0.0,0.0,0.0,0.0,0.0,0.0,0.0,0.0,0.0,0.0,0.0,0.0,0.0,0.0,0.0,0.0,1.3482,1.2775,1.2466,1.2357,1.2232,1.2232,0.0,1.2357,1.2471,1.2694,1.2814,1.2873,1.2663,1.1159,0.928,0.7052,0.5737,0.4591,0.342,0.2641,0.246,0.2269,0.0205,-0.0613,-0.0816,-0.2426,-0.3024,-0.3024,-0.3227,-0.3227,-0.3227,-0.323,-0.323,-0.323,-0.323,-0.325,-0.3476,-0.4502,-0.4532,-0.458,-0.5719,-0.5959,-0.6174,-0.6605,-0.6771,-0.6728,-0.6728,-0.6728,-0.6709,-0.6654,-0.6695,-0.6736,-0.6736,-0.6782,-0.6815,-0.6809,-0.676,-0.6725,-0.6719,-0.6714,-0.669,-0.664,-0.6681,-0.6895,-0.7463,-1.1554,-1.4663,-1.5802,-2.0585,-2.3209,-2.302,-2.2992,-2.2888,-2.268,-2.2491,-2.2387,-2.2387,-2.2387,-2.2387,1.5731,1.7563,1.9652,2.1462,2.1424,2.0793,2.1048,1.828,1.5702,1.5362,1.5106,1.5045,1.5079,1.5059,0.0,0.0,0.0,0.0,0.0,0.0,0.0,0.0,0.0,0.0,0.0,0.0,0.0,0.0,0.0,0.0,0.0,0.0,0.0,1.277,1.2455,1.2379,1.2357,1.2232,1.2232,0.0,1.2357,1.2433,1.2574,1.2694,1.2347,1.1352,1.0263,0.9033,0.8232,0.7469,0.7092,0.6713,0.518,0.4806,0.4616,0.2422,0.1618,0.1414,-0.0601,-0.1397,-0.1597,-0.2797,-0.3197,-0.3201,-0.3224,-0.323,-0.323,-0.323,-0.3235,-0.3449,-0.4086,-0.4509,-0.4939,-0.562,-0.5876,-0.613,-0.6597,-0.6771,-0.6728,-0.6728,-0.6728,-0.6722,-0.6709,-0.6758,-0.6799,-0.6799,-0.6809,-0.6801,-0.6752,-0.6736,-0.6709,-0.666,-0.6616,-0.6602,-0.6632,-0.6608,-0.6583,-0.6777,-1.1643,-1.444,-1.4762,-1.9654,-2.2654,-2.3011,-2.286,-2.2671,-2.2463,-2.2416,-2.2387,-2.2387,-2.2387,-2.2387,1.6416,1.8312,2.0521,2.3273,2.2268,2.0561,2.1168,1.8208,1.5181,1.5181,1.5181,1.5181,1.5181,0.0,0.0,0.0,0.0,0.0,0.0,0.0,0.0,0.0,0.0,0.0,0.0,0.0,0.0,0.0,0.0,0.0,0.0,1.321,1.2802,1.2362,1.2243,1.215,1.2096,1.2036,1.2063,1.2178,1.2237,1.2165,1.2142,1.2258,1.186,1.0978,1.0188,0.9359,0.8896,0.851,0.8536,0.8379,0.7244,0.6883,0.6722,0.4589,0.3794,0.3381,0.0596,-0.0397,-0.079,-0.2572,-0.3167,-0.317,-0.3185,-0.3198,-0.321,-0.321,-0.322,-0.3234,-0.3859,-0.4474,-0.5096,-0.5554,-0.6041,-0.6315,-0.6769,-0.6725,-0.6684,-0.6684,-0.6662,-0.6651,-0.6679,-0.6758,-0.6818,-0.6818,-0.6793,-0.6763,-0.673,-0.6679,-0.6632,-0.66,-0.657,-0.6553,-0.6553,-0.6553,-0.6945,-0.8322,-1.213,-1.5131,-1.6323,-2.0232,-2.2566,-2.2869,-2.2765,-2.2661,-2.2548,-2.2444,-2.2387,-2.2387,-2.2387,-2.2387,1.6815,1.9012,2.145,2.4556,2.2903,0.0,2.089,1.7858,1.5153,1.5174,1.5181,1.5181,0.0,0.0,0.0,0.0,0.0,0.0,0.0,0.0,0.0,0.0,0.0,0.0,0.0,0.0,0.0,0.0,0.0,0.0,1.3614,1.2858,1.2237,1.2112,1.2015,1.1911,1.1819,1.1819,1.1868,1.196,1.2058,1.1842,1.1661,1.1583,1.1163,1.0652,1.0118,0.9675,0.9167,0.915,0.9187,0.9256,0.8868,0.8726,0.842,0.6707,0.5909,0.5492,0.1974,0.0787,0.0391,-0.1958,-0.2742,-0.2744,-0.2945,-0.316,-0.3182,-0.3187,-0.3205,-0.3224,-0.3835,-0.4242,-0.4857,-0.5503,-0.6203,-0.67,-0.6709,-0.6665,-0.6621,-0.6621,-0.6591,-0.6589,-0.6654,-0.6749,-0.6815,-0.6804,-0.6758,-0.6719,-0.67,-0.6613,-0.6548,-0.6537,-0.6537,-0.6515,-0.6466,-0.6507,-0.7522,-1.0253,-1.2835,-1.5671,-1.8605,-2.1075,-2.2472,-2.2652,-2.2661,-2.2661,-2.2652,-2.2482,-2.2387,-2.2387,-2.2387,-2.2387,1.5463,0.0,2.2246,0.0,2.1669,1.9867,0.0,0.0,1.5031,0.0,0.0,0.0,0.0,0.0,0.0,0.0,0.0,0.0,0.0,0.0,0.0,0.0,0.0,0.0,0.0,0.0,0.0,0.0,0.0,0.0,1.297,1.241,1.1982,1.1868,1.1851,1.1835,1.1819,1.1819,1.1824,1.1841,1.1483,1.1186,1.1314,1.0483,1.0226,1.0162,0.9624,0.9212,0.9256,0.9175,0.915,0.9163,0.8972,0.9024,0.9104,0.8339,0.8182,0.7834,0.5056,0.407,0.3484,-0.0,-0.1162,-0.1358,-0.2742,-0.3145,-0.3155,-0.318,-0.3191,-0.32,-0.3224,-0.4038,-0.4849,-0.4855,-0.5711,-0.6589,-0.6638,-0.6602,-0.6564,-0.6564,-0.6597,-0.666,-0.6774,-0.6807,-0.6799,-0.6747,-0.673,-0.669,-0.6589,-0.6561,-0.6531,-0.648,-0.6474,-0.6472,-0.6463,-0.6469,-0.7669,-1.0249,-1.2835,-1.5632,-1.8244,-2.1013,-2.2406,-2.2434,-2.2434,-2.2434,-2.2434,-2.2406,-2.2387,-2.2387,-2.2387,-2.2387,1.5788,1.8127,2.0266,0.0,2.0539,1.8242,1.8093,0.0,1.4862,0.0,0.0,0.0,0.0,0.0,0.0,0.0,0.0,0.0,0.0,0.0,0.0,0.0,0.0,0.0,0.0,0.0,0.0,0.0,0.0,1.3258,1.2627,1.2074,1.1873,1.1819,1.1688,1.1612,1.1612,1.1612,1.165,1.1716,1.1227,1.0916,1.0591,1.0087,0.9843,1.0025,0.9424,0.9183,0.913,0.9138,0.9114,0.9073,0.9122,0.9167,0.9212,0.9068,0.8884,0.8491,0.6373,0.5582,0.4789,0.0958,-0.0383,-0.0768,-0.2508,-0.3104,-0.3123,-0.3155,-0.3175,-0.3195,-0.3223,-0.4038,-0.4847,-0.4847,-0.5673,-0.6507,-0.6531,-0.6545,-0.6542,-0.6507,-0.6575,-0.6643,-0.6665,-0.6722,-0.6747,-0.6684,-0.6649,-0.6611,-0.6559,-0.6523,-0.6491,-0.6463,-0.6461,-0.6461,-0.6461,-0.7065,-0.8862,-1.2437,-1.4235,-1.6814,-2.0397,-2.179,-2.2387,-2.2387,-2.2387,-2.2387,-2.2387,-2.2387,-2.2387,-2.2387,-2.2274,-2.2227,0.0,0.0,1.7211,1.9814,1.8459,1.6568,0.0,0.0,0.0,0.0,0.0,0.0,0.0,0.0,0.0,0.0,0.0,0.0,0.0,0.0,0.0,0.0,0.0,0.0,0.0,0.0,0.0,0.0,0.0,1.2966,1.2312,1.198,1.1792,1.1726,1.1552,1.1455,1.1455,1.1455,1.1498,1.1411,1.0952,1.0638,1.0119,0.9569,0.9477,0.9646,0.9361,0.9146,0.9048,0.9114,0.9089,0.9016,0.9109,0.9142,0.915,0.922,0.9203,0.896,0.7294,0.6705,0.609,0.2284,0.0952,0.019,-0.1906,-0.2876,-0.3092,-0.3123,-0.3153,-0.3183,-0.3412,-0.4031,-0.4847,-0.5049,-0.5856,-0.6461,-0.6461,-0.6496,-0.6521,-0.6491,-0.6556,-0.6605,-0.6578,-0.6646,-0.6684,-0.6624,-0.6578,-0.6545,-0.6531,-0.6491,-0.6461,-0.6461,-0.6461,-0.6461,-0.6461,-0.7465,-0.9861,-1.403,-1.5427,-1.8015,-2.2191,-2.2387,-2.2387,-2.2387,-2.2387,-2.2387,-2.2387,-2.234,-2.2312,-2.2312,-2.2113,-2.2019,0.0,1.3347,0.0,1.4336,1.4993,0.0,0.0,0.0,0.0,0.0,0.0,0.0,0.0,0.0,0.0,0.0,0.0,0.0,0.0,0.0,0.0,0.0,0.0,0.0,0.0,0.0,0.0,0.0,0.0,1.2193,1.1645,1.1754,1.171,1.1482,1.146,1.1455,1.1455,1.1455,1.1277,1.0748,1.0223,0.9922,0.9476,0.8923,0.8795,0.8889,0.8983,0.9065,0.9138,0.9142,0.9089,0.9016,0.9109,0.9142,0.9146,0.915,0.9146,0.8952,0.8383,0.8189,0.7806,0.514,0.3428,0.1715,-0.0381,-0.1908,-0.3061,-0.3092,-0.3122,-0.3152,-0.3777,-0.4414,-0.4847,-0.545,-0.6057,-0.6461,-0.6461,-0.6463,-0.6482,-0.6537,-0.6551,-0.6572,-0.6621,-0.6638,-0.6621,-0.6564,-0.6553,-0.6531,-0.6474,-0.6463,-0.6461,-0.6461,-0.6461,-0.6461,-0.6461,-0.7465,-0.9861,-1.403,-1.5427,-1.8015,-2.2191,-2.2387,-2.2387,-2.2387,-2.2387,-2.2387,-2.2387,-2.2198,-2.2104,-2.2104,-2.1905,-2.1811,1.1255,0.0,0.0,1.326,1.3224,1.2831,0.0,0.0,0.0,0.0,0.0,0.0,0.0,0.0,0.0,0.0,0.0,0.0,0.0,0.0,0.0,0.0,0.0,0.0,0.0,0.0,0.0,0.0,0.0,0.0,1.1406,1.152,1.1547,1.146,1.1455,1.1417,1.134,1.1062,1.0885,1.0636,0.9819,0.9518,0.9375,0.8832,0.8701,0.8783,0.882,0.8852,0.8889,0.9007,0.9003,0.893,0.902,0.9093,0.9142,0.9142,0.9142,0.9142,0.8952,0.8763,0.8569,0.6283,0.495,0.3616,0.0571,-0.0953,-0.1911,-0.2895,-0.3119,-0.3149,-0.3773,-0.4412,-0.5049,-0.6057,-0.6461,-0.6461,-0.6461,-0.6461,-0.6469,-0.6491,-0.6526,-0.6545,-0.6526,-0.6556,-0.6534,-0.6398,-0.6444,-0.6458,-0.6357,-0.6414,-0.6461,-0.6461,-0.6461,-0.6864,-0.7465,-0.9464,-1.2053,-1.5228,-1.7422,-1.9807,-2.2191,-2.2387,-2.2387,-2.2387,-2.2387,-2.233,-2.2198,-2.2123,-2.2028,-2.1896,-2.1678,-2.1584,0.9451,0.8871,0.0,0.0,0.0,1.0839,0.0,0.0,0.0,0.0,0.0,0.0,0.0,0.0,0.0,0.0,0.0,0.0,0.0,0.0,0.0,0.0,0.0,0.0,0.0,0.0,0.0,0.0,0.0,0.0,1.1221,1.133,1.1378,1.134,1.1373,1.1357,1.11,1.0822,1.047,1.0049,0.9591,0.9273,0.9095,0.8773,0.864,0.8693,0.8722,0.8734,0.8746,0.8897,0.8909,0.8836,0.8958,0.9044,0.9101,0.9134,0.9142,0.9142,0.9142,0.9142,0.8763,0.7423,0.628,0.4947,0.1713,0.0191,-0.0954,-0.2691,-0.3104,-0.333,-0.4151,-0.48,-0.5654,-0.6259,-0.6461,-0.6461,-0.6461,-0.6461,-0.6461,-0.6461,-0.6493,-0.651,-0.6469,-0.6496,-0.648,-0.636,-0.6409,-0.6433,-0.6352,-0.6412,-0.6461,-0.6461,-0.6461,-0.6864,-0.8065,-1.0462,-1.3251,-1.583,-1.8616,-2.0808,-2.2387,-2.2387,-2.2387,-2.2387,-2.2321,-2.2189,-2.199,-2.199,-2.1886,-2.1678,-2.1471,-2.1367,0.0,0.0,0.0,0.0,0.0,0.0,0.0,0.0,0.0,0.0,0.0,0.0,0.0,0.0,0.0,0.0,0.0,0.0,0.0,0.0,0.0,0.0,0.0,0.0,0.0,0.0,0.0,0.0,0.0,1.109,1.109,1.1199,1.1215,1.1107,1.121,1.1089,1.0564,1.057,1.0044,0.9162,0.9171,0.8996,0.8473,0.8562,0.8603,0.8607,0.8693,0.873,0.8738,0.8828,0.8815,0.875,0.893,0.9003,0.902,0.9105,0.9142,0.9142,0.9142,0.9142,0.8952,0.8569,0.7423,0.571,0.3047,0.1333,-0.0381,-0.2479,-0.3074,-0.3298,-0.4506,-0.5575,-0.6461,-0.6461,-0.6461,-0.6461,-0.6461,-0.6461,-0.6461,-0.6461,-0.6461,-0.6461,-0.6461,-0.6461,-0.6461,-0.6455,-0.6455,-0.6455,-0.6455,-0.6455,-0.6458,-0.6461,-0.6461,-0.6864,-0.8069,-1.0663,-1.3251,-1.583,-1.8616,-2.0808,-2.2387,-2.2387,-2.2387,-2.2387,-2.2189,-2.199,-2.1792,-2.1782,-2.1669,-2.1461,-2.1263,-2.1168,0.682,0.0,0.0,0.0,0.0,0.0,0.0,0.0,0.0,0.0,0.0,0.0,0.0,0.0,0.0,0.0,0.0,0.0,0.0,0.0,0.0,0.0,0.0,0.0,0.0,0.0,0.0,0.0,1.0986,1.084,1.084,1.0954,1.1041,1.1101,1.1134,1.0934,1.0335,1.0145,0.9792,0.8959,0.8756,0.8611,0.8375,0.8468,0.8509,0.8513,0.8603,0.8644,0.8648,0.8738,0.8758,0.8738,0.8791,0.8889,0.9011,0.9036,0.9085,0.9142,0.9142,0.9142,0.9142,0.8952,0.8379,0.7233,0.3806,0.2285,0.0952,-0.2288,-0.3074,-0.3304,-0.4544,-0.5575,-0.6406,-0.645,-0.6461,-0.6461,-0.6461,-0.6461,-0.6461,-0.6461,-0.6461,-0.6461,-0.6461,-0.6461,-0.6431,-0.6343,-0.633,-0.633,-0.633,-0.633,-0.6363,-0.6452,-0.6461,-0.7264,-0.9067,-1.2053,-1.4638,-1.7041,-2.0012,-2.1995,-2.2387,-2.2387,-2.2387,-2.2387,-2.2189,-2.199,-2.1792,-2.1631,-2.1452,-2.1253,-2.1196,-2.1889,0.7047,0.6885,0.7177,0.7448,0.0,0.0,0.0,0.9523,0.0,0.0,0.0,0.0,0.0,0.0,0.0,0.0,0.0,0.0,0.0,0.0,0.0,0.0,0.0,0.0,0.0,0.0,0.0,1.107,1.0904,1.0737,1.0737,1.0802,1.0878,1.0949,1.0833,1.048,0.9904,0.9683,0.9162,0.8539,0.8477,0.833,0.8281,0.8375,0.8436,0.8477,0.853,0.857,0.8611,0.866,0.8681,0.8685,0.8722,0.8824,0.8954,0.8995,0.9065,0.9142,0.9142,0.9142,0.9142,0.9142,0.8952,0.7996,0.4187,0.2855,0.1714,-0.2097,-0.3458,-0.3881,-0.4512,-0.5525,-0.6349,-0.6409,-0.6422,-0.6431,-0.6455,-0.6461,-0.6461,-0.6461,-0.6461,-0.6461,-0.6461,-0.6461,-0.6439,-0.6365,-0.6354,-0.6354,-0.6354,-0.6354,-0.6382,-0.6452,-0.6461,-0.7666,-1.0467,-1.3046,-1.5625,-1.8434,-2.1005,-2.2387,-2.2387,-2.2387,-2.2349,-2.2264,-2.2066,-2.182,-2.1537,-2.1489,-2.1367,-2.1168,-2.2073,-2.2974,0.7512,0.7204,0.7509,0.7875,0.7584,0.0,0.915,0.9456,0.0,0.0,0.0,0.0,0.0,0.0,0.0,0.0,0.0,0.0,0.0,0.0,0.0,0.0,0.0,0.0,0.0,1.1529,1.1197,1.0699,1.0699,1.0704,1.0715,1.0715,1.0721,1.0737,1.0509,1.0053,0.9545,0.9045,0.8701,0.8183,0.8195,0.8195,0.8187,0.8277,0.837,0.8456,0.8468,0.8522,0.8607,0.8607,0.8607,0.8615,0.8689,0.8775,0.8869,0.8958,0.9052,0.913,0.9142,0.9142,0.9142,0.9142,0.9142,0.8379,0.4187,0.3046,0.2094,-0.2097,-0.3839,-0.4637,-0.4836,-0.5451,-0.6286,-0.6346,-0.636,-0.6376,-0.6439,-0.6452,-0.6452,-0.6461,-0.6461,-0.6461,-0.6461,-0.6461,-0.6461,-0.6461,-0.645,-0.6447,-0.6461,-0.645,-0.6447,-0.6461,-0.6662,-0.8065,-1.1858,-1.3643,-1.622,-1.9815,-2.1575,-2.2359,-2.2359,-2.234,-2.2236,-2.2056,-2.1858,-2.1565,-2.1168,-2.1348,-2.1525,-2.1529,-2.3342,-2.4237,0.7887,0.7597,0.7692,0.7536,0.759,0.0,0.7522,0.7841,0.0,0.0,0.0,0.0,0.0,0.0,0.0,0.0,0.0,0.0,0.0,0.0,0.0,0.0,0.0,0.0,0.0,1.1103,1.0941,1.0454,1.0454,1.0492,1.0585,1.059,1.0634,1.0732,1.0263,0.9938,0.9435,0.9009,0.8666,0.8089,0.8162,0.8158,0.8093,0.8183,0.8277,0.8366,0.844,0.8522,0.8607,0.8607,0.8607,0.8611,0.8628,0.8685,0.8771,0.8864,0.8954,0.9044,0.9118,0.9142,0.9142,0.9142,0.9142,0.8379,0.4187,0.3046,0.2094,-0.2478,-0.4202,-0.4789,-0.5213,-0.5812,-0.6221,-0.6284,-0.6297,-0.6313,-0.6376,-0.6387,-0.6403,-0.6452,-0.6461,-0.6461,-0.6461,-0.6461,-0.6461,-0.6461,-0.6379,-0.6349,-0.645,-0.6376,-0.6352,-0.645,-0.7264,-0.8866,-1.1864,-1.4241,-1.6821,-1.9815,-2.1457,-2.2151,-2.2151,-2.199,-2.1886,-2.1849,-2.1641,-2.1414,-2.1168,-2.1206,-2.2123,-2.3515,-2.3881,-2.5684,0.8384,0.7929,0.8024,0.7943,0.7517,0.0,0.0,0.0,0.0,0.0,0.0,0.0,0.0,0.0,0.0,0.0,0.0,0.0,0.0,0.0,0.0,0.0,0.0,0.0,0.0,1.0901,1.0545,1.0389,1.0384,1.0411,1.0471,1.0471,1.0525,1.0645,0.9988,0.9516,0.9407,0.8782,0.8441,0.8064,0.8109,0.8105,0.8064,0.8109,0.8179,0.8272,0.8362,0.8456,0.8546,0.8591,0.8607,0.8607,0.8607,0.866,0.8738,0.8787,0.8889,0.9016,0.906,0.9105,0.9142,0.9142,0.9142,0.8379,0.4187,0.1333,-0.0952,-0.3432,-0.4577,-0.4963,-0.5373,-0.5761,-0.6158,-0.6218,-0.6234,-0.6251,-0.6311,-0.6324,-0.6335,-0.6365,-0.6371,-0.639,-0.645,-0.6461,-0.6461,-0.6461,-0.6409,-0.6393,-0.6452,-0.6382,-0.6349,-0.6409,-0.7778,-0.9921,-1.2869,-1.5224,-1.7771,-2.0721,-2.1605,-2.1943,-2.1943,-2.1849,-2.1745,-2.1631,-2.1423,-2.1272,-2.1168,-2.2258,-2.3158,-2.4064,-2.515,-2.7148,0.8984,0.8391,0.8513,0.8459,0.7655,0.6825,0.0,0.0,0.0,0.0,0.0,0.0,0.0,0.0,0.0,0.0,0.0,0.0,0.0,0.0,0.0,0.0,0.0,0.0,0.0,1.0418,1.0215,1.0307,1.0231,1.0231,1.0346,1.0351,1.04,1.0514,0.9563,0.9288,0.9207,0.8558,0.806,0.806,0.806,0.806,0.806,0.806,0.8113,0.8203,0.8293,0.8387,0.8481,0.857,0.8607,0.8607,0.8607,0.8648,0.8713,0.8726,0.884,0.8983,0.8999,0.9069,0.9142,0.9142,0.8569,0.7233,0.3616,-0.0571,-0.4006,-0.4385,-0.4956,-0.5339,-0.5339,-0.5718,-0.6109,-0.6158,-0.6172,-0.6188,-0.6248,-0.6262,-0.6264,-0.6278,-0.6281,-0.6311,-0.6409,-0.6425,-0.6425,-0.6425,-0.6425,-0.6425,-0.6425,-0.6384,-0.6352,-0.6352,-0.8267,-1.075,-1.3837,-1.5973,-1.8688,-2.1601,-2.1754,-2.1726,-2.1726,-2.1688,-2.1593,-2.1414,-2.1253,-2.1168,-2.1168,-2.3158,-2.4247,-2.4785,-2.6604,-2.8591,0.9778,0.9239,0.9273,0.8492,0.8635,0.8535,0.7184,0.0,0.7602,0.7204,0.0,0.0,0.0,0.0,0.0,0.0,0.0,0.0,0.0,0.0,0.0,0.0,0.0,0.0,0.0,0.0,0.9601,1.003,0.9666,0.9661,1.0193,1.0226,1.0115,0.991,0.9524,0.909,0.877,0.8356,0.806,0.806,0.806,0.806,0.806,0.806,0.8113,0.8203,0.8293,0.8387,0.8481,0.857,0.8607,0.8607,0.8607,0.8615,0.8632,0.8705,0.8799,0.8897,0.8979,0.9069,0.9142,0.9142,0.6663,0.3236,0.0952,-0.1524,-0.4006,-0.4385,-0.4956,-0.5339,-0.5908,-0.6098,-0.6098,-0.6106,-0.6109,-0.6125,-0.6185,-0.6199,-0.6215,-0.627,-0.6281,-0.6284,-0.6297,-0.63,-0.63,-0.63,-0.63,-0.63,-0.63,-0.6294,-0.6289,-0.6289,-0.9013,-1.1528,-1.3843,-1.6758,-1.9471,-2.1601,-2.1612,-2.1508,-2.1508,-2.1338,-2.1234,-2.1206,-2.1178,-2.1168,-2.1168,-2.3158,-2.4967,-2.6785,-2.8591,-3.0588,1.0023,1.0062,1.0608,0.9029,0.0,0.0,0.6994,0.0,0.5722,0.0,0.0,0.0,0.0,0.0,0.0,0.0,0.0,0.0,0.0,0.0,0.0,0.0,0.0,0.0,0.0,0.0,0.0,0.0,0.0,0.9329,0.9867,0.98,0.961,0.9631,0.904,0.8635,0.8592,0.8136,0.8015,0.806,0.806,0.806,0.806,0.806,0.8085,0.8125,0.8215,0.8309,0.8399,0.8493,0.8558,0.8607,0.8607,0.8607,0.8611,0.8648,0.8717,0.8803,0.8897,0.8987,0.9073,0.8743,0.609,0.2665,0.1332,-0.1524,-0.4387,-0.4958,-0.5337,-0.5908,-0.6098,-0.6098,-0.6098,-0.6098,-0.6098,-0.6104,-0.6131,-0.6136,-0.6142,-0.6169,-0.6175,-0.6175,-0.6175,-0.6232,-0.6281,-0.6281,-0.6281,-0.6281,-0.6281,-0.6248,-0.6615,-0.7773,-1.0418,-1.3049,-1.5323,-1.8182,-2.01,-2.1433,-2.1348,-2.1291,-2.1291,-2.1215,-2.1168,-2.1168,-2.1168,-2.1714,-2.2984,-2.4796,-2.6785,-2.8771,-2.9488,-3.0945,1.109,0.0,0.0,0.0,0.0,0.0,0.0,0.0,0.0,0.0,0.0,0.0,0.0,0.0,0.0,0.0,0.0,0.0,0.0,0.0,0.0,0.0,0.0,0.0,0.0,0.0,0.0,0.0,0.0,0.0,0.9441,0.9278,0.9121,0.9159,0.8586,0.8366,0.8345,0.8073,0.7966,0.8027,0.8052,0.806,0.806,0.806,0.806,0.8068,0.8158,0.8248,0.8342,0.8432,0.8526,0.8607,0.8607,0.8607,0.8607,0.8607,0.866,0.8742,0.8811,0.8909,0.8832,0.7399,0.5137,0.2665,0.0571,-0.2095,-0.4766,-0.5149,-0.5718,-0.6098,-0.6098,-0.6098,-0.6098,-0.6098,-0.6098,-0.6098,-0.6098,-0.6098,-0.6098,-0.6098,-0.6098,-0.6098,-0.6098,-0.6172,-0.6229,-0.6229,-0.6229,-0.6229,-0.6229,-0.6191,-0.693,-0.9032,-1.1431,-1.4008,-1.6449,-1.8896,-2.0594,-2.1168,-2.1168,-2.1168,-2.1168,-2.1168,-2.1168,-2.1168,-2.1714,-2.2616,-2.4064,-2.6604,-2.8591,-2.9847,-3.0396,-3.1493,0.0,0.0,0.0,0.9567,0.0,0.0,0.0,0.0,0.7681,0.0,0.0,0.0,0.0,0.0,0.0496,0.0096,0.0,0.0,0.0,0.0,0.0,0.0,0.0,0.0,0.0,0.0,0.0,0.0,0.0,0.0,0.8856,0.9014,0.8673,0.8017,0.8198,0.8141,0.7672,0.7848,0.7938,0.7942,0.8023,0.806,0.806,0.806,0.806,0.8068,0.8158,0.8248,0.8342,0.8432,0.8526,0.8607,0.8607,0.8607,0.8607,0.8607,0.866,0.8734,0.8738,0.8856,0.827,0.4363,0.3046,0.2094,-0.2287,-0.4006,-0.4766,-0.5149,-0.5718,-0.6098,-0.6098,-0.6098,-0.6098,-0.6098,-0.6098,-0.6098,-0.6098,-0.6098,-0.6098,-0.6098,-0.6098,-0.6098,-0.6098,-0.6101,-0.6104,-0.6104,-0.6104,-0.6104,-0.6104,-0.6101,-0.6859,-0.8936,-1.138,-1.3821,-1.6449,-1.8896,-2.0594,-2.1168,-2.1168,-2.1168,-2.1168,-2.1168,-2.1168,-2.1168,-2.2974,-2.4064,-2.4064,-2.7858,-2.9847,-3.0039,-3.1848,-3.2763,0.0,0.0,1.6027,1.2369,0.0,0.0,0.0,0.0,0.0,0.0,0.0,0.0,0.0,0.0,0.3856,0.0585,-0.0,0.0,0.0,0.0,0.0,0.0,0.0,0.0,0.0,0.0,0.0,0.0,0.6874,0.0,0.0,0.8121,0.8039,0.7907,0.7787,0.7756,0.766,0.7782,0.7876,0.7938,0.8023,0.806,0.806,0.806,0.806,0.8064,0.8093,0.8158,0.8252,0.8342,0.8436,0.8526,0.8583,0.8607,0.8607,0.8607,0.8628,0.8656,0.8713,0.8852,0.8446,0.5461,0.3595,0.1902,-0.1333,-0.3621,-0.5149,-0.5339,-0.5718,-0.6098,-0.6098,-0.6098,-0.6098,-0.6098,-0.6098,-0.6098,-0.6098,-0.6098,-0.6098,-0.6098,-0.6098,-0.6098,-0.6098,-0.6098,-0.6098,-0.6098,-0.6098,-0.6098,-0.6098,-0.7233,-0.8932,-1.0819,-1.3639,-1.627,-1.8532,-2.0037,-2.0973,-2.1168,-2.1168,-2.1168,-2.1168,-2.1168,-2.1168,-2.1168,-2.3158,-2.4785,-2.606,-2.8591,-3.0575,-3.1863,-3.2409,-3.2778,1.8185,1.8439,0.0,1.4931,1.3964,0.0,1.013,0.0,0.0,0.0,0.0,0.0,0.0,0.0,0.0,0.3073,0.1096,0.1047,0.0,0.1946,0.0,0.0,0.0,0.0,0.0,0.0,0.3835,0.5215,0.6098,0.0,0.0,0.0,0.7517,0.7603,0.7519,0.7521,0.7611,0.7738,0.7827,0.7889,0.8007,0.806,0.806,0.806,0.806,0.806,0.806,0.8113,0.8207,0.8297,0.8387,0.8481,0.857,0.8607,0.8607,0.8607,0.8607,0.8619,0.8705,0.8832,0.8404,0.5433,0.3585,0.1902,-0.1523,-0.3812,-0.5149,-0.553,-0.5908,-0.6098,-0.6098,-0.6098,-0.6098,-0.6098,-0.6098,-0.6098,-0.6098,-0.6098,-0.6098,-0.6098,-0.6098,-0.6098,-0.6098,-0.6098,-0.6098,-0.6098,-0.6098,-0.6098,-0.6098,-0.7799,-0.9879,-1.214,-1.4953,-1.7584,-2.0046,-2.0797,-2.1168,-2.1168,-2.1168,-2.1168,-2.1168,-2.1168,-2.1538,-2.2258,-2.4064,-2.606,-2.8051,-3.0039,-3.1493,-3.2778,-3.2778,-3.2778]},{"header":{"parameterUnit":"m.s-1","parameterCategory":1,"la1":30.6,"la2":29.2853,"lo1":-89.7004,"lo2":-87.6739,"dy":0.0162,"dx":0.0183,"nx":112,"ny":82,"refTime":"2026-03-07T12:00:00:Z","depth":0,"parameterNumber":3,"parameterNumberName":"V-component_of_WINDS"},"data":[0.0,0.0,0.0,0.0,0.0,0.0,0.0,0.0,0.0,0.0,0.0,0.0,0.0,0.0,0.0,0.0,0.0,0.0,0.0,0.0,0.0,0.0,0.0,0.0,0.0,0.0,0.0,0.0,0.0,0.0,0.0,0.0,0.0,0.0,0.0,0.0,0.0,0.0,0.0,0.0,0.0,0.0,0.0,0.0,0.0,0.0,0.0,0.0,0.0,0.0,0.0,0.0,0.0,0.0,0.0,0.0,0.0,0.0,0.0,0.0,0.0,0.0,0.0,0.0,0.0,0.0,0.0,0.0,0.0,0.0,0.0,0.0,0.0,0.0,0.0,0.0,0.0,0.0,0.0,0.0,0.0,0.0,0.0,0.0,0.0,0.0,0.0,0.0,0.0,0.0,-5.3576,-5.757,-6.471,-6.9255,-6.9372,-6.8903,-6.4769,-5.5706,0.0,0.0,0.0,0.0,0.0,0.0,0.0,0.0,0.0,0.0,0.0,0.0,0.0,0.0,0.0,0.0,0.0,0.0,0.0,0.0,0.0,0.0,0.0,0.0,0.0,0.0,0.0,0.0,0.0,0.0,0.0,0.0,0.0,0.0,0.0,0.0,0.0,0.0,0.0,0.0,0.0,0.0,0.0,0.0,0.0,0.0,0.0,0.0,0.0,0.0,0.0,0.0,0.0,0.0,0.0,0.0,0.0,0.0,0.0,0.0,0.0,0.0,0.0,0.0,0.0,0.0,0.0,0.0,0.0,0.0,0.0,0.0,0.0,0.0,0.0,0.0,0.0,0.0,0.0,0.0,0.0,0.0,0.0,0.0,0.0,0.0,0.0,0.0,0.0,0.0,0.0,0.0,0.0,0.0,0.0,0.0,0.0,0.0,0.0,0.0,0.0,0.0,0.0,0.0,-5.3323,-6.4091,-6.7063,-6.8591,-6.9333,-6.6756,-6.2518,-5.6558,0.0,0.0,0.0,0.0,0.0,0.0,0.0,0.0,0.0,0.0,0.0,0.0,0.0,0.0,0.0,0.0,0.0,0.0,0.0,0.0,0.0,0.0,0.0,0.0,0.0,0.0,0.0,0.0,0.0,0.0,0.0,0.0,0.0,0.0,0.0,0.0,0.0,0.0,0.0,0.0,0.0,0.0,0.0,0.0,0.0,0.0,0.0,0.0,0.0,0.0,0.0,0.0,0.0,0.0,0.0,0.0,0.0,0.0,0.0,0.0,0.0,0.0,0.0,0.0,0.0,0.0,0.0,0.0,0.0,0.0,0.0,0.0,0.0,0.0,0.0,0.0,0.0,0.0,0.0,0.0,0.0,0.0,0.0,0.0,0.0,0.0,0.0,0.0,0.0,0.0,0.0,0.0,0.0,0.0,0.0,0.0,0.0,0.0,0.0,0.0,0.0,0.0,0.0,-5.1568,-5.6418,-6.5814,-6.7576,-6.8279,-6.8669,-6.6834,-6.2993,-5.68,-5.3163,0.0,0.0,0.0,0.0,0.0,0.0,0.0,0.0,0.0,0.0,0.0,0.0,0.0,0.0,0.0,0.0,0.0,0.0,0.0,0.0,0.0,0.0,0.0,0.0,0.0,0.0,0.0,0.0,0.0,0.0,0.0,0.0,0.0,0.0,0.0,0.0,0.0,0.0,0.0,0.0,0.0,0.0,0.0,0.0,0.0,0.0,0.0,0.0,0.0,0.0,0.0,0.0,0.0,0.0,0.0,0.0,0.0,0.0,0.0,0.0,0.0,0.0,0.0,0.0,0.0,0.0,0.0,0.0,0.0,0.0,0.0,0.0,0.0,0.0,0.0,0.0,0.0,0.0,0.0,0.0,0.0,0.0,0.0,0.0,0.0,0.0,0.0,0.0,0.0,0.0,0.0,0.0,0.0,0.0,0.0,0.0,0.0,0.0,0.0,0.0,0.0,0.0,-5.6939,-6.0321,-6.6444,-6.7537,-6.7888,-6.8083,-6.617,-6.2446,-5.6457,-5.133,0.0,0.0,0.0,0.0,0.0,0.0,0.0,0.0,0.0,0.0,0.0,0.0,0.0,0.0,0.0,0.0,0.0,0.0,0.0,0.0,0.0,0.0,0.0,0.0,0.0,0.0,0.0,0.0,0.0,0.0,0.0,0.0,0.0,0.0,0.0,0.0,0.0,0.0,0.0,0.0,0.0,0.0,0.0,0.0,0.0,0.0,0.0,0.0,0.0,0.0,0.0,0.0,0.0,0.0,0.0,0.0,0.0,0.0,0.0,0.0,0.0,0.0,0.0,0.0,0.0,0.0,0.0,0.0,0.0,0.0,0.0,0.0,0.0,0.0,0.0,0.0,0.0,0.0,0.0,0.0,0.0,0.0,0.0,0.0,0.0,0.0,0.0,0.0,0.0,0.0,0.0,0.0,0.0,0.0,0.0,0.0,0.0,0.0,0.0,0.0,0.0,0.0,-5.8467,-6.394,-6.7615,-6.7342,-6.7224,-6.8044,-6.2891,-5.8382,-5.5365,-4.8085,0.0,0.0,0.0,0.0,0.0,0.0,0.0,0.0,0.0,0.0,0.0,0.0,0.0,0.0,0.0,0.0,0.0,0.0,0.0,0.0,0.0,0.0,0.0,0.0,0.0,0.0,0.0,0.0,0.0,0.0,0.0,0.0,0.0,0.0,0.0,0.0,0.0,0.0,0.0,0.0,0.0,0.0,0.0,0.0,0.0,0.0,0.0,0.0,0.0,0.0,0.0,0.0,0.0,0.0,0.0,0.0,0.0,0.0,0.0,0.0,0.0,0.0,0.0,0.0,0.0,0.0,0.0,0.0,0.0,0.0,0.0,0.0,0.0,0.0,0.0,0.0,0.0,0.0,0.0,0.0,0.0,0.0,0.0,0.0,0.0,0.0,0.0,0.0,0.0,0.0,0.0,0.0,0.0,0.0,0.0,0.0,0.0,0.0,0.0,0.0,0.0,0.0,-5.7151,-6.2239,-6.6795,-6.699,-6.6912,-6.7264,-6.4765,-6.0895,-5.5572,0.0,0.0,0.0,0.0,0.0,0.0,0.0,0.0,0.0,0.0,0.0,0.0,0.0,0.0,0.0,0.0,0.0,0.0,0.0,0.0,0.0,0.0,0.0,0.0,0.0,0.0,0.0,0.0,0.0,0.0,0.0,0.0,0.0,0.0,0.0,0.0,0.0,0.0,0.0,0.0,0.0,0.0,0.0,0.0,0.0,0.0,0.0,0.0,0.0,0.0,0.0,0.0,0.0,0.0,0.0,0.0,0.0,0.0,0.0,0.0,0.0,0.0,0.0,0.0,0.0,0.0,0.0,0.0,0.0,0.0,0.0,0.0,0.0,0.0,0.0,0.0,0.0,0.0,0.0,0.0,0.0,0.0,0.0,0.0,0.0,0.0,0.0,0.0,0.0,0.0,0.0,0.0,0.0,0.0,0.0,0.0,0.0,0.0,0.0,0.0,0.0,0.0,-5.1964,-5.7399,-6.2538,-6.7429,-6.7994,-6.8279,-6.8825,-6.66,-6.2457,-5.6045,0.0,0.0,0.0,0.0,0.0,0.0,0.0,0.0,0.0,0.0,0.0,0.0,0.0,0.0,0.0,0.0,0.0,0.0,0.0,0.0,0.0,0.0,0.0,0.0,0.0,0.0,0.0,0.0,0.0,0.0,0.0,0.0,0.0,0.0,0.0,0.0,0.0,0.0,0.0,0.0,0.0,0.0,0.0,0.0,0.0,0.0,0.0,0.0,0.0,0.0,0.0,0.0,0.0,0.0,0.0,0.0,0.0,0.0,0.0,0.0,0.0,0.0,0.0,0.0,0.0,0.0,0.0,0.0,0.0,0.0,0.0,0.0,0.0,0.0,0.0,0.0,0.0,0.0,0.0,0.0,0.0,0.0,0.0,0.0,0.0,0.0,0.0,0.0,0.0,0.0,0.0,0.0,0.0,0.0,0.0,0.0,0.0,0.0,0.0,0.0,0.0,0.0,-5.2918,-5.9854,-6.5914,-7.0006,-7.0622,-7.1441,-7.3158,-6.781,-6.2095,0.0,0.0,0.0,0.0,0.0,0.0,0.0,0.0,0.0,0.0,0.0,0.0,0.0,0.0,0.0,0.0,0.0,0.0,0.0,0.0,0.0,0.0,0.0,0.0,0.0,0.0,0.0,0.0,0.0,0.0,0.0,0.0,0.0,0.0,0.0,0.0,0.0,0.0,0.0,0.0,0.0,0.0,0.0,0.0,0.0,0.0,0.0,0.0,0.0,0.0,0.0,0.0,0.0,0.0,0.0,0.0,0.0,0.0,0.0,0.0,0.0,0.0,0.0,0.0,0.0,0.0,0.0,0.0,0.0,0.0,0.0,0.0,0.0,0.0,0.0,0.0,0.0,0.0,0.0,0.0,0.0,0.0,0.0,0.0,0.0,0.0,0.0,0.0,0.0,0.0,0.0,0.0,0.0,0.0,0.0,0.0,0.0,0.0,0.0,0.0,0.0,0.0,0.0,-5.5602,-6.36,-6.9952,-7.2977,-7.3342,-7.3354,-7.3315,-6.9996,-6.4643,-5.7021,0.0,0.0,0.0,0.0,0.0,0.0,0.0,0.0,0.0,0.0,0.0,0.0,0.0,0.0,0.0,0.0,0.0,0.0,0.0,0.0,0.0,0.0,0.0,0.0,0.0,0.0,0.0,0.0,0.0,0.0,0.0,0.0,0.0,0.0,0.0,0.0,0.0,0.0,0.0,0.0,0.0,0.0,0.0,0.0,0.0,0.0,0.0,0.0,0.0,0.0,0.0,0.0,0.0,0.0,0.0,0.0,0.0,0.0,0.0,0.0,0.0,0.0,0.0,0.0,0.0,0.0,0.0,0.0,0.0,0.0,0.0,0.0,0.0,0.0,0.0,0.0,0.0,0.0,0.0,0.0,0.0,0.0,0.0,0.0,0.0,0.0,0.0,0.0,0.0,0.0,0.0,0.0,0.0,0.0,0.0,0.0,0.0,0.0,0.0,0.0,0.0,0.0,-5.6679,-6.5199,-7.2054,-7.5584,-7.6035,-7.6008,-7.5852,-7.3471,-6.8122,-5.9183,0.0,0.0,0.0,0.0,0.0,0.0,0.0,0.0,0.0,0.0,0.0,0.0,0.0,0.0,0.0,0.0,0.0,0.0,0.0,0.0,0.0,0.0,0.0,0.0,0.0,0.0,0.0,0.0,0.0,0.0,0.0,0.0,0.0,0.0,0.0,0.0,0.0,0.0,0.0,0.0,0.0,0.0,0.0,0.0,0.0,0.0,0.0,0.0,0.0,0.0,0.0,0.0,0.0,0.0,0.0,0.0,0.0,0.0,0.0,0.0,0.0,0.0,0.0,0.0,0.0,0.0,0.0,0.0,0.0,0.0,0.0,0.0,0.0,0.0,0.0,0.0,0.0,0.0,0.0,0.0,0.0,0.0,0.0,0.0,0.0,0.0,0.0,0.0,0.0,0.0,0.0,0.0,0.0,0.0,0.0,0.0,0.0,0.0,0.0,0.0,0.0,0.0,-5.6936,-6.564,-7.3172,-7.8057,-7.8706,-7.9014,-7.9639,-7.7296,-7.1831,-6.254,0.0,0.0,0.0,0.0,0.0,0.0,0.0,0.0,0.0,0.0,0.0,0.0,0.0,0.0,0.0,0.0,0.0,0.0,0.0,0.0,0.0,0.0,0.0,0.0,0.0,0.0,0.0,0.0,0.0,0.0,0.0,0.0,0.0,0.0,0.0,0.0,0.0,0.0,0.0,0.0,0.0,0.0,0.0,0.0,0.0,0.0,0.0,0.0,0.0,0.0,0.0,0.0,0.0,0.0,0.0,0.0,0.0,0.0,0.0,0.0,-6.075,0.0,0.0,0.0,0.0,0.0,0.0,0.0,0.0,0.0,0.0,0.0,0.0,0.0,0.0,0.0,0.0,0.0,0.0,0.0,0.0,0.0,0.0,0.0,0.0,0.0,0.0,0.0,0.0,0.0,0.0,0.0,0.0,0.0,0.0,0.0,0.0,0.0,0.0,0.0,0.0,0.0,-5.9737,-6.9451,-7.7212,-8.1024,-8.1467,-8.1005,-7.9795,-7.7296,-7.2339,-6.4258,-5.731,0.0,0.0,0.0,0.0,0.0,0.0,0.0,0.0,0.0,0.0,0.0,0.0,0.0,0.0,0.0,0.0,0.0,0.0,0.0,0.0,0.0,0.0,0.0,0.0,0.0,0.0,0.0,0.0,0.0,0.0,0.0,0.0,0.0,0.0,0.0,0.0,0.0,0.0,0.0,0.0,0.0,0.0,0.0,0.0,0.0,0.0,0.0,0.0,0.0,0.0,0.0,0.0,0.0,0.0,0.0,0.0,0.0,0.0,0.0,0.0,-6.2723,0.0,0.0,0.0,0.0,0.0,0.0,0.0,0.0,0.0,0.0,0.0,0.0,0.0,0.0,0.0,0.0,0.0,0.0,0.0,0.0,0.0,0.0,0.0,0.0,0.0,0.0,0.0,0.0,0.0,0.0,0.0,0.0,0.0,0.0,0.0,0.0,0.0,0.0,0.0,0.0,-6.1227,-7.0856,-7.8429,-8.1942,-8.2293,-8.1591,-7.9834,-7.8077,-7.4095,-6.7185,-6.0945,0.0,0.0,0.0,0.0,0.0,0.0,0.0,0.0,0.0,0.0,0.0,0.0,0.0,0.0,0.0,0.0,0.0,0.0,0.0,0.0,0.0,0.0,0.0,0.0,0.0,0.0,0.0,0.0,0.0,0.0,0.0,0.0,0.0,0.0,0.0,0.0,0.0,0.0,0.0,0.0,0.0,0.0,0.0,0.0,0.0,0.0,0.0,0.0,0.0,0.0,0.0,0.0,0.0,-7.4322,-7.5976,-7.8054,-7.9515,-7.9939,-7.9285,-7.5027,-7.1965,-6.9563,-6.4993,0.0,0.0,0.0,0.0,0.0,0.0,0.0,0.0,0.0,0.0,0.0,0.0,0.0,0.0,0.0,0.0,0.0,0.0,0.0,0.0,0.0,0.0,0.0,0.0,-6.497,-6.4492,0.0,0.0,0.0,0.0,0.0,0.0,0.0,0.0,0.0,0.0,0.0,0.0,-6.2533,-7.155,-7.8585,-8.1942,-8.2293,-8.1591,-7.9834,-7.8897,-7.5963,-7.0186,-6.5205,-5.9896,0.0,0.0,0.0,0.0,0.0,0.0,0.0,0.0,0.0,0.0,0.0,0.0,0.0,0.0,0.0,0.0,0.0,0.0,0.0,0.0,0.0,0.0,0.0,0.0,0.0,0.0,0.0,0.0,0.0,0.0,0.0,0.0,-5.0126,-4.8222,0.0,0.0,0.0,0.0,0.0,0.0,0.0,0.0,0.0,0.0,0.0,0.0,0.0,-6.8037,-7.092,-7.7793,-8.1477,-8.1977,-8.7902,-9.0864,-9.121,-9.1441,-9.2287,-9.3557,-9.213,0.0,-7.518,-7.5142,0.0,0.0,0.0,0.0,0.0,0.0,0.0,0.0,0.0,0.0,0.0,0.0,0.0,0.0,0.0,0.0,0.0,0.0,0.0,0.0,0.0,0.0,-7.3186,-7.1903,-7.2528,-7.2378,0.0,-6.0432,-5.2819,-4.9384,-4.6612,0.0,0.0,0.0,0.0,0.0,0.0,0.0,-6.5301,-7.327,-7.9287,-8.202,-8.2293,-8.1591,-7.9834,-7.8884,-7.6458,-7.1852,-6.8117,-6.4076,-5.9482,-5.3487,0.0,0.0,0.0,0.0,0.0,0.0,0.0,0.0,0.0,0.0,0.0,0.0,0.0,0.0,0.0,0.0,0.0,0.0,0.0,0.0,0.0,0.0,0.0,0.0,0.0,0.0,0.0,0.0,0.0,-4.8756,-5.2886,-4.9482,-5.2987,-5.3271,0.0,0.0,0.0,0.0,0.0,0.0,0.0,0.0,0.0,-7.3365,-7.5257,-7.8231,-8.2441,-8.7026,-8.9979,-9.1441,-9.4403,-9.6365,-9.7288,-9.6788,-9.748,-9.9058,-9.8211,-9.4744,-8.9183,-8.3375,-7.7147,-7.0758,0.0,0.0,0.0,0.0,-6.3584,-6.4648,-7.0508,-7.1836,0.0,-7.0703,0.0,0.0,0.0,0.0,0.0,0.0,0.0,0.0,0.0,0.0,-7.6425,-7.854,-7.8969,-7.8468,-7.6828,-7.0699,-6.3594,0.0,-5.4264,-5.075,-4.3918,0.0,0.0,0.0,0.0,-6.0968,-6.672,-7.3459,-7.8468,-8.0615,-8.1278,-8.0849,-7.9131,-7.9079,-7.7699,-7.4304,-7.084,-6.7851,-6.5455,-5.8948,-5.3584,0.0,0.0,0.0,0.0,0.0,0.0,0.0,0.0,0.0,0.0,0.0,0.0,0.0,0.0,0.0,0.0,0.0,0.0,0.0,0.0,0.0,0.0,0.0,0.0,0.0,0.0,0.0,0.0,-5.2126,-5.6043,-5.1747,-5.6688,-5.7455,0.0,0.0,0.0,0.0,0.0,0.0,-6.825,-7.1904,-7.6478,-8.2149,-8.4426,-8.7721,-9.2255,-9.41,-9.6172,-9.8481,-9.8057,-9.8865,-10.0712,-9.9596,-9.9827,-10.0981,-10.0404,-9.9827,-9.875,-8.9954,-8.3277,-7.8123,-7.3568,-7.1265,-7.0582,-7.1011,-7.1698,-7.3278,-7.9765,-8.1719,-8.0976,-7.8906,0.0,-7.1601,-6.4101,0.0,0.0,0.0,0.0,-6.5385,-7.272,-7.6058,-7.8618,-8.284,-8.3191,-8.2371,-8.1513,-7.8077,-7.2846,0.0,-6.211,-5.8558,-5.0633,0.0,0.0,0.0,0.0,-6.4247,-6.8468,-7.3765,-7.7687,-7.9209,-7.9951,-7.9795,-7.8507,-7.876,-7.8082,-7.5936,-7.3124,-7.1068,-6.9977,-6.4293,-5.9232,-5.518,0.0,0.0,0.0,0.0,0.0,0.0,0.0,0.0,0.0,0.0,0.0,0.0,0.0,0.0,0.0,0.0,0.0,0.0,0.0,0.0,0.0,0.0,0.0,0.0,0.0,0.0,0.0,0.0,0.0,-5.6841,-6.3833,0.0,0.0,0.0,0.0,-6.2766,-6.841,-7.3649,-7.8139,-8.2741,-8.7075,-9.102,-9.3217,-9.5249,-9.7135,-9.8096,-9.9404,-10.1096,-9.9481,-9.9981,-10.2404,-10.0789,-10.0096,-10.0173,-10.0096,-9.9173,-9.7403,-9.4403,-9.1376,-8.824,-8.4728,-8.2596,-8.1396,-8.0615,-8.0386,-8.0821,-8.3709,-8.3633,-8.2851,-8.6758,-8.2422,-7.5312,-7.3164,-6.9023,0.0,0.0,-7.0064,-7.3504,-7.7208,-8.0046,-8.2443,-8.4284,-8.4089,-8.323,-8.2411,-7.9444,-7.5852,0.0,-6.8708,-6.5234,-6.1486,0.0,-6.0119,-6.0817,-6.3477,-6.6951,-7.1245,-7.4915,-7.7453,-7.835,-7.8507,-7.8507,-7.839,-7.7614,-7.673,-7.5881,-7.4811,-7.3453,-7.1739,-6.9028,-6.4999,-5.9581,-5.4436,0.0,0.0,0.0,0.0,0.0,0.0,0.0,0.0,0.0,0.0,0.0,0.0,0.0,0.0,0.0,0.0,0.0,0.0,0.0,0.0,0.0,0.0,0.0,0.0,0.0,0.0,0.0,0.0,-6.2244,-7.0161,0.0,-6.5959,-6.7455,-6.9771,-7.1836,-7.7695,-8.2703,-8.6239,-8.9877,-9.3213,-9.6212,-9.7596,-9.8827,-9.9942,-10.0289,-10.0404,-10.0481,-9.9904,-9.9827,-10.0212,-10.0096,-10.0096,-10.0096,-10.0096,-9.975,-9.9019,-9.698,-9.464,-9.2161,-8.9861,-8.8206,-8.6997,-8.6713,-8.7369,-8.8533,-8.8885,-8.9367,-8.9375,-8.7031,-8.3437,-7.9492,-7.668,-7.4922,-7.414,-7.5273,-7.6899,-7.9047,-8.2456,-8.4056,-8.5019,-8.6197,-8.5377,-8.4245,-8.3972,-8.163,-7.9092,-7.7296,-7.2807,-6.8239,-6.4804,-6.4843,-6.4726,-6.2813,-6.617,-6.9645,-7.1714,-7.4017,-7.554,-7.5852,-7.6399,-7.675,-7.6737,-7.6903,-7.6652,-7.5776,-7.4371,-7.3297,-7.2674,-6.9663,-6.6672,-6.3902,-5.9392,-5.2893,0.0,0.0,0.0,0.0,0.0,0.0,0.0,0.0,0.0,0.0,0.0,0.0,0.0,0.0,0.0,0.0,0.0,0.0,0.0,0.0,0.0,0.0,0.0,0.0,0.0,0.0,-6.9932,-6.8643,-7.5864,-7.8981,-7.393,-7.6074,-7.8466,-8.0141,-8.5296,-8.943,-9.1911,-9.4715,-9.7173,-9.9173,-10.0096,-10.0596,-10.0904,-10.0904,-10.0481,-9.9635,-9.9365,-9.9058,-9.8788,-9.9096,-9.9211,-9.9211,-9.9322,-9.9165,-9.8854,-9.776,-9.6464,-9.5025,-9.353,-9.2365,-9.1532,-9.1508,-9.2334,-9.3337,-9.2478,-9.2726,-9.2734,-8.8437,-8.5898,-8.3984,-8.1445,-8.0859,-8.1211,-8.1758,-8.2295,-8.3315,-8.5885,-8.6549,-8.6666,-8.7251,-8.608,-8.4792,-8.4792,-8.2801,-8.0732,-7.9873,-7.6477,-7.2651,-6.9215,-6.9762,-6.9528,-6.6092,-6.8747,-7.1245,-7.1519,-7.3041,-7.4095,-7.4095,-7.4597,-7.5176,-7.5748,-7.5218,-7.4957,-7.525,-7.2812,-7.1505,-7.1817,-6.8472,-6.5906,-6.4425,-5.9012,-5.2992,-4.6457,0.0,0.0,0.0,0.0,0.0,0.0,0.0,0.0,0.0,0.0,0.0,0.0,0.0,0.0,0.0,0.0,0.0,0.0,0.0,0.0,0.0,0.0,0.0,-6.2175,-7.0289,-7.5973,-7.6084,-8.1174,-8.3737,-8.138,-8.3056,-8.5172,-8.7289,-9.0949,-9.3711,-9.5057,-9.748,-9.925,-10.0096,-10.0904,-10.0904,-10.0096,-10.0096,-9.9596,-9.875,-9.7904,-9.7942,-9.8673,-9.7865,-9.748,-9.7479,-9.7787,-9.7402,-9.6619,-9.6912,-9.713,-9.7208,-9.6157,-9.5502,-9.5137,-9.5137,-9.5183,-9.5073,-9.4254,-9.3398,-9.25,-9.1601,-9.0195,-8.8633,-8.7812,-8.6992,-8.6328,-8.6289,-8.6247,-8.6389,-8.718,-8.7407,-8.7407,-8.7407,-8.608,-8.4831,-8.4792,-8.284,-8.081,-7.9873,-7.9717,-7.8624,-7.5149,-7.5227,-7.4642,-7.1285,-7.1519,0.0,-7.0855,-7.2221,-7.3236,-7.3236,-7.314,-7.3836,-7.5514,-7.2548,-7.1663,-7.4119,-7.0346,-6.8427,-6.9245,-6.5842,-6.306,-6.1116,-5.3294,-4.8426,-4.658,0.0,0.0,0.0,0.0,0.0,0.0,0.0,0.0,0.0,0.0,0.0,0.0,0.0,0.0,0.0,0.0,0.0,0.0,0.0,0.0,0.0,-6.3354,-6.8531,-6.7009,-7.3882,-7.9978,-8.2623,-8.749,-9.0727,-9.1125,-9.1112,-9.1687,-9.3084,-9.4752,-9.6274,-9.7711,-9.9019,-10.0096,-10.0904,-10.0596,-10.0289,-10.0096,-9.9481,-9.8711,-9.7865,-9.7596,-9.7326,-9.7019,-9.7326,-9.7241,-9.6892,-9.7604,-9.7518,-9.6912,-9.6982,-9.713,-9.7247,-9.697,-9.655,-9.6035,-9.6035,-9.5675,-9.527,-9.5664,-9.4804,-9.3398,-9.2539,-9.1484,-9.0429,-8.957,-8.9133,-8.8807,-8.8202,-8.7997,-8.7888,-8.7486,-8.7407,-8.7407,-8.7407,-8.6549,-8.5573,-8.4948,-8.3738,-8.2215,-8.0107,-8.0224,-7.9522,-7.6047,-7.511,-7.433,-7.2807,-7.2807,0.0,-7.1753,-7.2065,-7.2104,-7.148,-7.1384,-7.1838,-7.2877,-7.1525,-7.0912,-7.1604,-6.9957,-6.8777,-6.8388,-6.6633,-6.4709,-6.2651,-5.6712,-5.2805,0.0,0.0,0.0,0.0,0.0,0.0,0.0,0.0,0.0,0.0,0.0,0.0,0.0,0.0,0.0,0.0,0.0,0.0,0.0,0.0,0.0,0.0,-7.1146,-7.6848,-7.7199,-8.1466,-8.5671,-8.8864,-9.2059,-9.4403,-9.5465,-9.5008,-9.4878,-9.5401,-9.6117,-9.7055,-9.8211,-9.875,-9.9404,-10.0212,-9.9788,-9.9365,-9.9019,-9.8519,-9.7862,-9.7153,-9.7153,-9.695,-9.6615,-9.7078,-9.7122,0.0,-9.7392,-9.7454,-9.711,-9.7238,-9.7355,0.0,0.0,0.0,0.0,0.0,-9.6635,-9.6289,-9.6445,-9.5586,-9.4297,-9.3437,-9.2539,-9.1679,-9.082,-9.0309,-8.9904,-8.9403,-8.8729,-8.8206,-8.8422,-8.7954,-8.7486,-8.7876,-8.7017,-8.5846,-8.4987,-8.3855,-8.2332,-8.0146,-7.9795,0.0,-7.675,-7.6242,-7.5501,-7.3588,-7.39,-7.39,-7.269,-7.3153,-7.3381,-7.2873,-7.3119,-7.3376,-7.3475,-7.2014,0.0,0.0,0.0,-6.6769,-6.4726,-6.4022,0.0,0.0,0.0,0.0,0.0,0.0,0.0,0.0,-4.9591,-4.8753,0.0,0.0,0.0,0.0,0.0,0.0,0.0,0.0,0.0,0.0,0.0,0.0,0.0,0.0,0.0,0.0,-7.7666,-8.3892,-8.8987,-9.0499,-9.1836,-9.3954,-9.5061,-9.5838,-9.6389,-9.6193,-9.5969,-9.5795,-9.6212,-9.6749,-9.7442,0.0,0.0,0.0,0.0,-9.8288,-9.7519,-9.7403,-9.7122,-9.6568,-9.6598,-9.6732,-9.6959,-9.6982,-9.7027,-9.7048,-9.7238,-9.7316,-9.7383,-9.7602,-9.7714,-9.7675,-9.7447,-9.7494,-9.7684,-9.7694,-9.7695,-9.7617,-9.6875,0.0,0.0,-9.4336,-9.3398,-9.2422,-9.1562,-9.0703,-8.9998,-9.0003,-8.8831,-8.7909,-8.9444,-8.8618,-8.7603,-8.8383,-8.7368,-8.6002,-8.5143,-8.3777,-8.2176,-8.0341,-7.9366,-7.8507,-7.7414,-7.7804,-7.7218,-7.4173,-7.4993,-7.5423,-7.3933,-7.5013,-7.5897,-7.5819,0.0,0.0,-7.5757,-7.3319,-7.1193,-6.9829,-6.7296,-6.4321,-6.1017,-6.0738,-5.9843,-5.8081,-5.8592,-5.9932,-6.1995,-6.2078,-6.2401,-6.28,-5.4229,-5.2267,0.0,0.0,0.0,0.0,0.0,0.0,0.0,0.0,0.0,0.0,0.0,0.0,0.0,0.0,0.0,-7.5105,-8.206,-8.8096,-9.1762,-9.3545,-9.44,-9.4214,-9.5929,-9.7313,-9.7911,-9.7642,-9.7669,-9.8095,-9.7596,-9.7326,-9.748,-9.8173,-9.8634,-9.8788,-9.8134,-9.7673,-9.7519,-9.6865,-9.6479,-9.6358,0.0,0.0,-9.6676,-9.6912,-9.711,-9.7255,-9.7286,-9.7409,-9.7611,-9.7667,-9.7695,-9.7672,-9.7628,-9.7662,-9.7695,-9.7695,-9.7695,-9.7695,-9.7539,-9.6914,-9.6094,-9.5234,-9.3867,-9.2422,-9.1562,-9.0701,0.0,-8.9997,-8.9249,-8.8546,-8.8852,-8.8188,-8.7446,-8.7603,-8.7407,-8.69,-8.6041,-8.5573,-8.4675,-8.2254,-8.1669,-8.081,-7.8546,-7.7726,-7.714,-7.6477,-7.662,-7.6731,-7.6418,-7.6591,-7.6535,-7.5872,-7.5884,-7.5874,-7.5718,-7.3319,-7.1973,-7.2323,-6.9946,-6.7825,-6.6275,-6.5991,-6.5599,-6.5051,-6.4987,-6.5192,-6.5658,-6.6216,-6.6569,-6.6573,-6.1885,-6.053,0.0,0.0,0.0,0.0,0.0,0.0,0.0,0.0,0.0,0.0,0.0,-5.9502,-6.3401,0.0,-7.6013,-8.1303,-8.6215,-9.0313,-9.3211,-9.4622,-9.5351,-9.5193,-9.6581,-9.7496,-9.7528,-9.7362,-9.7533,-9.8096,-9.7365,-9.7096,-9.748,-9.7519,-9.7557,-9.7557,-9.7134,-9.6903,-9.6903,-9.6519,-9.639,-9.6667,-9.6732,-9.692,-9.7168,-9.731,-9.7422,-9.7483,-9.7483,-9.7593,-9.7714,-9.7714,-9.7689,-9.7701,-9.7682,-9.7715,-9.7695,-9.7695,-9.7695,-9.7695,-9.7695,-9.7187,-9.6367,-9.5469,-9.4336,-9.3086,-9.2226,-9.1049,-9.0086,-9.0537,-8.9398,-8.8266,-8.9125,-8.8383,-8.7525,-8.7954,-8.772,-8.7056,-8.5729,-8.5807,-8.5338,-8.2801,-8.2293,-8.1747,-7.999,-7.8975,-7.8266,-7.783,-7.8448,-7.8823,-7.8425,-7.8711,-7.8818,-7.8379,-7.867,-7.8542,-7.7685,-7.4439,-7.2635,-7.3064,-7.0726,-6.9017,-6.8475,-6.8121,-6.8094,-6.842,-6.8522,-6.8521,-6.8455,-6.8773,-6.8704,-6.8104,-6.6782,-6.6139,0.0,0.0,0.0,0.0,0.0,0.0,0.0,-5.2368,-5.486,-5.8261,-6.24,-6.6954,-7.2237,-7.6691,-8.1311,-8.6795,-8.9239,-9.1428,-9.4065,-9.4994,-9.5661,-9.6299,-9.717,-9.7384,-9.6769,-9.6789,-9.7006,-9.7443,-9.6749,-9.6596,-9.725,-9.6634,-9.6288,-9.6288,-9.6288,-9.6288,-9.6288,-9.6288,-9.6519,-9.6936,-9.6982,-9.7204,-9.7611,-9.7667,-9.7714,-9.7675,-9.7518,-9.7558,-9.7675,-9.7532,-9.7571,-9.7714,-9.7689,-9.768,-9.7695,-9.7695,-9.7695,-9.7695,-9.7695,-9.7265,-9.6601,-9.5742,-9.4765,-9.3748,-9.2849,-9.1388,-9.0179,-9.1038,-8.9672,-8.8266,-8.9828,-8.8969,-8.7837,-8.854,-8.8032,-8.7017,-8.5612,-8.5729,-8.5495,-8.3426,-8.2918,-8.2528,-8.163,-8.0888,-8.0023,-7.8838,-7.9807,-8.0384,-7.9695,-8.0212,-8.0619,-8.0619,-8.122,-8.0974,-7.9415,-7.6415,-7.4388,-7.3882,-7.2089,-7.0948,-7.0731,-7.0308,-7.0457,-7.1263,-7.1505,-7.1617,-7.1667,-7.1631,-7.1179,-7.0346,-7.0839,-7.046,-4.8043,-4.5159,-4.5551,-4.8853,-5.043,-5.326,0.0,-6.3512,-6.5161,-6.8469,-7.344,-7.7487,-7.8908,-8.1798,-8.517,-8.8515,-8.9904,-9.1613,-9.4808,-9.5328,-9.579,-9.6873,-9.7756,-9.7831,-9.6814,-9.713,-9.7443,-9.7519,-9.6749,-9.6326,-9.6442,-9.6365,-9.6288,-9.6288,-9.6288,-9.6288,-9.6288,-9.6288,-9.6425,-9.6648,-9.6888,-9.713,-9.733,-9.7602,-9.7714,-9.7675,-9.6894,-9.6972,-9.7643,-9.6945,-9.7059,-9.7682,-9.7689,-9.7695,-9.7695,-9.7695,-9.7695,-9.7695,-9.7695,-9.7656,-9.7422,-9.6601,-9.5226,-9.3745,-9.2847,-9.1396,-9.0179,-9.1038,-9.0531,-8.9945,-9.0882,-8.9867,-8.8579,-8.8696,-8.8032,-8.7368,-8.7134,-8.6588,-8.6002,-8.5729,-8.5065,-8.4245,-8.3386,-8.3152,-8.2254,-7.9906,-7.9643,-7.9695,-7.9617,-7.9645,-7.9649,-7.9649,-7.9727,-7.9415,-7.8519,-7.9376,-7.8987,-7.6727,-7.7038,-7.696,-7.6181,-7.5624,-7.5779,-7.6606,-7.6153,-7.6235,-7.6922,-7.6769,-7.6612,-7.6498,-7.5731,-7.4174,-5.3524,-5.1836,-5.2691,-5.6628,-5.9504,-6.2845,-6.8182,-7.0359,-7.2009,-7.4721,-7.8615,-8.1851,-8.3157,-8.5563,-8.8154,0.0,-9.0982,-9.2022,-9.4362,-9.4288,-9.4435,-9.5545,-9.5461,-9.5665,-9.6399,-9.6175,-9.6249,-9.6749,-9.648,-9.6288,-9.6288,-9.6288,-9.6288,-9.6288,-9.6288,-9.6288,-9.6288,-9.6288,-9.6454,-9.6837,-9.6959,-9.7186,-9.7544,-9.7659,-9.7401,-9.6894,-9.6035,-9.5879,-9.623,-9.5871,-9.5923,-9.6242,-9.6249,-9.6562,-9.707,-9.7539,-9.7695,-9.7695,-9.7695,-9.7695,-9.7578,-9.6758,-9.6013,-9.5142,-9.3784,-9.2482,-9.1467,-9.135,-9.0687,-9.0062,-9.0452,-8.9984,-8.9477,-8.9477,-8.8774,-8.8032,-8.7525,-8.7095,-8.6705,-8.6197,-8.5807,-8.5456,-8.5065,-8.4597,-8.3731,-8.2163,-8.1468,-8.0934,-8.0357,-8.0285,-8.0078,-7.9571,-7.9961,-8.0117,-7.9766,-8.0389,-8.0117,-7.8558,-7.8363,-7.8053,-7.7525,-7.7155,-7.7292,-7.7996,-7.7548,-7.7189,-7.6999,-7.6844,-7.6496,-7.6,-7.5577,-7.5122,-5.6609,-5.7439,-6.0048,-6.3797,-6.7745,-7.1517,-7.4396,-7.6081,-7.7556,-7.9487,-8.1834,-8.3917,-8.5151,-8.7132,-8.9124,-9.0759,-9.1056,-9.1762,-9.3879,-9.3416,-9.3125,-9.3804,-9.3024,-9.3122,-9.4752,-9.4749,-9.498,-9.5865,-9.5942,-9.6057,-9.6288,-9.6288,-9.6288,-9.6288,-9.6288,-9.6288,-9.6288,-9.6358,-9.6607,-9.7005,-9.7069,-9.731,-9.7675,-9.744,-9.7011,-9.6347,-9.5254,-9.4942,-9.5176,-9.4923,-9.4989,-9.5195,-9.5195,-9.5586,-9.6211,-9.6797,-9.7304,-9.7695,-9.7695,-9.7695,-9.7617,-9.7031,-9.6679,-9.6246,-9.4972,-9.3973,-9.3107,-9.2248,-9.1546,-9.0999,-9.0765,-9.0531,-9.0374,-9.0374,-8.9672,-8.8813,-8.7954,-8.7564,-8.7212,-8.6588,-8.6275,-8.6197,-8.6431,-8.5722,-8.4934,-8.4286,-8.3449,-8.2396,-8.0986,-8.0584,-8.0195,-7.9571,-8.0273,-8.0818,-8.0818,-8.0818,-8.0623,-8.0234,-7.9454,-7.8883,-7.8629,-7.837,-7.8284,-7.84,-7.7979,-7.7456,-7.677,-7.688,-7.6455,-7.5577,-7.5842,-7.5994,-5.5758,-6.0364,-6.6356,-6.9367,-7.3571,-7.7767,-8.0119,-8.1277,-8.2085,-8.2892,-8.3799,-8.4424,-8.446,-8.5741,-8.7415,-8.9087,-8.9347,-9.0499,-9.3731,-9.3202,-9.243,-9.2101,-9.1072,-9.0638,0.0,-9.2787,-9.4095,-9.498,-9.5018,-9.5403,-9.6249,-9.6288,-9.6288,-9.6288,-9.6288,-9.6288,-9.6288,-9.6481,-9.6732,-9.7005,-9.7221,-9.7409,-9.7675,-9.6816,-9.6425,-9.6308,-9.4669,-9.4434,-9.5137,-9.4291,-9.4453,-9.5195,-9.5195,-9.5234,-9.5234,-9.5273,-9.6289,-9.7695,-9.7695,-9.7695,-9.7695,-9.7656,-9.7105,-9.6391,-9.6352,-9.5709,-9.4825,-9.3966,-9.3693,-9.3497,-9.2639,-9.1858,-9.1272,-9.1272,-9.0609,-8.9711,-8.8852,-8.7993,-8.7407,-8.7368,-8.6666,-8.6353,-8.7212,-8.6652,-8.6042,-8.5946,-8.5175,-8.3711,-8.1215,-8.009,-7.9532,-7.9493,-8.0273,-8.0818,-8.0818,-8.0818,-8.1169,-8.1948,-8.1208,-8.0635,-8.0434,-8.0174,-7.9481,-7.843,-7.7944,-7.7683,-7.7645,-7.8242,-7.8116,-7.7358,-7.8116,-7.7623,-6.3238,-6.7117,-7.0898,-7.6059,-7.9262,-8.1734,-8.356,-8.377,-8.356,-8.3279,-8.164,-8.037,-8.037,-8.1259,-8.2846,-8.5595,-8.7415,-8.9644,-9.2951,-9.1956,-9.0774,-9.0398,-8.9825,0.0,0.0,0.0,0.0,-9.4788,-9.498,-9.5365,-9.6249,-9.6288,-9.6288,-9.6288,-9.6288,-9.6358,-9.6481,-9.6568,-9.6799,-9.7221,-9.746,-9.7299,-9.6816,-9.5918,-9.5254,-9.4669,-9.3537,-9.321,-9.3432,-9.3163,-9.3203,-9.3476,-9.3476,-9.3828,-9.4336,-9.4336,-9.5429,-9.6914,-9.6914,-9.7265,-9.7695,-9.7719,-9.7505,-9.7148,-9.6602,-9.6198,-9.5762,-9.4903,-9.4239,-9.3732,-9.3458,-9.2717,-9.2092,-9.2092,-9.1467,-9.0765,-9.0492,-8.9281,-8.8266,-8.8266,-8.8032,-8.7908,-8.8127,-8.7963,-8.7555,-8.693,-8.5142,-8.3519,-8.2662,-8.1766,-8.1247,-8.1247,-8.1987,-8.2533,-8.2533,-8.2533,-8.2571,-8.2698,-8.1983,-8.1364,-8.0782,-8.0306,-7.9692,-7.8999,-7.8141,-7.7683,-7.7683,-7.7786,-7.7927,-7.8192,-7.7927,-7.7775,-6.9297,-7.3168,-7.6586,-8.1752,-8.3735,-8.4859,-8.6403,-8.5736,-8.4508,-8.3419,-8.0178,-7.73,-7.6758,-7.6056,-7.7125,-8.188,-8.3737,-8.6399,-9.1672,-9.0679,-8.9362,-8.8948,-8.8638,-8.8193,0.0,0.0,0.0,-9.3403,-9.421,-9.4903,-9.5788,-9.6134,-9.6288,-9.6288,-9.6288,-9.639,-9.659,-9.6704,-9.6966,-9.746,-9.7611,-9.7245,-9.6386,-9.5502,-9.4676,-9.3849,-9.2976,-9.2609,-9.2617,-9.2617,-9.2617,-9.2617,-9.2617,-9.2929,-9.3437,-9.3437,-9.4336,-9.5664,-9.6289,-9.7029,-9.7684,-9.7689,-9.7714,-9.7597,-9.7011,-9.6855,-9.6699,-9.5801,-9.5176,-9.4669,-9.4356,-9.3615,-9.2951,-9.2951,-9.2326,-9.1663,-9.135,-9.0413,-8.9555,-8.9242,-8.8884,-8.8759,-8.9017,-8.9038,-8.8628,-8.7442,-8.5819,-8.4637,-8.4364,-8.3585,-8.3039,-8.3039,-8.3546,-8.3858,-8.3858,-8.3585,-8.3414,-8.3465,-8.2742,-8.2065,-8.1393,-8.0974,-8.0439,-7.9666,-7.8942,-7.8596,-7.8517,-7.8656,-7.8685,-7.8609,-7.8382,-7.8268,-7.3861,-7.8504,-8.312,-8.6228,-8.693,-8.7246,-8.8685,-8.7106,-8.4929,-8.3244,-7.8853,-7.4849,-7.3327,0.0,-7.0698,-7.7942,-7.8796,-8.1513,-9.0042,-8.9664,-8.8302,-8.7912,-8.7655,-8.7478,-8.7401,-8.7478,0.0,-9.1018,0.0,-9.4018,-9.4941,-9.5826,-9.6288,-9.6288,-9.6288,-9.639,-9.6619,-9.6912,-9.7199,-9.7558,-9.7675,-9.7206,-9.6308,-9.5519,-9.4738,-9.3934,-9.308,-9.2695,-9.2656,-9.2656,-9.2656,-9.2617,-9.2617,-9.2617,-9.2617,-9.2617,-9.3164,-9.414,-9.5781,-9.6903,-9.7636,-9.7675,-9.7714,-9.7714,-9.7714,-9.7714,-9.7518,-9.6699,-9.6425,-9.623,-9.5371,-9.4512,-9.3849,-9.381,-9.3185,-9.2365,-9.1546,-9.1311,-9.1077,-9.0218,-8.9345,-8.8978,-8.9758,-8.9866,-8.9274,-8.7481,-8.7209,-8.6897,-8.604,-8.5221,-8.4715,-8.4754,-8.4715,-8.4715,-8.4832,-8.3974,-8.3711,-8.4301,-8.3544,-8.2786,-8.2247,-8.2208,-8.1594,-8.0392,-8.0235,-8.0154,-7.9988,-8.0699,-8.0239,-7.8761,-7.9519,-7.9102,-8.1081,-8.5053,-8.7547,-8.9989,-8.9932,-8.9247,-8.9037,-8.6298,-8.3033,-8.0151,-7.3261,-6.745,-6.6442,-6.5999,-6.7577,-7.3149,-7.8499,0.0,-8.9592,-8.9777,-8.9184,-8.8829,-8.9074,-8.8786,-8.7517,-8.8517,0.0,0.0,-9.221,-9.3441,-9.4903,-9.5826,-9.6288,-9.6288,-9.6288,-9.6487,-9.6912,-9.7325,-9.6929,-9.5762,-9.7089,-9.6894,-9.5449,-9.5886,-9.5636,-9.4879,-9.4648,-9.4179,-9.3554,-9.3554,-9.3203,-9.2617,-9.2617,-9.2617,-9.2617,-9.2617,-9.3164,-9.3945,-9.4396,-9.5502,-9.6855,-9.7479,-9.7714,-9.7714,-9.7714,-9.7714,-9.7636,-9.744,-9.6894,-9.6347,-9.6113,-9.541,-9.4591,-9.3966,-9.3615,-9.3224,-9.2365,-9.1702,-9.1233,-9.0999,-9.0734,-9.0384,-8.9972,-9.0366,-8.995,-8.7559,-8.7209,-8.6663,-8.5221,-8.4832,-8.4949,-8.5611,-8.5104,-8.5221,-8.6468,-8.5221,-8.4521,-8.4878,-8.4272,-8.3554,-8.2832,-8.2357,-8.1831,-8.1269,-8.054,-8.0154,-7.9988,-8.013,-8.0277,-8.0428,-8.0087,-8.0352,-8.6742,-8.964,-9.1151,-9.2425,-9.1186,-8.8931,-8.6087,-8.2611,-7.8317,-7.276,-6.6299,-6.1335,-6.0149,-6.0554,-6.3156,0.0,0.0,0.0,-8.8474,-8.9175,-8.9155,-8.9418,-8.9722,-8.9556,-8.8594,-8.9363,-9.0441,0.0,-9.2556,-9.3595,-9.4903,-9.5826,-9.6288,-9.6288,-9.6355,-9.6464,-9.6565,-9.7327,-9.7011,-9.5684,-9.705,-9.6972,-9.5684,-9.6191,-9.5953,-9.5195,0.0,-9.4922,-9.4453,-9.4062,-9.3594,-9.3125,-9.2734,-9.2617,-9.2617,-9.2617,-9.3164,-9.3944,-9.4342,-9.5332,-9.6464,-9.6972,-9.7401,-9.7714,-9.7714,-9.7714,-9.7714,-9.7714,-9.7362,-9.6972,-9.6972,-9.6308,-9.5567,-9.5059,-9.4669,-9.4122,-9.3263,-9.2717,-9.2163,-9.1406,-9.1525,-9.1442,-9.0599,-9.1119,-9.0794,-8.8144,-8.7754,-8.7014,-8.4949,-8.4715,-8.4871,-8.5377,-8.4988,-8.5221,-8.6546,-8.5455,-8.4816,-8.5075,-8.4776,-8.4309,-8.3601,-8.3255,-8.3141,-8.3252,-8.2292,-8.179,-8.1664,-8.1572,-8.1376,-8.1073,-8.0618,-8.0731,-9.1011,-9.2659,-9.3641,-9.3536,-9.1284,-8.7527,-8.1961,-7.7787,-7.2722,-6.4215,-5.9276,-5.6244,-5.5176,-5.5692,-5.9069,-6.7465,0.0,-7.9074,-8.7268,-8.8436,-8.8879,-8.995,-9.0094,-9.0094,-9.0094,-9.0171,-9.0941,-9.2556,-9.3403,-9.421,-9.4941,-9.5826,-9.6325,-9.6322,-9.6545,-9.6422,-9.6,-9.7007,-9.7089,-9.623,-9.7128,-9.7128,-9.6386,-9.6511,-9.6192,-9.5547,0.0,0.0,-9.5312,-9.4414,-9.3984,-9.3828,-9.2929,-9.2656,-9.2773,-9.2773,-9.332,-9.4179,-9.4928,-9.573,-9.6425,-9.6542,-9.7089,-9.7714,-9.7714,-9.7714,-9.7714,-9.7714,-9.7714,-9.7714,-9.7714,-9.7128,-9.6542,-9.6425,-9.5801,-9.502,-9.4161,-9.3888,-9.3365,-9.1837,-9.2,-9.212,-9.1261,-9.1807,-9.1534,-8.904,-8.8689,-8.7832,-8.5494,-8.491,-8.4754,-8.4871,-8.4676,-8.491,-8.5923,-8.5104,-8.466,-8.492,-8.4946,-8.4704,-8.4136,-8.4136,-8.4478,-8.5197,-8.4348,-8.3883,-8.3791,-8.3702,-8.2778,-8.1262,-8.1148,-8.0769,-9.2925,-9.4105,-9.4105,-9.3475,-9.1088,-8.7339,-8.0977,-7.5626,-6.9524,-6.1191,-5.5218,-5.2066,-5.3706,-5.5275,-5.9404,-6.8951,-7.4973,-8.0805,-8.7468,-8.8759,-8.9491,0.0,-9.0979,-9.0979,-9.0979,-9.1633,0.0,0.0,0.0,-9.4826,-9.498,-9.5826,-9.6394,-9.6537,-9.6812,-9.6642,-9.6,-9.6412,-9.6191,-9.5332,-9.6191,-9.6542,-9.6432,-9.7137,-9.7382,-9.7265,-9.7265,0.0,-9.6211,-9.5312,-9.4531,-9.3828,-9.2929,-9.3047,-9.3672,-9.3672,-9.4219,-9.5,-9.5067,-9.567,-9.6503,-9.7245,-9.7597,-9.7714,-9.7714,-9.7714,-9.7714,-9.7714,-9.7714,-9.7714,-9.7714,-9.7597,-9.7284,-9.6582,-9.6269,-9.5957,-9.5059,-9.4302,-9.37,-9.3359,-9.2819,-9.212,-9.1261,-9.1807,-9.1768,-8.9858,-8.9586,-8.9157,-8.7988,-8.6001,-8.4988,-8.5689,-8.4481,-8.4286,-8.5845,-8.452,-8.3765,-8.4082,-8.4095,-8.3817,-8.3257,-8.3219,-8.3562,-8.432,-8.4043,-8.3883,-8.3791,-8.3702,-8.3081,-8.2134,-8.1452,-8.1414,-9.4665,-9.5187,-9.4872,-9.3716,-9.059,-8.53,-7.5974,0.0,0.0,-5.2862,-4.8414,-4.6908,-4.8613,-5.1665,0.0,-6.3259,-6.872,-7.4903,-8.3041,-8.4396,-8.6164,-9.0675,-9.121,-9.1364,-9.1825,-9.2249,-9.3018,-9.4287,0.0,-9.5211,-9.5634,-9.6057,-9.6459,-9.6812,-9.6936,-9.674,-9.6196,-9.6792,-9.6628,-9.5787,-9.6667,-9.707,-9.7098,-9.7499,-9.7695,-9.7695,-9.7695,0.0,-9.707,-9.6211,-9.5351,-9.4492,-9.3633,-9.3515,-9.3906,-9.3906,-9.4723,-9.5806,-9.5806,-9.6334,-9.7167,-9.7558,-9.7714,-9.7714,-9.7714,-9.7714,-9.7714,-9.7714,-9.7714,-9.7714,-9.7714,-9.7714,-9.7597,-9.7167,-9.6386,-9.5606,-9.5176,-9.406,-9.3252,-9.3621,-9.3002,-9.2249,-9.1846,-9.2119,-9.1963,-9.0677,-9.0482,-9.017,-8.9274,-8.8105,-8.717,-8.6663,-8.5494,-8.5455,-8.717,-8.5728,-8.5088,-8.5849,-8.5449,-8.5128,-8.4977,-8.4517,-8.4818,-8.6074,-8.5486,-8.5127,-8.5082,-8.4947,-8.4484,-8.3688,-8.3271,-8.3309,-9.504,-9.5532,-9.5216,-9.3355,-8.9388,-8.2892,-7.1161,-6.4367,-5.7241,-4.5663,-4.2791,-4.2789,-4.414,-4.7913,-5.2516,0.0,-6.2402,-6.8792,-7.8637,-8.0428,-8.3252,-9.0098,-9.1095,0.0,-9.2402,-9.2672,0.0,-9.4864,0.0,0.0,-9.6249,-9.6322,-9.6545,-9.6982,-9.7048,-9.6943,-9.6699,-9.7167,-9.7181,-9.67,-9.7193,-9.7524,-9.7695,-9.7695,-9.7695,-9.7695,-9.7695,0.0,0.0,-9.6836,-9.6094,-9.539,-9.4531,-9.4297,-9.4453,-9.4451,-9.5372,-9.666,-9.6691,-9.7109,-9.7714,-9.7714,-9.7714,-9.7714,-9.7714,-9.7714,-9.7714,-9.7714,-9.7714,-9.7714,-9.7714,-9.7714,-9.7636,-9.7479,-9.623,-9.5098,-9.5098,-9.3856,-9.2919,-9.3582,-9.299,-9.2391,-9.2391,-9.2391,-9.2158,-9.1495,-9.1378,-9.1144,-9.0443,-9.0365,-8.982,-8.8456,-8.7248,-8.7053,-8.8378,-8.7131,-8.6605,-8.7359,-8.6764,-8.6439,-8.6545,-8.581,-8.6112,-8.7599,-8.6729,-8.6298,-8.6298,-8.616,-8.5697,-8.4901,-8.4901,-8.4901,-9.2863,-9.4338,-9.4198,-9.1248,-8.7,-8.069,-6.98,0.0,-5.5216,-4.4952,-4.181,-4.159,-4.398,-4.6177,0.0,0.0,0.0,-6.7649,-7.772,-8.0869,-8.4099,-8.9402,0.0,0.0,-9.2402,-9.3172,-9.398,-9.4903,0.0,0.0,-9.6288,-9.6448,-9.6704,-9.7005,-9.7186,-9.7357,-9.7597,-9.6855,-9.6894,-9.7565,-9.6866,-9.6914,-9.7695,-9.7695,-9.7695,-9.7695,-9.7695,0.0,0.0,-9.6836,-9.6445,-9.6289,-9.5429,-9.5547,-9.625,-9.6183,-9.6784,-9.7597,-9.7565,-9.7636,-9.7714,-9.7714,-9.7714,-9.7714,-9.7714,-9.7714,-9.7714,-9.7714,-9.7714,-9.7714,-9.7714,-9.7714,-9.7518,-9.6699,-9.5801,-9.5098,-9.5098,-9.4285,-9.3621,-9.3699,-9.299,-9.2391,-9.2391,-9.2391,-9.2391,-9.2274,-9.2274,-9.2235,-9.2158,-9.2158,-9.2119,-9.1924,-8.9742,-8.8339,-8.8495,-8.7637,-8.6917,-8.6546,-8.6416,-8.6169,-8.5665,-8.5467,-8.5845,-8.6684,-8.6425,-8.6298,-8.6298,-8.616,-8.5697,-8.4901,-8.4901,-8.4901,-9.2302,-9.4514,-9.4619,-9.1073,-8.7367,-8.1378,-6.9149,-6.1873,-5.4729,-4.4235,-4.0942,-4.0491,-4.2108,-4.3156,-4.5734,0.0,0.0,0.0,-6.8752,-7.1545,-7.5822,-8.5016,-8.7286,0.0,0.0,0.0,-9.4287,0.0,0.0,0.0,-9.6288,-9.6394,-9.6607,-9.6982,-9.709,-9.7325,-9.7714,-9.7343,-9.7343,-9.7714,-9.7338,-9.7344,-9.7695,-9.7695,-9.7695,-9.7695,-9.7695,0.0,0.0,-9.7344,-9.6953,-9.6484,-9.6133,-9.6172,-9.6484,-9.6478,-9.7008,-9.7714,-9.7714,-9.7714,-9.7714,-9.7714,-9.7714,-9.7714,-9.7714,-9.7714,-9.7714,-9.7714,-9.7714,-9.7714,-9.7714,-9.7714,-9.7479,-9.6621,-9.5723,-9.5098,-9.5098,-9.3973,-9.3114,-9.3621,-9.299,-9.2391,-9.2391,-9.2391,-9.2391,-9.2391,-9.2391,-9.2391,-9.2391,-9.2391,-9.2391,-9.2391,-9.0989,-9.0287,-9.0794,-9.0053,-8.9523,-8.9461,-8.8969,-8.8637,-8.8571,-8.7943,-8.7927,-8.8771,-8.8539,-8.8132,-8.7686,-8.7592,-8.744,-8.7137,-8.6644,-8.6682,-9.0827,-9.3741,-9.4022,-9.0406,-8.6029,-7.9637,-6.8177,-6.0322,-5.2846,-4.3526,-4.0536,-3.9821,-4.0571,-4.1187,-4.2774,0.0,0.0,-5.1933,-6.205,-6.5089,-6.9821,-7.9477,0.0,-8.5517,0.0,-9.3133,-9.498,0.0,0.0,0.0,-9.6288,-9.6288,-9.6519,-9.6982,-9.7069,-9.731,-9.7714,-9.7701,-9.7706,-9.7706,-9.7684,-9.7693,-9.7695,-9.7695,-9.7695,-9.7695,-9.7695,0.0,0.0,-9.7695,-9.7383,-9.6836,-9.6836,-9.6836,-9.6836,-9.6835,-9.7215,-9.7689,-9.7721,-9.7714,-9.7714,-9.7714,-9.7714,-9.7714,-9.7714,-9.7714,-9.7714,-9.7714,-9.7714,-9.7714,-9.7714,-9.7518,-9.7167,-9.6542,-9.5723,-9.5098,-9.5091,-9.412,-9.3348,-9.3649,-9.3211,-9.2703,-9.243,-9.2391,-9.2391,-9.2391,-9.2391,-9.2391,-9.2391,-9.2625,-9.2781,-9.2781,-9.2235,-9.2002,-9.2391,-9.1846,-9.1507,-9.1511,-9.0903,-9.0564,-9.0597,-8.9806,-8.9679,-9.0167,-9.002,-8.9459,-8.8615,-8.8615,-8.8463,-8.8236,-8.7668,-8.7705,-8.7702,-9.1354,-9.1775,-8.8685,-8.1882,-7.4079,-6.6495,-5.7376,-4.8812,-4.2823,-4.0654,-3.9797,-3.9797,-4.0921,-4.2354,-4.4047,0.0,0.0,-5.9973,-6.4436,-6.8706,0.0,0.0,-7.94,-8.4516,-9.1825,0.0,0.0,0.0,0.0,-9.6288,-9.6288,-9.6519,-9.6982,-9.7204,-9.7448,-9.7714,-9.7714,-9.7706,-9.7695,-9.7706,-9.7711,-9.7695,-9.7695,-9.7695,0.0,0.0,0.0,0.0,-9.7695,-9.7695,-9.7695,-9.7695,-9.7695,-9.7695,-9.7687,-9.768,-9.7715,-9.7689,-9.7714,-9.7714,-9.7714,-9.7714,-9.7714,-9.7714,-9.7714,-9.7714,-9.7714,-9.7714,-9.7714,-9.7714,-9.705,-9.6425,-9.6386,-9.5723,-9.5091,-9.5104,-9.5046,-9.4702,-9.386,-9.3705,-9.3405,-9.2547,-9.2391,-9.2391,-9.2391,-9.2391,-9.2391,-9.2391,-9.3132,-9.3677,-9.3677,-9.3677,-9.3327,-9.2469,-9.2391,-9.213,-9.155,-9.1484,-9.122,-9.0635,-9.0427,-9.034,-9.0205,-9.0067,-8.9555,-8.8615,-8.8615,-8.8198,-8.7402,-8.7402,-8.7402,-7.4923,-7.8858,-8.0282,-7.6604,-7.3617,-6.9441,-6.1534,-5.5249,-4.9342,-4.3079,-4.074,-3.9861,-4.0042,-4.0551,-4.2624,-4.7817,-5.001,0.0,0.0,0.0,0.0,-7.1283,-8.0131,-8.7478,0.0,0.0,0.0,0.0,0.0,0.0,-9.6288,-9.6288,-9.6519,-9.6982,-9.7069,-9.731,-9.7714,-9.7714,-9.7706,-9.7695,-9.7693,-9.7693,-9.7695,-9.7695,-9.7695,0.0,0.0,0.0,0.0,-9.7695,-9.7695,-9.7695,-9.7695,-9.7695,-9.7695,-9.7711,-9.7695,-9.7689,-9.7721,-9.7714,-9.7714,-9.7714,-9.7714,-9.7714,-9.7714,-9.7714,-9.7714,-9.7714,-9.7714,-9.7714,-9.7714,-9.7518,-9.7284,-9.7284,-9.6621,-9.5988,-9.6011,-9.5476,-9.4937,-9.464,-9.4563,-9.4418,-9.4145,-9.4106,-9.4106,-9.4106,-9.3638,-9.3288,-9.3288,-9.3521,-9.3482,-9.2898,-9.3327,-9.3599,-9.3327,-9.2742,-9.213,-9.155,-9.1522,-9.122,-9.0635,-8.9888,-8.9679,-9.0167,-8.945,-8.8625,-8.7781,-8.835,-8.7895,-8.653,-8.7137,-8.7099,-6.7024,-7.1549,-7.3046,-7.0196,-6.7667,-6.422,-5.7935,-5.2475,-4.7447,-4.2865,-4.0858,-4.0002,-4.0177,-4.0624,-4.2393,-4.6663,-4.9471,0.0,0.0,0.0,0.0,-7.1745,0.0,0.0,0.0,0.0,0.0,0.0,0.0,0.0,-9.6288,-9.6288,-9.6454,-9.6837,-9.6959,-9.7168,-9.7561,-9.7628,-9.7706,-9.7687,-9.7694,-9.7695,-9.7695,-9.7695,-9.7695,0.0,0.0,0.0,0.0,-9.7695,-9.7695,-9.7695,-9.7695,-9.7694,-9.7684,-9.7706,-9.7689,-9.7714,-9.7714,-9.7714,-9.7714,-9.7714,-9.7714,-9.7714,-9.7714,-9.7714,-9.7714,-9.7714,-9.7714,-9.7714,-9.7714,-9.7714,-9.7714,-9.7714,-9.7284,-9.6886,-9.6851,-9.6402,-9.5873,-9.5511,-9.5406,-9.5275,-9.4963,-9.4885,-9.4885,-9.4885,-9.4457,-9.4145,-9.4145,-9.4418,-9.4457,-9.3872,-9.4301,-9.4651,-9.4651,-9.3249,-9.213,-9.155,-9.1174,-9.0873,-9.0635,-8.9583,-8.926,-8.9748,-8.9032,-8.8094,-8.6909,-8.7402,-8.7289,-8.6606,-8.6796,-8.6644,0.0,-6.7354,-6.8342,-6.7222,-6.2947,-5.8215,-5.5186,-4.9233,0.0,-4.2243,-4.0994,-4.0252,-4.0386,-4.1161,-4.197,-4.2431,-4.7971,0.0,0.0,-5.905,0.0,0.0,-7.9323,0.0,0.0,0.0,0.0,0.0,0.0,0.0,-9.6288,-9.6288,-9.6355,-9.6568,-9.6837,-9.7069,-9.7277,-9.7581,-9.7706,-9.7682,-9.7689,-9.7695,-9.7695,-9.7695,-9.7695,0.0,0.0,0.0,0.0,-9.7695,-9.7695,-9.7695,-9.7695,-9.7684,-9.7721,-9.7711,-9.7701,-9.7714,-9.7714,-9.7714,-9.7714,-9.7714,-9.7714,-9.7714,-9.7714,-9.7714,-9.7714,-9.7714,-9.7714,-9.7714,-9.7714,-9.7714,-9.7714,-9.7714,-9.7714,-9.7659,-9.7611,-9.76,-9.7343,-9.6458,-9.6288,-9.6054,-9.5236,-9.508,-9.508,-9.508,-9.5041,-9.5002,-9.5002,-9.5704,-9.6171,-9.6093,-9.6171,-9.6171,-9.6093,-9.3872,-9.2247,-9.1655,-9.0749,-9.0404,-9.0638,-8.9549,-8.8962,-8.8987,-8.8737,-8.7847,-8.6303,-8.6227,-8.6606,-8.7364,-8.6568,-8.6151,-4.9603,0.0,-5.3435,-5.2308,-5.1279,-5.0194,0.0,-4.5935,-4.3246,-4.2397,-4.114,-4.0633,-4.2155,-4.2091,-4.3508,-4.8702,0.0,0.0,-5.6626,0.0,0.0,-8.417,-8.744,-9.0402,0.0,0.0,0.0,0.0,0.0,-9.6288,0.0,-9.6288,-9.6325,-9.6394,-9.6628,-9.6991,-9.7358,-9.7597,-9.7706,-9.7691,-9.7695,-9.7695,-9.7695,-9.7695,-9.7695,0.0,0.0,0.0,-9.7695,-9.7695,-9.7695,-9.7695,-9.7715,-9.7689,-9.7714,-9.7682,-9.7682,-9.7714,-9.7714,-9.7714,-9.7714,-9.7714,-9.7714,-9.7714,-9.7714,-9.7714,-9.7714,-9.7714,-9.7714,-9.7714,-9.7714,-9.7714,-9.7714,-9.7714,-9.7659,-9.7602,-9.7611,-9.7577,-9.7513,-9.7238,-9.7184,-9.7145,-9.6912,-9.6873,-9.6873,-9.6873,-9.6327,-9.5898,-9.5898,-9.6054,-9.5937,-9.5275,-9.5782,-9.5937,-9.5275,-9.4106,-9.3194,-9.2751,-9.1759,-9.1122,-9.0915,-8.9061,-8.8346,-8.8987,-8.7505,-8.7184,-8.8009,-8.7402,-8.7213,-8.7402,-8.7175,-8.6417,-4.4309,-4.6793,-4.8875,-4.8126,-4.8083,-4.7884,-4.6414,-4.4365,-4.2624,-4.2009,-4.1055,-4.0795,-4.2223,-4.2431,-4.3855,-4.8279,-5.2125,0.0,0.0,0.0,-7.7284,-8.7979,-9.0402,0.0,0.0,0.0,0.0,0.0,0.0,0.0,0.0,-9.5903,-9.5903,-9.6288,-9.6184,-9.645,-9.7121,-9.7464,-9.7602,-9.7617,-9.7656,-9.7695,-9.7695,-9.7695,-9.7695,0.0,0.0,0.0,-9.7695,-9.7695,-9.7695,-9.7695,-9.7701,-9.7714,-9.7714,-9.7714,-9.7714,-9.7714,-9.7714,-9.744,-9.705,-9.6621,-9.6777,-9.7011,-9.6621,-9.705,-9.7714,-9.7714,-9.7714,-9.7714,-9.7714,-9.7714,-9.7714,-9.7714,-9.7659,-9.7593,-9.7611,-9.7616,-9.7578,-9.7511,-9.7496,-9.7496,-9.7496,-9.7496,-9.7496,-9.7496,-9.7106,-9.6795,-9.6795,-9.6795,-9.66,-9.6132,-9.6522,-9.66,-9.6132,-9.5314,-9.4535,-9.3797,-9.2316,-9.1531,-9.1598,-8.9485,-8.8295,-8.8235,-8.6464,-8.6189,-8.744,-8.7023,-8.7023,-8.7402,-8.6985,-8.6341,-4.3759,-4.6728,-4.9379,-4.8444,-4.8293,-4.7843,-4.5881,-4.3905,-4.2344,-4.1894,-4.1297,-4.1239,-4.2393,-4.3278,-4.4586,0.0,0.0,0.0,-7.2014,-7.5091,-7.9669,-8.9325,0.0,0.0,0.0,0.0,0.0,0.0,0.0,0.0,0.0,-9.5211,-9.5134,-9.594,-9.5508,-9.5571,-9.6198,-9.7045,-9.7472,-9.75,-9.7617,-9.7695,-9.7695,-9.7695,-9.7695,0.0,0.0,0.0,-9.7695,-9.7695,-9.7695,-9.7695,-9.7706,-9.7721,-9.7714,-9.7714,-9.7714,-9.7675,-9.7558,-9.6933,-9.6074,-9.5332,-9.5606,-9.6074,-9.5332,-9.623,-9.7518,-9.7518,-9.7597,-9.7714,-9.7714,-9.7714,-9.7714,-9.7714,-9.7659,-9.7593,-9.7611,-9.7577,-9.7578,-9.7496,-9.7496,-9.7496,-9.7496,-9.7496,-9.7496,-9.7496,-9.7496,-9.7496,-9.7496,-9.7496,-9.7496,-9.7496,-9.7496,-9.7496,-9.7496,-9.6834,-9.5992,-9.5029,-9.2935,-9.1724,-9.1792,-9.002,-8.8471,-8.7402,-8.5886,-8.5469,-8.6303,-8.6303,-8.6682,-8.7402,-8.6758,-8.6341,-4.6136,-4.8381,-4.9154,-4.5658,-4.5287,-4.5642,-4.4749,-4.3931,-4.3369,-4.3497,-4.3061,-4.3393,-4.5701,-4.6778,-4.8817,0.0,0.0,-6.8667,0.0,0.0,-8.4939,0.0,0.0,0.0,0.0,0.0,0.0,0.0,0.0,0.0,0.0,-9.398,-9.4016,-9.424,-9.4227,-9.3971,-9.3427,-9.6023,-9.7377,-9.75,-9.7539,-9.7578,-9.7695,-9.7695,-9.7695,0.0,0.0,-9.7695,-9.7695,-9.7695,-9.7695,-9.7695,-9.7684,-9.7701,-9.7714,-9.7714,-9.7714,-9.7597,-9.6855,-9.6035,-9.5293,-9.5137,-9.5176,-9.5254,-9.5137,-9.5801,-9.6582,-9.6582,-9.7128,-9.7714,-9.7714,-9.7714,-9.7714,-9.7714,-9.7641,-9.7611,-9.76,-9.7552,-9.7511,-9.7496,-9.7496,-9.7496,-9.7496,-9.7496,-9.7496,-9.7496,-9.7496,-9.7496,-9.7496,-9.7496,-9.7496,-9.7496,-9.7496,-9.7496,-9.7496,-9.7379,-9.7208,-9.7037,-9.4273,-9.1682,-8.9588,-8.919,-8.8516,-8.7402,-8.6417,-8.6341,-8.7213,-8.7213,-8.7289,-8.7402,-8.7971,-8.7478,-4.4531,-4.5815,-4.6884,-4.7256,-4.8296,-4.8587,-4.6218,-4.5491,-4.5141,-4.4712,-4.4421,-4.4902,-4.7145,0.0,-5.5318,-6.2704,0.0,-7.3783,-8.1246,-8.3824,-8.6978,0.0,0.0,0.0,0.0,0.0,0.0,0.0,0.0,0.0,0.0,0.0,-9.3284,-9.389,-9.3528,-9.3361,-9.3493,-9.4472,-9.504,-9.519,-9.5363,-9.5703,-9.6211,-9.6797,-9.7031,-9.707,0.0,-9.7695,-9.7695,-9.7695,-9.7693,-9.7715,-9.7719,-9.7706,-9.7714,-9.7714,-9.7401,-9.6855,-9.5996,-9.5137,-9.4317,-9.3849,-9.4005,-9.4317,-9.3849,-9.4942,-9.6308,-9.584,-9.666,-9.7714,-9.7714,-9.7714,-9.7675,-9.7659,-9.7632,-9.76,-9.7616,-9.7539,-9.7496,-9.7496,-9.7496,-9.7496,-9.7496,-9.7496,-9.7496,-9.7496,-9.7496,-9.7496,-9.7496,-9.7496,-9.7496,-9.7496,-9.7496,-9.7496,-9.7496,-9.7496,-9.7143,-9.6344,-9.4512,-9.2536,-9.0441,-8.9482,-8.8707,-8.8047,-8.7251,-8.6985,-8.7402,-8.7402,-8.7402,-8.7402,-8.7781,-8.7554,-4.3732,-4.4278,-4.5472,-4.9224,-5.0822,-5.1191,-5.0193,-4.9302,-4.8749,-4.8958,-4.8449,-4.8464,0.0,-5.5511,0.0,-6.9937,-7.4514,-7.8592,-8.2901,-8.5517,0.0,0.0,0.0,0.0,0.0,0.0,0.0,0.0,0.0,0.0,0.0,0.0,-9.255,-9.3307,-9.2718,-9.2581,-9.2943,-9.2383,-9.2489,-9.3186,-9.3458,-9.3962,-9.4648,-9.5664,-9.6133,-9.625,-9.707,-9.7422,-9.7422,-9.7615,-9.7715,-9.7714,-9.7706,-9.7701,-9.7675,-9.7479,-9.6855,-9.5957,-9.5098,-9.4239,-9.338,-9.2717,-9.2951,-9.338,-9.2717,-9.4044,-9.5684,-9.5215,-9.6191,-9.744,-9.7636,-9.7714,-9.7667,-9.7602,-9.7583,-9.7589,-9.7591,-9.7564,-9.7496,-9.7496,-9.7496,-9.7496,-9.7496,-9.7496,-9.7496,-9.7496,-9.7496,-9.7496,-9.7496,-9.7496,-9.7496,-9.7496,-9.7496,-9.7496,-9.7496,-9.7496,-9.6973,-9.5763,-9.479,-9.3461,-9.168,-9.0288,-8.9345,-8.888,-8.8084,-8.7668,-8.7668,-8.7668,-8.7668,-8.7705,-8.7857,-8.7857,-4.6764,-4.6913,-4.6921,-4.9485,-4.9076,-5.0001,-5.7604,-5.6752,-5.5455,-5.9397,-5.8081,-5.6412,-5.7396,-6.3051,-6.859,-7.1591,-7.89,0.0,0.0,0.0,0.0,0.0,0.0,0.0,0.0,0.0,0.0,0.0,0.0,0.0,0.0,0.0,0.0,-9.1561,-9.1515,-9.0844,-8.9588,-8.9511,-9.0737,-9.3203,-9.3219,-9.3411,-9.3828,-9.4648,-9.5117,-9.5351,-9.6211,-9.6601,-9.664,-9.7394,-9.7721,-9.7714,-9.7714,-9.7714,-9.7597,-9.6777,-9.5957,-9.5059,-9.42,-9.3302,-9.2561,-9.2522,-9.2522,-9.2561,-9.2522,-9.3185,-9.4122,-9.4903,-9.5762,-9.6699,-9.7479,-9.7714,-9.7667,-9.7602,-9.7583,-9.7589,-9.7591,-9.7564,-9.7496,-9.7496,-9.7496,-9.7496,-9.7496,-9.7496,-9.7496,-9.7496,-9.7496,-9.7496,-9.7496,-9.7496,-9.7496,-9.7496,-9.7496,-9.7496,-9.7496,-9.7496,-9.7299,-9.6927,-9.5736,-9.4039,-9.1944,-9.14,-9.0694,-8.9714,-8.8918,-8.8501,-8.8501,-8.8501,-8.8501,-8.8539,-8.9297,-8.9222,-4.4482,-4.5239,-4.6921,-5.1899,-5.3681,-5.5095,-5.8532,-6.0676,-6.2667,-6.5255,-6.4772,-6.4166,-6.5218,0.0,-7.2129,-7.6245,0.0,0.0,0.0,0.0,0.0,0.0,0.0,0.0,0.0,0.0,0.0,0.0,0.0,0.0,0.0,0.0,0.0,-9.14,-9.14,-9.0921,-8.9975,-8.9433,-8.9433,-8.9925,-9.0544,-9.1447,-9.2593,-9.3521,-9.4021,-9.4138,-9.507,-9.5504,-9.5563,-9.6517,-9.6908,-9.6964,-9.7487,-9.7714,-9.7675,-9.7323,-9.6308,-9.5059,-9.4708,-9.3693,-9.2482,-9.2482,-9.2482,-9.2482,-9.2482,-9.3107,-9.3966,-9.4864,-9.5723,-9.6582,-9.7479,-9.7667,-9.765,-9.7622,-9.7589,-9.7604,-9.7564,-9.7511,-9.7496,-9.7496,-9.7496,-9.7496,-9.7496,-9.7496,-9.7496,-9.7496,-9.7496,-9.7496,-9.7496,-9.7496,-9.7496,-9.7496,-9.7496,-9.7496,-9.7496,-9.7496,-9.7394,-9.7186,-9.588,-9.4613,-9.3561,-9.2093,-9.1074,-9.0624,-8.979,-8.9335,-8.9335,-8.9335,-8.9335,-8.9335,-8.9676,-8.9638,-4.3469,-4.4085,-4.6252,-5.2011,-5.5808,-5.8914,-6.2089,-6.5653,-6.904,-7.156,-7.0815,-6.9808,-7.0025,-7.1898,0.0,0.0,0.0,0.0,0.0,0.0,0.0,0.0,0.0,0.0,0.0,0.0,0.0,0.0,0.0,0.0,0.0,0.0,0.0,0.0,-9.1161,-9.072,-9.0014,-8.9201,-8.8621,-8.8312,-8.8737,-8.9665,-9.1135,-9.2382,-9.2929,-9.3025,-9.4028,-9.4442,-9.4604,-9.5541,-9.61,-9.6495,-9.7369,-9.7714,-9.7636,-9.7089,-9.6113,-9.502,-9.4473,-9.3497,-9.2482,-9.2482,-9.2482,-9.2482,-9.2482,-9.2912,-9.3576,-9.4434,-9.5332,-9.6191,-9.7042,-9.7464,-9.7641,-9.7611,-9.7589,-9.7591,-9.7511,-9.7496,-9.7496,-9.7496,-9.7496,-9.7418,-9.7145,-9.7106,-9.7106,-9.7106,-9.7106,-9.7184,-9.7457,-9.7496,-9.7496,-9.7496,-9.7496,-9.7496,-9.7496,-9.7496,-9.7449,-9.7343,-9.6178,-9.5225,-9.4599,-9.2932,-9.1746,-9.1117,-9.051,-9.0055,-8.979,-8.979,-8.979,-8.979,-8.979,-8.979,-4.4624,-4.4123,-4.5026,-4.915,-5.42,-6.0566,-6.9712,-7.2434,-7.4354,-7.8849,-7.6456,-7.3053,-7.1283,-7.3745,-7.6592,-7.8246,-8.4247,0.0,0.0,0.0,0.0,0.0,0.0,0.0,0.0,0.0,0.0,0.0,0.0,0.0,0.0,0.0,0.0,0.0,-9.072,-8.9929,-8.9201,-8.835,-8.835,-8.9163,-8.8312,-8.8428,-8.9472,-9.1135,-9.1948,-9.2141,-9.302,-9.35,-9.3739,-9.4559,-9.548,-9.6464,-9.7362,-9.7675,-9.7479,-9.5762,-9.5098,-9.4825,-9.3107,-9.2522,-9.2482,-9.2482,-9.2482,-9.2482,-9.2482,-9.2482,-9.2678,-9.3537,-9.4434,-9.5286,-9.6167,-9.7034,-9.7667,-9.7611,-9.76,-9.7589,-9.7511,-9.7496,-9.7496,-9.7496,-9.7496,-9.7223,-9.6366,-9.621,-9.621,-9.621,-9.621,-9.6522,-9.7379,-9.7496,-9.7496,-9.7496,-9.7496,-9.7496,-9.7496,-9.7496,-9.7481,-9.7394,-9.6773,-9.588,-9.4753,-9.3991,-9.2822,-9.1155,-9.1079,-9.0662,-8.979,-8.979,-8.979,-8.979,-8.979,-8.979,-4.358,-4.576,-4.9485,-5.4128,-6.0671,-6.7672,-7.444,-7.7141,-7.9354,-8.3367,-8.1349,-7.8323,-7.6553,-7.7592,0.0,-8.0131,-8.5016,0.0,0.0,0.0,0.0,0.0,0.0,0.0,0.0,0.0,0.0,0.0,0.0,0.0,0.0,0.0,0.0,0.0,-9.075,-8.9929,-8.9201,-8.835,-8.8041,-8.8312,-8.8621,-8.9588,-9.1019,-9.0903,-9.1213,-9.1832,-9.2224,-9.2494,-9.265,-9.3693,-9.4643,-9.5508,-9.6437,-9.6391,-9.588,-9.5971,-9.5254,-9.4122,-9.3576,-9.299,-9.2482,-9.2482,-9.2482,-9.2482,-9.2482,-9.2482,-9.2678,-9.3537,-9.4005,-9.4544,-9.6011,-9.6596,-9.6939,-9.746,-9.7604,-9.7591,-9.7511,-9.7496,-9.7496,-9.7496,-9.7496,-9.7418,-9.7145,-9.7106,-9.7106,-9.7106,-9.7106,-9.7223,-9.7457,-9.7496,-9.7496,-9.7496,-9.6951,-9.6834,-9.7457,-9.6951,-9.653,-9.6408,-9.5725,-9.5456,-9.5668,-9.444,-9.315,-9.195,-9.1382,-9.0662,-8.979,-8.979,-8.979,-8.979,-8.979,-8.979,-4.5754,-4.9148,-5.3794,-5.8698,-6.4681,-7.1283,-7.8426,-8.1022,-8.2719,-8.5527,-8.3708,-8.1362,-8.0669,-8.0669,0.0,-8.2401,0.0,0.0,0.0,0.0,0.0,0.0,0.0,0.0,0.0,0.0,0.0,0.0,0.0,0.0,0.0,0.0,0.0,0.0,-9.0277,-8.9455,-8.8698,-8.7809,-8.7577,-8.7925,-8.8428,-8.9549,-9.1174,-9.0981,-9.1213,-9.1677,-9.1541,-9.1339,-9.116,-9.2261,-9.3185,-9.4001,-9.4957,-9.5233,-9.5078,-9.5298,-9.4694,-9.3757,-9.3387,-9.2951,-9.2482,-9.2482,-9.2482,-9.2482,-9.2482,-9.2482,-9.26,-9.3146,-9.3537,-9.4037,-9.5056,-9.5602,-9.6188,-9.7331,-9.7591,-9.7578,-9.7511,-9.7223,-9.6989,-9.6989,-9.6989,-9.6873,-9.6522,-9.6756,-9.6989,-9.6989,-9.7262,-9.7496,-9.7496,-9.7184,-9.6989,-9.6989,-9.6522,-9.6249,-9.6444,-9.6288,-9.6024,-9.5608,-9.486,-9.4795,-9.5546,-9.4364,-9.3302,-9.2329,-9.1799,-9.1155,-9.0321,-8.998,-8.979,-8.979,-8.979,-8.979,-4.9668,-5.3274,-5.7806,-6.2822,-6.7486,-7.3079,-8.162,-8.3971,-8.4709,-8.5873,-8.4247,-8.2901,-8.367,-8.317,-8.3208,0.0,0.0,0.0,0.0,0.0,0.0,0.0,0.0,0.0,0.0,0.0,0.0,0.0,0.0,0.0,0.0,0.0,0.0,-9.0209,-8.9483,-8.8698,-8.7925,-8.7035,-8.7035,0.0,-8.7925,-8.8737,-9.0323,-9.1174,-9.16,-9.155,-9.088,-9.0188,-8.9606,-9.056,-9.1408,-9.2163,-9.3087,-9.3952,-9.4543,-9.3906,-9.367,-9.3551,-9.2663,-9.2372,-9.2372,-9.2404,-9.2404,-9.2404,-9.2482,-9.2482,-9.2482,-9.2482,-9.3068,-9.3685,-9.372,-9.4344,-9.5359,-9.698,-9.7435,-9.7461,-9.7511,-9.6834,-9.621,-9.621,-9.621,-9.5937,-9.5158,-9.5743,-9.6327,-9.6327,-9.6989,-9.7457,-9.7379,-9.6678,-9.6171,-9.6093,-9.6015,-9.5665,-9.4963,-9.5548,-9.5611,-9.4824,-9.4098,-9.3901,-9.4429,-9.3823,-9.3088,-9.2329,-9.2216,-9.1799,-9.0965,-9.0207,-8.979,-8.979,-8.979,-8.979,-4.8776,-5.4054,-6.0481,-6.6054,-7.3504,-8.0401,-8.3642,-8.509,-8.5762,-8.6022,-8.567,-8.5324,-8.5517,-8.5401,0.0,0.0,0.0,0.0,0.0,0.0,0.0,0.0,0.0,0.0,0.0,0.0,0.0,0.0,0.0,0.0,0.0,0.0,0.0,-8.9444,-8.8621,-8.8079,-8.7925,-8.7035,-8.7035,0.0,-8.7925,-8.8466,-8.9472,-9.0323,-9.0726,-9.0816,-9.0081,-8.9702,-8.9583,-8.9885,-9.0112,-9.0337,-9.122,-9.171,-9.1915,-9.2507,-9.2681,-9.2567,-9.1756,-9.1473,-9.147,-9.1559,-9.1546,-9.1663,-9.2326,-9.2482,-9.2482,-9.2482,-9.2639,-9.2944,-9.3582,-9.3876,-9.4245,-9.5303,-9.607,-9.6759,-9.7394,-9.6834,-9.621,-9.621,-9.621,-9.6132,-9.5937,-9.6639,-9.7223,-9.7223,-9.7379,-9.7262,-9.6561,-9.6327,-9.5937,-9.5236,-9.4613,-9.4418,-9.4846,-9.4496,-9.4145,-9.3974,-9.3142,-9.2473,-9.1908,-9.2465,-9.2581,-9.2292,-9.1685,-9.0927,-9.0093,-8.9904,-8.979,-8.979,-8.979,-8.979,-5.0525,-5.6357,-6.3156,-7.1626,-7.8301,-8.324,-8.4901,-8.5664,-8.6094,-8.6094,-8.6094,-8.6094,-8.6094,0.0,0.0,0.0,0.0,0.0,0.0,0.0,0.0,0.0,0.0,0.0,0.0,0.0,0.0,0.0,0.0,0.0,0.0,-8.8393,-8.8295,-8.7963,-8.7112,-8.6455,-8.6068,-8.5643,-8.5836,-8.6648,-8.7074,-8.7952,-8.9216,-9.0068,-9.0082,-8.9406,-8.9421,-8.9041,-8.8342,-8.838,-8.8652,-8.906,-8.9551,-8.9971,-9.0454,-9.1369,-9.1484,-9.1109,-9.1131,-9.0897,-9.0582,-9.0666,-9.0687,-9.0765,-9.1194,-9.1585,-9.1936,-9.1936,-9.2209,-9.26,-9.3045,-9.3135,-9.3337,-9.4172,-9.5355,-9.6356,-9.6795,-9.6171,-9.5587,-9.5587,-9.5275,-9.5119,-9.5509,-9.6639,-9.7496,-9.7496,-9.7145,-9.6717,-9.6249,-9.5509,-9.4846,-9.4379,-9.395,-9.3716,-9.3716,-9.3716,-9.3453,-9.2791,-9.2134,-9.165,-9.1405,-9.1261,-9.1356,-9.1723,-9.1306,-9.0889,-9.0434,-9.0017,-8.979,-8.979,-8.979,-8.979,-5.1751,-5.8512,-6.6017,-7.6712,-8.1207,0.0,-8.5372,-8.5858,-8.594,-8.6055,-8.6094,-8.6094,0.0,0.0,0.0,0.0,0.0,0.0,0.0,0.0,0.0,0.0,0.0,0.0,0.0,0.0,0.0,0.0,0.0,0.0,-8.7185,-8.734,-8.7074,-8.6184,-8.5488,-8.4753,-8.4095,-8.4095,-8.4443,-8.5101,-8.5797,-8.701,-8.8571,-8.9488,-8.9305,-8.8344,-8.88,-8.8339,-8.7215,-8.7059,-8.7409,-8.8069,-8.807,-8.8595,-8.9487,-9.0259,-9.0158,-8.9793,-9.0447,-9.0231,-8.9686,-8.9744,-8.9763,-8.9802,-8.9952,-9.0492,-9.1116,-9.1272,-9.178,-9.2326,-9.2459,-9.252,-9.2685,-9.3314,-9.464,-9.582,-9.5937,-9.5314,-9.469,-9.469,-9.4262,-9.4223,-9.5158,-9.6522,-9.7457,-9.7301,-9.6639,-9.6093,-9.582,-9.4574,-9.3638,-9.3482,-9.3482,-9.3171,-9.2469,-9.3054,-9.2977,-9.1773,-9.1329,-9.1202,-9.1447,-9.0388,-9.0131,-9.0851,-9.0889,-9.0889,-9.0851,-9.0169,-8.979,-8.979,-8.979,-8.979,-4.759,0.0,-6.9495,0.0,-8.017,-8.1962,0.0,0.0,-8.5247,0.0,0.0,0.0,0.0,0.0,0.0,0.0,0.0,0.0,0.0,0.0,0.0,0.0,0.0,0.0,0.0,0.0,0.0,0.0,0.0,0.0,-8.5506,-8.5589,-8.5256,-8.4443,-8.4327,-8.4211,-8.4095,-8.4095,-8.4134,-8.425,-8.4378,-8.497,-8.5938,-8.6948,-8.8041,-8.9188,-8.7873,-8.7642,-8.8069,-8.7292,-8.7059,-8.7176,-8.7196,-8.7701,-8.8478,-8.8632,-8.9039,-8.9541,-8.9036,-8.8774,-8.8681,-8.8789,-8.8781,-8.8935,-8.9763,-9.0062,-9.0335,-9.1077,-9.1389,-9.1624,-9.2326,-9.249,-9.2529,-9.2646,-9.338,-9.4223,-9.4924,-9.4418,-9.3872,-9.3872,-9.434,-9.5236,-9.6873,-9.734,-9.7223,-9.6483,-9.6249,-9.5665,-9.4223,-9.3833,-9.3405,-9.2664,-9.2586,-9.2547,-9.243,-9.2508,-9.2299,-9.1734,-9.1329,-9.0971,-9.0683,-9.0121,-8.9866,-8.998,-8.998,-8.998,-8.998,-8.9866,-8.979,-8.979,-8.979,-8.979,-5.0847,-6.0711,-7.0098,0.0,-7.9418,-8.0618,-8.3332,0.0,-8.4286,0.0,0.0,0.0,0.0,0.0,0.0,0.0,0.0,0.0,0.0,0.0,0.0,0.0,0.0,0.0,0.0,0.0,0.0,0.0,0.0,-8.4908,-8.4491,-8.4572,-8.4482,-8.4095,-8.3167,-8.2625,-8.2625,-8.2625,-8.2896,-8.336,-8.3861,-8.4335,-8.4731,-8.5225,-8.6394,-8.7985,-8.7816,-8.737,-8.6865,-8.6943,-8.671,-8.6321,-8.6787,-8.7215,-8.7642,-8.8128,-8.8226,-8.8186,-8.8364,-8.8104,-8.7721,-8.7846,-8.7851,-8.7965,-8.8402,-8.8891,-8.9437,-9.0335,-9.0921,-9.1507,-9.2287,-9.249,-9.249,-9.249,-9.2756,-9.3054,-9.3405,-9.3599,-9.356,-9.3054,-9.4028,-9.5002,-9.5314,-9.6132,-9.6483,-9.5587,-9.508,-9.4535,-9.3794,-9.3288,-9.282,-9.243,-9.2391,-9.2391,-9.2391,-9.2347,-9.2035,-9.1384,-9.1161,-9.072,-9.0143,-8.9897,-8.979,-8.979,-8.979,-8.979,-8.979,-8.979,-8.979,-8.979,-8.9335,-8.9146,0.0,0.0,-6.5955,-7.3307,-7.6154,-7.7946,0.0,0.0,0.0,0.0,0.0,0.0,0.0,0.0,0.0,0.0,0.0,0.0,0.0,0.0,0.0,0.0,0.0,0.0,0.0,0.0,0.0,0.0,0.0,-8.4242,-8.363,-8.3915,-8.3902,-8.3438,-8.22,-8.1504,-8.1504,-8.1504,-8.1813,-8.2496,-8.3188,-8.3623,-8.3923,-8.3988,-8.4824,-8.6338,-8.7233,-8.702,-8.6088,-8.671,-8.6477,-8.5777,-8.6671,-8.6982,-8.7059,-8.772,-8.7564,-8.7079,-8.7783,-8.7634,-8.7092,-8.7236,-8.7299,-8.7304,-8.7362,-8.7843,-8.854,-8.9437,-9.0296,-9.1155,-9.1968,-9.2334,-9.249,-9.2479,-9.2432,-9.2391,-9.2391,-9.2898,-9.3249,-9.282,-9.3755,-9.4457,-9.4067,-9.5041,-9.5587,-9.4729,-9.4067,-9.3599,-9.3405,-9.282,-9.2391,-9.2391,-9.2391,-9.2391,-9.2391,-9.2276,-9.1894,-9.1153,-9.0967,-9.0569,-8.9839,-8.979,-8.979,-8.979,-8.979,-8.979,-8.979,-8.9601,-8.9487,-8.9487,-8.8691,-8.8312,0.0,-5.025,0.0,-6.2718,-6.8335,0.0,0.0,0.0,0.0,0.0,0.0,0.0,0.0,0.0,0.0,0.0,0.0,0.0,0.0,0.0,0.0,0.0,0.0,0.0,0.0,0.0,0.0,0.0,0.0,-8.2818,-8.2857,-8.3631,-8.3322,-8.1697,-8.1542,-8.1504,-8.1504,-8.1504,-8.1528,-8.1639,-8.1785,-8.2294,-8.3173,-8.3155,-8.3679,-8.4573,-8.5467,-8.6243,-8.6943,-8.6982,-8.6477,-8.5777,-8.6671,-8.6982,-8.702,-8.7059,-8.702,-8.7001,-8.7058,-8.7037,-8.7033,-8.7153,-8.7237,-8.7327,-8.7382,-8.744,-8.7642,-8.854,-8.9398,-9.0257,-9.1054,-9.1886,-9.249,-9.2417,-9.2419,-9.2391,-9.2391,-9.243,-9.2703,-9.3482,-9.3677,-9.3989,-9.469,-9.4924,-9.469,-9.3872,-9.3716,-9.3405,-9.2586,-9.243,-9.2391,-9.2391,-9.2391,-9.2391,-9.2391,-9.2276,-9.1894,-9.1153,-9.0967,-9.0569,-8.9839,-8.979,-8.979,-8.979,-8.979,-8.979,-8.979,-8.9032,-8.8653,-8.8653,-8.7857,-8.7478,-4.5141,0.0,0.0,-6.0437,-6.4279,-6.7582,0.0,0.0,0.0,0.0,0.0,0.0,0.0,0.0,0.0,0.0,0.0,0.0,0.0,0.0,0.0,0.0,0.0,0.0,0.0,0.0,0.0,0.0,0.0,0.0,-8.1155,-8.1968,-8.2161,-8.1542,-8.1504,-8.1233,-8.0691,-8.1282,-8.1306,-8.0787,-8.1441,-8.1949,-8.228,-8.2301,-8.2786,-8.3563,-8.3913,-8.4223,-8.4573,-8.57,-8.5661,-8.4962,-8.5816,-8.6515,-8.6982,-8.6982,-8.6982,-8.6982,-8.7001,-8.7021,-8.7001,-8.7117,-8.7164,-8.719,-8.7303,-8.7377,-8.7596,-8.8429,-8.932,-9.0179,-9.0976,-9.1847,-9.2479,-9.2419,-9.2391,-9.2391,-9.2391,-9.2391,-9.2508,-9.282,-9.3327,-9.3599,-9.3327,-9.3755,-9.3443,-9.1495,-9.2158,-9.2352,-9.0911,-9.1729,-9.2391,-9.2391,-9.2391,-9.2362,-9.2276,-9.1975,-9.1554,-9.1,-9.0685,-9.0274,-8.9839,-8.979,-8.979,-8.979,-8.979,-8.9563,-8.9032,-8.8729,-8.835,-8.7819,-8.6947,-8.6568,-4.2197,-4.5112,0.0,0.0,0.0,-6.1473,0.0,0.0,0.0,0.0,0.0,0.0,0.0,0.0,0.0,0.0,0.0,0.0,0.0,0.0,0.0,0.0,0.0,0.0,0.0,0.0,0.0,0.0,0.0,0.0,-7.984,-8.0614,-8.0962,-8.0691,-8.0923,-8.0807,-8.0251,-8.0841,-8.0888,-8.039,-8.1036,-8.1387,-8.1407,-8.1757,-8.2203,-8.2708,-8.298,-8.3097,-8.3213,-8.4651,-8.4767,-8.4068,-8.5233,-8.6049,-8.6593,-8.6904,-8.6982,-8.6982,-8.6982,-8.6982,-8.7021,-8.7028,-8.7078,-8.7125,-8.7249,-8.7343,-8.7495,-8.8084,-8.8891,-8.9743,-9.053,-9.1593,-9.2444,-9.2405,-9.2391,-9.2391,-9.2391,-9.2391,-9.2391,-9.2391,-9.2859,-9.3093,-9.2508,-9.2898,-9.2664,-9.095,-9.1651,-9.2002,-9.0833,-9.169,-9.2391,-9.2391,-9.2391,-9.2362,-9.2187,-9.1828,-9.1388,-9.0937,-9.0488,-9.0129,-8.979,-8.979,-8.979,-8.979,-8.9525,-8.8994,-8.8198,-8.8198,-8.7781,-8.6947,-8.6114,-8.5697,0.0,0.0,0.0,0.0,0.0,0.0,0.0,0.0,0.0,0.0,0.0,0.0,0.0,0.0,0.0,0.0,0.0,0.0,0.0,0.0,0.0,0.0,0.0,0.0,0.0,0.0,0.0,0.0,0.0,-7.8912,-7.8912,-7.9685,-7.9801,-7.9028,-7.9763,-8.0174,-8.0245,-8.0284,-8.0351,-8.0417,-8.0495,-8.0514,-8.061,-8.1465,-8.1854,-8.1892,-8.2708,-8.3058,-8.3136,-8.399,-8.3874,-8.3252,-8.4962,-8.5661,-8.5816,-8.6632,-8.6982,-8.6982,-8.6982,-8.6982,-8.7001,-8.7001,-8.7028,-8.7118,-8.7251,-8.7294,-8.7304,-8.7387,-8.8032,-8.8884,-8.973,-9.1158,-9.2391,-9.2391,-9.2391,-9.2391,-9.2391,-9.2391,-9.2391,-9.2391,-9.2391,-9.2391,-9.2391,-9.2391,-9.2391,-9.2313,-9.2313,-9.2313,-9.2313,-9.2313,-9.2352,-9.2391,-9.2391,-9.2362,-9.2226,-9.1805,-9.1388,-9.0937,-9.0488,-9.0129,-8.979,-8.979,-8.979,-8.979,-8.8994,-8.8198,-8.7402,-8.7364,-8.6909,-8.6076,-8.528,-8.4901,-3.6795,0.0,0.0,0.0,0.0,0.0,0.0,0.0,0.0,0.0,0.0,0.0,0.0,0.0,0.0,0.0,0.0,0.0,0.0,0.0,0.0,0.0,0.0,0.0,0.0,0.0,0.0,0.0,-7.6954,-7.7132,-7.7132,-7.7945,-7.8564,-7.8989,-7.9221,-7.9052,-7.8502,-7.9748,-7.9752,-7.8632,-7.9951,-8.0242,-7.9678,-8.0572,-8.096,-8.0999,-8.1854,-8.2242,-8.2281,-8.3136,-8.333,-8.3136,-8.3641,-8.4573,-8.5738,-8.5972,-8.6438,-8.6982,-8.6982,-8.6982,-8.6982,-8.7001,-8.7019,-8.7044,-8.7182,-8.7275,-8.7299,-8.7392,-8.8032,-8.904,-9.0472,-9.1158,-9.1612,-9.2235,-9.2391,-9.2391,-9.2391,-9.2391,-9.2391,-9.2391,-9.2391,-9.2391,-9.2391,-9.2391,-9.1963,-9.0716,-9.0521,-9.0521,-9.0521,-9.0521,-9.0989,-9.2274,-9.2391,-9.2293,-9.2054,-9.1554,-9.1136,-9.0837,-9.0269,-8.9887,-8.979,-8.979,-8.979,-8.979,-8.8994,-8.8198,-8.7402,-8.6758,-8.6038,-8.5242,-8.5014,-8.4637,-3.8024,-3.9046,-4.07,-4.2239,0.0,0.0,0.0,-5.401,0.0,0.0,0.0,0.0,0.0,0.0,0.0,0.0,0.0,0.0,0.0,0.0,0.0,0.0,0.0,0.0,0.0,0.0,0.0,-7.635,-7.6374,-7.6397,-7.6397,-7.6862,-7.7403,-7.7906,-7.8317,-7.8286,-7.7849,-7.8861,-7.8884,-7.7971,-7.8999,-7.9251,-7.8785,-7.9678,-8.0261,-8.0649,-8.1154,-8.1543,-8.1931,-8.2398,-8.2592,-8.2631,-8.298,-8.3951,-8.5195,-8.5583,-8.6243,-8.6982,-8.6982,-8.6982,-8.6982,-8.6982,-8.7001,-8.7016,-8.7165,-8.7219,-8.7288,-8.7357,-8.8018,-8.8899,-8.9847,-9.0339,-9.0794,-9.1651,-9.1846,-9.1963,-9.2313,-9.2391,-9.2391,-9.2391,-9.2391,-9.2391,-9.2391,-9.2391,-9.208,-9.1028,-9.0872,-9.0872,-9.0872,-9.0872,-9.1261,-9.2274,-9.2391,-9.226,-9.1866,-9.1378,-9.0933,-9.0605,-9.0083,-8.979,-8.979,-8.979,-8.9638,-8.9297,-8.8501,-8.7516,-8.6379,-8.6189,-8.5697,-8.4901,-8.4589,-8.4268,-4.0044,-4.0854,-4.2585,-4.4662,-4.3008,0.0,-5.1895,-5.3626,0.0,0.0,0.0,0.0,0.0,0.0,0.0,0.0,0.0,0.0,0.0,0.0,0.0,0.0,0.0,0.0,0.0,-7.6005,-7.6055,-7.6127,-7.6127,-7.6165,-7.6243,-7.6243,-7.6281,-7.6397,-7.7218,-7.7672,-7.7736,-7.7875,-7.7875,-7.7852,-7.7969,-7.7969,-7.7891,-7.8746,-7.9639,-8.0455,-8.0572,-8.1077,-8.1892,-8.1892,-8.1892,-8.197,-8.2669,-8.3485,-8.4379,-8.5233,-8.6127,-8.6865,-8.6982,-8.6982,-8.6982,-8.6982,-8.6982,-8.7019,-8.7165,-8.7212,-8.724,-8.7357,-8.7924,-8.8472,-8.8579,-8.913,-8.9897,-9.0755,-9.095,-9.1183,-9.208,-9.2274,-9.2274,-9.2391,-9.2391,-9.2391,-9.2391,-9.2391,-9.2391,-9.2391,-9.2235,-9.2197,-9.2391,-9.2235,-9.2197,-9.2391,-9.2377,-9.2187,-9.1618,-9.1291,-9.0829,-9.0312,-8.9868,-8.9676,-8.9676,-8.9601,-8.9184,-8.8463,-8.7668,-8.6493,-8.4901,-8.5621,-8.5536,-8.477,-8.4167,-8.3832,-4.2556,-4.3085,-4.3624,-4.2739,-4.3047,0.0,-4.2662,-4.447,0.0,0.0,0.0,0.0,0.0,0.0,0.0,0.0,0.0,0.0,0.0,0.0,0.0,0.0,0.0,0.0,0.0,-7.4292,-7.4316,-7.4386,-7.4386,-7.4657,-7.5314,-7.5353,-7.5662,-7.6359,-7.666,-7.6781,-7.6845,-7.7564,-7.7564,-7.6959,-7.7658,-7.7619,-7.6998,-7.7852,-7.8746,-7.96,-8.03,-8.1077,-8.1892,-8.1892,-8.1892,-8.1931,-8.2087,-8.2631,-8.3446,-8.434,-8.5195,-8.6049,-8.6749,-8.6982,-8.6982,-8.6982,-8.6982,-8.7019,-8.7165,-8.7212,-8.724,-8.7347,-8.7477,-8.7721,-8.8401,-8.8677,-8.8962,-8.9858,-9.0053,-9.0287,-9.1183,-9.1339,-9.1573,-9.2274,-9.2391,-9.2391,-9.2391,-9.2391,-9.2391,-9.2391,-9.1222,-9.0794,-9.2235,-9.1183,-9.0833,-9.2235,-9.2293,-9.2074,-9.1657,-9.1199,-9.0759,-9.0312,-8.9374,-8.8842,-8.8842,-8.8198,-8.7781,-8.763,-8.6796,-8.5886,-8.4901,-8.5052,-8.4778,-8.4078,-8.3975,-8.3359,-4.4689,-4.497,-4.5509,-4.5047,-4.4328,0.0,0.0,0.0,0.0,0.0,0.0,0.0,0.0,0.0,0.0,0.0,0.0,0.0,0.0,0.0,0.0,0.0,0.0,0.0,0.0,-7.4045,-7.386,-7.3922,-7.3883,-7.4077,-7.4502,-7.4502,-7.4889,-7.574,-7.5869,-7.6126,-7.6612,-7.7079,-7.7078,-7.6726,-7.7153,-7.7114,-7.6726,-7.7153,-7.7813,-7.8707,-7.9562,-8.0455,-8.131,-8.1737,-8.1892,-8.1892,-8.1892,-8.2398,-8.3136,-8.3602,-8.4573,-8.5777,-8.6205,-8.6632,-8.6982,-8.6982,-8.6982,-8.7019,-8.7165,-8.7255,-8.7299,-8.7354,-8.7341,-8.7398,-8.7843,-8.7897,-8.8066,-8.8923,-8.9157,-8.9391,-9.0248,-9.0443,-9.0599,-9.1028,-9.1105,-9.1378,-9.2235,-9.2391,-9.2391,-9.2391,-9.1651,-9.1417,-9.2274,-9.1261,-9.0794,-9.1651,-9.1192,-9.0591,-9.014,-8.9773,-8.9343,-8.8866,-8.8293,-8.8009,-8.8009,-8.763,-8.7213,-8.6758,-8.5924,-8.5318,-8.4901,-8.4541,-8.4218,-8.3922,-8.3563,-8.2935,-4.7319,-4.7586,-4.8279,-4.7971,-4.6364,-4.4993,0.0,0.0,0.0,0.0,0.0,0.0,0.0,0.0,0.0,0.0,0.0,0.0,0.0,0.0,0.0,0.0,0.0,0.0,0.0,-7.2971,-7.2684,-7.3342,-7.28,-7.28,-7.3612,-7.3651,-7.3999,-7.4811,-7.5175,-7.5643,-7.6361,-7.6594,-7.6687,-7.6687,-7.6687,-7.6687,-7.6687,-7.6687,-7.7192,-7.8046,-7.8901,-7.9795,-8.0688,-8.1543,-8.1892,-8.1892,-8.1892,-8.2281,-8.2903,-8.3019,-8.4107,-8.5467,-8.5622,-8.6282,-8.6982,-8.6982,-8.7001,-8.7044,-8.719,-8.7303,-8.7369,-8.7312,-8.7281,-8.7298,-8.7298,-8.7234,-8.7365,-8.8066,-8.8261,-8.8495,-8.9352,-8.9547,-8.9586,-8.9781,-8.982,-9.0248,-9.1651,-9.1885,-9.1885,-9.1885,-9.1885,-9.1885,-9.1885,-9.13,-9.0833,-9.0833,-8.9972,-8.9159,-8.8613,-8.8333,-8.7918,-8.745,-8.7251,-8.7137,-8.7137,-8.6985,-8.6606,-8.5886,-8.5242,-8.4901,-8.4901,-8.4218,-8.387,-8.3672,-8.3111,-8.2449,-5.1502,-5.2395,-5.2587,-4.8163,-4.8971,-4.9028,-4.1809,0.0,-4.4829,-4.2479,0.0,0.0,0.0,0.0,0.0,0.0,0.0,0.0,0.0,0.0,0.0,0.0,0.0,0.0,0.0,0.0,-6.8313,-7.1369,-6.8777,-6.8738,-7.2529,-7.2761,-7.3132,-7.4027,-7.4865,-7.5391,-7.5508,-7.6301,-7.6687,-7.6687,-7.6687,-7.6687,-7.6687,-7.6687,-7.7192,-7.8046,-7.8901,-7.9795,-8.0688,-8.1543,-8.1892,-8.1892,-8.1892,-8.197,-8.2126,-8.2825,-8.3718,-8.4651,-8.5428,-8.6282,-8.6982,-8.6982,-8.7089,-8.7205,-8.726,-8.733,-8.7369,-8.7312,-8.7281,-8.7298,-8.7222,-8.7209,-8.7209,-8.7326,-8.7365,-8.7598,-8.8456,-8.8651,-8.8884,-8.9664,-8.982,-8.9858,-9.0053,-9.0092,-9.0092,-9.0092,-9.0092,-9.0092,-9.0092,-9.0014,-8.9936,-8.9936,-8.9508,-8.9062,-8.8652,-8.8267,-8.7828,-8.745,-8.6682,-8.6265,-8.6265,-8.5583,-8.5166,-8.5052,-8.4939,-8.4901,-8.4901,-8.4218,-8.3618,-8.3053,-8.2449,-8.1812,-5.2171,-5.2998,-5.333,-4.9932,0.0,0.0,-4.3543,0.0,-4.2744,0.0,0.0,0.0,0.0,0.0,0.0,0.0,0.0,0.0,0.0,0.0,0.0,0.0,0.0,0.0,0.0,0.0,0.0,0.0,0.0,-6.6379,-7.0208,-7.0849,-7.1781,-7.3158,-7.3627,-7.4344,-7.541,-7.5815,-7.6259,-7.6687,-7.6687,-7.6687,-7.6687,-7.6687,-7.692,-7.7308,-7.8163,-7.9057,-7.9911,-8.0805,-8.1426,-8.1892,-8.1892,-8.1892,-8.1931,-8.2281,-8.2941,-8.3757,-8.4651,-8.5505,-8.6321,-8.6826,-8.7092,-8.7225,-8.7216,-8.7291,-8.7351,-8.732,-8.7259,-8.7222,-8.7209,-8.7209,-8.7209,-8.7209,-8.7209,-8.7287,-8.7676,-8.7754,-8.7832,-8.8222,-8.83,-8.83,-8.83,-8.9118,-8.982,-8.982,-8.982,-8.982,-8.982,-8.9352,-8.9012,-8.884,-8.8018,-8.7311,-8.6901,-8.6468,-8.6203,-8.5962,-8.5621,-8.5393,-8.5393,-8.509,-8.4901,-8.4901,-8.4901,-8.4722,-8.4306,-8.3709,-8.3053,-8.2386,-8.2132,-8.1678,-5.4508,0.0,0.0,0.0,0.0,0.0,0.0,0.0,0.0,0.0,0.0,0.0,0.0,0.0,0.0,0.0,0.0,0.0,0.0,0.0,0.0,0.0,0.0,0.0,0.0,0.0,0.0,0.0,0.0,0.0,-6.8256,-6.9303,-7.0467,-7.1998,-7.254,-7.3431,-7.4691,-7.5232,-7.5793,-7.6376,-7.6609,-7.6687,-7.6687,-7.6687,-7.6687,-7.6764,-7.7619,-7.8474,-7.9367,-8.0222,-8.1116,-8.1892,-8.1892,-8.1892,-8.1892,-8.1892,-8.2398,-8.3174,-8.3835,-8.4767,-8.5836,-8.6755,-8.7114,-8.7225,-8.7224,-8.7279,-8.7292,-8.7309,-8.7234,-8.7209,-8.7209,-8.7209,-8.7209,-8.7209,-8.7209,-8.7209,-8.7209,-8.7209,-8.7209,-8.7209,-8.7209,-8.7209,-8.7209,-8.8261,-8.9079,-8.9079,-8.9079,-8.9079,-8.9079,-8.8534,-8.8048,-8.7779,-8.6829,-8.6015,-8.5622,-8.5235,-8.4961,-8.4901,-8.4901,-8.4901,-8.4901,-8.4901,-8.4901,-8.4901,-8.4722,-8.4405,-8.3922,-8.3111,-8.2449,-8.2003,-8.1842,-8.151,0.0,0.0,0.0,-5.2256,0.0,0.0,0.0,0.0,-4.5291,0.0,0.0,0.0,0.0,0.0,-4.5466,-4.3867,0.0,0.0,0.0,0.0,0.0,0.0,0.0,0.0,0.0,0.0,0.0,0.0,0.0,0.0,-6.7271,-6.8472,-6.9382,-7.0365,-7.1956,-7.2867,-7.2996,-7.4667,-7.5521,-7.556,-7.6337,-7.6687,-7.6687,-7.6687,-7.6687,-7.6764,-7.7619,-7.8474,-7.9367,-8.0222,-8.1116,-8.1892,-8.1892,-8.1892,-8.1892,-8.1892,-8.2398,-8.3097,-8.3136,-8.4262,-8.5892,-8.6882,-8.7212,-8.724,-8.7353,-8.7369,-8.7292,-8.7309,-8.7234,-8.7209,-8.7209,-8.7209,-8.7209,-8.7209,-8.7209,-8.7209,-8.7209,-8.7209,-8.7209,-8.7209,-8.7209,-8.7209,-8.7209,-8.7248,-8.7287,-8.7287,-8.7287,-8.7287,-8.7287,-8.7248,-8.7152,-8.6846,-8.6441,-8.6045,-8.5622,-8.5235,-8.4961,-8.4901,-8.4901,-8.4901,-8.4901,-8.4901,-8.4901,-8.4901,-8.4268,-8.3922,-8.3922,-8.2658,-8.2003,-8.1974,-8.1372,-8.1092,0.0,0.0,-6.142,-5.5794,0.0,0.0,0.0,0.0,0.0,0.0,0.0,0.0,0.0,0.0,-4.6402,-4.4723,-4.4726,0.0,0.0,0.0,0.0,0.0,0.0,0.0,0.0,0.0,0.0,0.0,-5.5986,0.0,0.0,-6.6144,-6.7924,-6.9395,-7.1098,-7.228,-7.288,-7.4045,-7.4939,-7.5521,-7.6337,-7.6687,-7.6687,-7.6687,-7.6687,-7.6726,-7.6998,-7.7619,-7.8513,-7.9367,-8.0261,-8.1116,-8.1659,-8.1892,-8.1892,-8.1892,-8.2087,-8.2359,-8.2903,-8.4223,-8.5757,-8.6194,-8.6683,-8.7167,-8.7294,-8.7308,-8.7309,-8.7298,-8.7234,-8.7209,-8.7209,-8.7209,-8.7209,-8.7209,-8.7209,-8.7209,-8.7209,-8.7209,-8.7209,-8.7209,-8.7209,-8.7209,-8.7209,-8.7209,-8.7209,-8.7209,-8.7209,-8.7209,-8.7209,-8.7044,-8.6807,-8.6553,-8.6114,-8.5696,-8.5355,-8.5094,-8.4909,-8.4901,-8.4901,-8.4901,-8.4901,-8.4901,-8.4901,-8.4901,-8.4218,-8.3672,-8.3284,-8.2449,-8.1776,-8.1408,-8.1234,-8.1128,-6.5572,-6.5379,0.0,-5.9885,-5.7066,0.0,-4.9242,0.0,0.0,0.0,0.0,0.0,0.0,0.0,0.0,-4.6891,-4.5651,-4.362,0.0,-3.874,0.0,0.0,0.0,0.0,0.0,0.0,-5.0127,-5.4163,-5.2499,0.0,0.0,0.0,-6.5979,-6.8053,-7.0066,-7.1559,-7.2413,-7.3618,-7.4472,-7.5055,-7.6182,-7.6687,-7.6687,-7.6687,-7.6687,-7.6687,-7.6687,-7.7192,-7.8085,-7.894,-7.9795,-8.0688,-8.1543,-8.1892,-8.1892,-8.1892,-8.1892,-8.2009,-8.2825,-8.4029,-8.5329,-8.5765,-8.6449,-8.7167,-8.7252,-8.7299,-8.7309,-8.7286,-8.7222,-8.7209,-8.7209,-8.7209,-8.7209,-8.7209,-8.7209,-8.7209,-8.7209,-8.7209,-8.7209,-8.7209,-8.7209,-8.7209,-8.7209,-8.7209,-8.7209,-8.7209,-8.7209,-8.7209,-8.7209,-8.6955,-8.6704,-8.6377,-8.5896,-8.5475,-8.5132,-8.4992,-8.4901,-8.4901,-8.4901,-8.4901,-8.4901,-8.4901,-8.4808,-8.4541,-8.3922,-8.3284,-8.2634,-8.1974,-8.151,-8.1128,-8.1128,-8.1128]}]]